Weather

Date & Time of Reading Indoor Temperature(C) Indoor Humidity(%) Outdoor Temperature(C) Outdoor Humidity(%) Windspeed(m/s) Wind Direction
2015-12-08 09:57:34 14.3 77 12.4 91 0.4 NW
2015-12-08 09:27:34 11.5 75 12.2 91 0.0 W
2015-12-08 08:57:34 11.2 74 11.8 93 0.4 W
2015-12-08 08:27:34 11.2 73 11.9 93 0.4 SW
2015-12-08 07:57:34 11.1 73 11.7 93 0.0 SW
2015-12-08 07:27:34 11.1 73 11.6 94 0.9 SW
2015-12-08 06:57:34 11.1 73 11.4 94 0.4 W
2015-12-08 06:27:34 11.1 73 11.2 95 0.4 SW
2015-12-08 05:57:34 11.1 73 11.0 94 0.0 SW
2015-12-08 05:27:34 11.1 73 10.9 94 0.4 SW
2015-12-08 04:57:34 11.1 73 10.7 93 0.9 SW
2015-12-08 04:27:34 11.1 72 10.7 90 0.4 SW
2015-12-08 03:57:34 11.2 72 10.5 87 0.4 SE
2015-12-08 03:27:34 11.1 72 10.9 84 0.0 NW
2015-12-08 02:57:34 11.3 72 11.0 83 0.0 W
2015-12-08 02:27:34 11.4 72 10.9 83 0.4 SW
2015-12-08 01:57:34 11.5 72 10.5 85 0.4 SW
2015-12-08 01:27:34 11.7 72 10.2 86 0.0 W
2015-12-08 00:57:34 11.8 72 10.1 87 0.0 SW
2015-12-08 00:27:34 11.9 72 10.2 86 0.0 N
2015-12-07 23:57:34 12.3 72 10.2 84 0.0 NW
2015-12-07 23:27:34 12.5 69 10.5 83 0.0 NE
2015-12-07 22:57:34 12.7 69 10.7 83 0.4 SW
2015-12-07 22:27:34 12.9 69 10.7 84 0.4 SW
2015-12-07 21:57:34 13.3 69 10.5 83 0.0 NE
2015-12-07 21:27:34 13.6 69 10.5 86 0.0 SW
2015-12-07 20:57:34 14.0 70 10.5 89 0.0 SW
2015-12-07 20:27:34 14.4 70 10.7 93 0.0 SW
2015-12-07 19:57:34 14.8 70 10.7 94 0.0 NW
2015-12-07 19:27:34 15.3 70 10.7 93 0.0 SE
2015-12-07 18:57:34 15.8 70 11.2 93 0.0 NW
2015-12-07 18:27:34 16.3 70 11.7 92 0.0 SW
2015-12-07 17:57:34 16.9 70 11.9 91 0.4 NE
2015-12-07 17:27:34 17.5 68 11.8 90 0.0 N
2015-12-07 16:57:34 18.3 68 12.0 88 0.0 W
2015-12-07 16:27:34 19.0 68 12.4 87 0.0 NE
2015-12-07 15:57:34 19.9 68 13.6 82 0.0 SW
2015-12-07 15:27:34 20.9 69 13.8 82 0.0 N
2015-12-07 14:57:34 21.4 71 14.0 80 0.4 SW
2015-12-07 14:27:34 21.2 71 14.3 80 0.0 NE
2015-12-07 13:57:34 19.9 67 14.6 82 0.0 NW
2015-12-07 13:27:34 17.1 74 14.3 84 0.4 NW
2015-12-07 12:57:34 16.4 73 13.9 86 0.0 NW
2015-12-07 12:27:34 16.8 73 14.0 88 0.4 SW
2015-12-07 11:57:34 17.1 74 13.6 90 0.4 SW
2015-12-07 11:27:34 17.6 72 13.4 90 0.0 SW
2015-12-07 10:57:34 18.1 74 13.2 92 0.0 NE
2015-12-07 10:27:34 17.3 80 13.2 93 0.0 SW
2015-12-07 09:57:34 13.8 77 13.0 95 0.4 SW
2015-12-07 09:27:34 10.9 72 12.4 99 0.0 SW
2015-12-07 08:57:34 10.6 71 12.0 99 0.0 NW
2015-12-07 08:27:34 10.4 71 11.8 99 0.0 W
2015-12-07 07:57:34 10.3 71 11.8 99 0.0 W
2015-12-07 07:27:34 10.1 70 11.7 98 0.0 SW
2015-12-07 06:57:34 10.0 70 10.4 94 0.0 NE
2015-12-07 06:27:34 10.0 70 9.9 93 0.0 NE
2015-12-07 05:57:34 9.9 70 9.8 92 0.0 NE
2015-12-07 05:27:34 9.9 70 9.5 89 0.0 NE
2015-12-07 04:57:34 9.9 70 9.3 86 0.0 NE
2015-12-07 04:27:34 9.9 69 9.3 82 0.0 SE
2015-12-07 03:57:34 9.9 69 9.1 80 0.0 SE
2015-12-07 03:27:34 9.9 69 9.0 82 0.0 E
2015-12-07 02:57:34 10.0 69 8.6 83 0.0 N
2015-12-07 02:27:34 10.1 69 8.3 83 0.0 NE
2015-12-07 01:57:34 10.1 69 8.0 83 0.0 NE
2015-12-07 01:27:34 10.2 69 7.8 83 0.0 NE
2015-12-07 00:57:34 10.3 69 8.0 83 0.0 NE
2015-12-07 00:27:34 10.4 69 8.0 83 0.0 NE
2015-12-06 23:57:34 10.6 69 8.0 82 0.0 NE
2015-12-06 23:27:34 10.7 70 7.8 80 0.0 NE
2015-12-06 22:57:34 10.9 70 7.5 80 0.0 NW
2015-12-06 22:27:34 11.1 70 7.2 83 0.0 NW
2015-12-06 21:57:34 11.3 70 7.2 81 0.0 NW
2015-12-06 21:27:34 11.6 70 7.2 80 0.0 NW
2015-12-06 20:57:34 11.9 70 7.5 74 0.0 NW
2015-12-06 20:27:34 12.2 70 8.1 75 0.4 W
2015-12-06 19:57:34 12.6 68 8.0 77 0.0 NW
2015-12-06 19:27:34 13.0 68 8.2 76 0.0 NW
2015-12-06 18:57:34 13.4 68 8.3 76 0.0 NW
2015-12-06 18:27:34 13.7 69 8.6 75 0.0 NW
2015-12-06 17:57:34 14.0 69 9.5 75 0.4 NW
2015-12-06 17:27:34 14.4 69 10.2 73 1.8 NW
2015-12-06 16:57:34 14.8 69 11.0 76 2.6 W
2015-12-06 16:27:34 15.1 69 11.2 78 1.8 W
2015-12-06 15:57:34 15.5 69 11.2 79 1.8 SW
2015-12-06 15:27:34 15.9 69 11.7 77 0.0 SW
2015-12-06 14:57:34 16.2 69 11.9 78 1.3 W
2015-12-06 14:27:34 16.6 68 11.9 83 1.3 W
2015-12-06 13:57:34 17.2 67 11.7 85 2.2 W
2015-12-06 13:27:34 17.7 63 14.8 69 2.2 SW
2015-12-06 12:57:34 19.9 59 15.0 69 1.8 SW
2015-12-06 12:27:34 21.5 61 15.2 68 2.6 S
2015-12-06 11:57:34 16.5 70 14.1 75 1.8 SW
2015-12-06 11:27:34 15.4 69 14.6 70 3.1 SW
2015-12-06 10:57:34 15.4 70 14.8 68 0.9 SW
2015-12-06 10:27:34 13.8 71 14.3 69 1.8 W
2015-12-06 09:57:34 13.2 70 14.1 70 2.6 SW
2015-12-06 09:27:34 13.0 70 14.1 69 1.8 SE
2015-12-06 08:57:34 12.8 70 13.9 68 2.2 SW
2015-12-06 08:27:34 12.7 69 13.9 68 2.6 S
2015-12-06 07:57:34 12.6 69 13.6 69 2.6 W
2015-12-06 07:27:34 12.5 69 13.2 67 3.1 SW
2015-12-06 06:57:34 12.5 69 13.6 64 2.6 SW
2015-12-06 06:27:34 12.4 71 13.6 64 1.8 SW
2015-12-06 05:57:34 12.4 71 13.2 64 2.6 SW
2015-12-06 05:27:34 12.3 71 13.0 64 3.5 SW
2015-12-06 04:57:34 12.2 71 12.5 66 2.6 S
2015-12-06 04:27:34 12.2 71 12.5 66 2.2 SW
2015-12-06 03:57:34 12.2 71 13.2 65 2.2 SW
2015-12-06 03:27:34 12.2 71 12.5 66 2.2 SE
2015-12-06 02:57:34 12.1 70 12.4 69 2.6 S
2015-12-06 02:27:34 12.1 70 12.4 69 2.2 SW
2015-12-06 01:57:34 12.2 70 12.2 68 1.3 SW
2015-12-06 01:27:34 12.2 70 12.2 68 1.3 S
2015-12-06 00:57:34 12.2 70 12.2 67 1.8 W
2015-12-06 00:27:34 12.1 70 12.4 65 0.9 SW
2015-12-05 23:57:34 12.1 70 12.4 65 1.8 SW
2015-12-05 23:27:34 12.1 70 12.4 65 1.3 SW
2015-12-05 22:57:34 12.1 70 12.4 65 3.1 SW
2015-12-05 22:27:34 12.1 70 12.4 64 2.2 SW
2015-12-05 21:57:34 12.1 70 12.4 64 2.2 SW
2015-12-05 21:27:34 12.1 70 12.2 64 2.2 SW
2015-12-05 20:57:34 12.1 70 12.2 64 2.2 SW
2015-12-05 20:27:34 12.1 70 12.0 63 2.2 SW
2015-12-05 19:57:34 12.1 70 12.2 63 2.6 ---
2015-12-05 19:27:34 12.1 70 12.2 63 1.8 SW
2015-12-05 18:57:34 12.1 70 12.2 63 1.8 SW
2015-12-05 18:27:34 12.1 70 12.2 64 1.8 SW
2015-12-05 17:57:34 12.1 70 12.4 64 1.3 SW
2015-12-05 17:27:34 12.1 70 12.4 64 1.3 SW
2015-12-05 16:57:34 12.2 70 12.2 65 1.8 SW
2015-12-05 16:27:34 12.2 70 12.4 64 1.8 SW
2015-12-05 15:57:34 12.2 70 12.0 65 2.6 NE
2015-12-05 15:27:34 12.2 70 12.4 64 1.8 SW
2015-12-05 14:57:34 12.2 70 12.2 63 3.1 ---
2015-12-05 14:27:34 12.2 70 12.2 63 2.6 SW
2015-12-05 13:57:34 12.1 70 12.0 64 2.6 SW
2015-12-05 13:27:34 12.0 70 12.0 63 2.6 W
2015-12-05 12:57:34 12.0 70 12.0 64 2.6 ---
2015-12-05 12:27:34 11.8 70 11.8 64 2.6 SW
2015-12-05 11:57:34 11.7 70 11.8 64 1.8 SW
2015-12-05 11:27:34 11.6 70 11.8 64 2.2 SW
2015-12-05 10:57:34 11.5 70 11.8 64 2.6 SW
2015-12-05 10:27:34 11.4 70 11.9 64 2.2 SW
2015-12-05 09:57:34 11.3 70 11.7 65 2.2 SW
2015-12-05 09:27:34 11.2 70 11.7 65 2.6 S
2015-12-05 08:57:34 11.2 70 11.6 66 1.8 W
2015-12-05 08:27:34 11.1 70 11.4 66 2.2 SW
2015-12-05 07:57:34 11.1 70 11.4 66 2.2 SW
2015-12-05 07:27:34 11.2 70 11.2 67 1.8 SE
2015-12-05 06:57:34 11.2 70 11.2 67 1.3 SE
2015-12-05 06:27:34 11.2 70 11.4 66 1.8 SW
2015-12-05 05:57:34 11.2 70 11.4 67 1.3 SW
2015-12-05 05:27:34 11.2 70 11.2 68 1.3 E
2015-12-05 04:57:34 11.2 70 11.4 66 2.2 S
2015-12-05 04:27:34 11.2 70 11.4 66 1.3 SW
2015-12-05 03:57:34 11.2 70 11.7 65 2.2 SW
2015-12-05 03:27:34 11.2 70 11.6 66 2.2 SW
2015-12-05 02:57:34 11.2 70 11.6 67 1.3 SW
2015-12-05 02:27:34 11.2 70 11.7 67 1.3 SW
2015-12-05 01:57:34 11.2 70 11.7 68 1.3 E
2015-12-05 01:27:34 11.2 70 11.6 69 2.2 SE
2015-12-05 00:57:34 11.2 70 11.4 69 1.3 SW
2015-12-05 00:27:34 11.3 70 11.2 70 0.9 SW
2015-12-04 23:57:34 11.3 69 11.2 70 1.8 SW
2015-12-04 23:27:34 11.3 69 11.2 70 1.8 S
2015-12-04 22:57:34 11.3 69 11.0 71 2.2 SW
2015-12-04 22:27:34 11.4 69 11.0 71 1.3 SW
2015-12-04 21:57:34 11.5 69 10.9 72 0.9 NE
2015-12-04 21:27:34 11.6 69 11.0 72 1.8 SW
2015-12-04 20:57:34 11.6 69 11.0 73 1.3 SW
2015-12-04 20:27:34 11.7 69 11.0 75 0.4 SW
2015-12-04 19:57:34 11.9 69 10.5 77 0.9 SW
2015-12-04 19:27:34 12.0 69 10.5 77 0.9 SW
2015-12-04 18:57:34 12.2 68 10.9 75 0.9 SW
2015-12-04 18:27:34 12.3 68 10.9 75 1.3 W
2015-12-04 17:57:34 12.4 68 10.7 76 1.8 SW
2015-12-04 17:27:34 12.7 66 10.9 76 2.2 SW
2015-12-04 16:57:34 12.9 66 11.0 74 1.3 SW
2015-12-04 16:27:34 13.2 65 10.9 74 0.9 SW
2015-12-04 15:57:34 13.6 65 11.2 73 1.8 SW
2015-12-04 15:27:34 14.0 65 10.7 75 0.4 SW
2015-12-04 14:57:34 14.3 65 10.7 75 0.0 SW
2015-12-04 14:27:34 14.7 65 10.7 73 0.4 SW
2015-12-04 13:57:34 15.2 64 10.7 73 1.3 S
2015-12-04 13:27:34 15.9 64 10.7 72 0.9 W
2015-12-04 12:57:34 16.9 62 10.9 71 2.2 SW
2015-12-04 12:27:34 19.0 58 11.0 70 2.6 W
2015-12-04 11:57:34 21.0 58 10.9 70 2.2 SW
2015-12-04 11:27:34 20.2 58 10.4 71 2.6 W
2015-12-04 10:57:34 21.7 57 10.0 74 0.9 W
2015-12-04 10:27:34 15.1 67 8.6 76 0.4 SW
2015-12-04 09:57:34 10.9 67 7.5 78 0.4 SW
2015-12-04 09:27:34 9.1 67 6.7 81 0.4 S
2015-12-04 08:57:34 7.9 66 6.3 79 0.4 SW
2015-12-04 08:27:34 7.9 66 6.8 79 0.9 SW
2015-12-04 07:57:34 8.0 66 7.0 77 0.0 SW
2015-12-04 07:27:34 8.1 66 6.3 76 0.9 SW
2015-12-04 06:57:34 8.3 66 6.3 75 0.0 SW
2015-12-04 06:27:34 8.5 67 6.1 75 0.0 SW
2015-12-04 05:57:34 8.7 67 6.3 75 0.9 SW
2015-12-04 05:27:34 8.9 67 6.3 75 1.3 SW
2015-12-04 04:57:34 9.2 67 6.7 74 1.8 S
2015-12-04 04:27:34 9.6 67 6.3 75 1.3 W
2015-12-04 03:57:34 9.9 68 6.4 77 2.2 W
2015-12-04 03:27:34 10.3 68 6.7 74 3.1 W
2015-12-04 02:57:34 10.6 68 7.1 72 4.4 W
2015-12-04 02:27:34 11.1 69 7.2 74 4.0 NW
2015-12-04 01:57:34 11.5 69 7.5 73 4.4 W
2015-12-04 01:27:34 11.8 70 8.3 71 4.8 NW
2015-12-04 00:57:34 12.1 71 9.0 71 4.4 W
2015-12-04 00:27:34 12.3 72 9.7 74 5.3 W
2015-12-03 23:57:34 12.4 72 10.1 78 7.0 W
2015-12-03 23:27:34 12.4 72 11.8 93 1.8 SW
2015-12-03 22:57:34 12.4 72 11.9 90 1.3 SW
2015-12-03 22:27:34 12.5 69 11.9 85 1.8 SW
2015-12-03 21:57:34 12.6 69 11.2 85 1.8 SW
2015-12-03 21:27:34 12.7 69 11.0 83 1.3 SW
2015-12-03 20:57:34 12.9 68 11.2 82 1.3 NW
2015-12-03 20:27:34 13.0 68 11.4 82 1.3 NW
2015-12-03 19:57:34 13.1 68 11.7 78 0.9 SW
2015-12-03 19:27:34 13.2 68 11.9 76 0.4 S
2015-12-03 18:57:34 13.4 68 11.9 77 0.0 N
2015-12-03 18:27:34 13.4 68 11.7 78 0.4 N
2015-12-03 17:57:34 13.6 69 12.0 78 0.9 SW
2015-12-03 17:27:34 13.7 69 12.2 79 0.9 NW
2015-12-03 16:57:34 13.9 69 12.2 81 0.9 NW
2015-12-03 16:27:34 14.0 69 12.2 83 0.9 NE
2015-12-03 15:57:34 14.1 69 12.0 84 0.4 SW
2015-12-03 15:27:34 14.3 69 12.4 84 0.0 NE
2015-12-03 14:57:34 14.3 69 12.5 80 0.4 NW
2015-12-03 14:27:34 14.4 69 13.0 80 0.0 NW
2015-12-03 13:57:34 14.5 69 13.2 80 0.9 NW
2015-12-03 13:27:34 14.5 69 13.2 80 0.9 SW
2015-12-03 12:57:34 14.5 69 13.4 80 0.9 SW
2015-12-03 12:27:34 14.4 69 13.2 80 0.4 SW
2015-12-03 11:57:34 14.2 69 13.2 80 0.0 SW
2015-12-03 11:27:34 14.1 69 13.4 79 0.4 SW
2015-12-03 10:57:34 14.1 69 13.4 80 0.4 SW
2015-12-03 10:27:34 14.1 70 13.4 80 0.4 SW
2015-12-03 09:57:34 13.6 69 13.4 84 0.9 W
2015-12-03 09:27:34 12.9 67 13.0 87 0.4 SW
2015-12-03 08:57:34 12.7 66 12.5 90 0.4 SW
2015-12-03 08:27:34 12.6 65 12.4 99 0.4 S
2015-12-03 07:57:34 12.6 65 12.2 99 0.0 SW
2015-12-03 07:27:34 12.6 64 12.0 99 0.4 SW
2015-12-03 06:57:34 12.6 64 11.8 99 0.0 W
2015-12-03 06:27:34 12.5 63 11.9 99 0.0 NW
2015-12-03 05:57:34 12.6 63 11.9 99 0.0 SW
2015-12-03 05:27:34 12.6 63 11.7 99 0.0 SW
2015-12-03 04:57:34 12.6 63 11.7 99 0.0 SW
2015-12-03 04:27:34 12.7 63 11.6 99 0.0 SW
2015-12-03 03:57:34 12.7 63 11.6 99 0.0 SW
2015-12-03 03:27:34 12.8 63 11.2 99 0.0 SW
2015-12-03 02:57:34 12.8 63 11.2 99 0.0 SW
2015-12-03 02:27:34 12.9 63 11.4 98 0.0 SW
2015-12-03 01:57:34 13.1 62 11.6 98 0.0 SW
2015-12-03 01:27:34 13.1 62 11.4 97 0.0 SW
2015-12-03 00:57:34 13.3 62 11.4 96 0.0 SW
2015-12-03 00:27:34 13.4 62 11.4 94 0.0 SW
2015-12-02 23:57:34 13.5 62 11.4 92 0.0 SW
2015-12-02 23:27:34 13.7 62 11.4 91 0.0 SW
2015-12-02 22:57:34 13.9 62 11.6 89 0.0 SW
2015-12-02 22:27:34 14.0 62 11.6 87 0.0 SW
2015-12-02 21:57:34 14.3 61 11.7 84 0.4 SW
2015-12-02 21:27:34 14.5 61 11.8 80 0.4 W
2015-12-02 20:57:34 14.7 61 12.0 79 0.4 SW
2015-12-02 20:27:34 15.0 61 12.0 77 0.9 SW
2015-12-02 19:57:34 15.3 60 12.2 75 0.9 SW
2015-12-02 19:27:34 15.6 60 12.4 74 0.9 SW
2015-12-02 18:57:34 15.9 60 12.4 73 0.4 SW
2015-12-02 18:27:34 16.3 60 12.4 72 0.4 S
2015-12-02 17:57:34 16.7 59 12.5 68 0.9 SW
2015-12-02 17:27:34 17.3 59 12.4 70 0.9 SW
2015-12-02 16:57:34 17.8 56 12.5 65 1.3 SE
2015-12-02 16:27:34 18.6 56 12.5 65 0.4 SW
2015-12-02 15:57:34 19.4 56 13.0 64 0.9 W
2015-12-02 15:27:34 20.4 55 12.5 64 0.9 SW
2015-12-02 14:57:34 21.4 54 13.2 62 0.9 SW
2015-12-02 14:27:34 22.7 51 13.4 61 1.3 S
2015-12-02 13:57:34 24.4 49 13.6 60 0.4 SW
2015-12-02 13:27:34 27.9 44 13.6 59 0.9 SW
2015-12-02 12:57:34 31.0 39 14.0 59 1.3 SW
2015-12-02 12:27:34 37.2 32 13.4 62 0.4 W
2015-12-02 11:57:34 38.8 36 12.4 66 0.4 SW
2015-12-02 11:27:34 32.9 46 12.2 67 1.3 SW
2015-12-02 10:57:34 29.7 48 11.6 68 0.9 E
2015-12-02 10:27:34 20.3 58 11.2 71 0.9 SW
2015-12-02 09:57:34 15.6 70 10.9 72 0.9 SW
2015-12-02 09:27:34 12.1 69 10.5 73 0.4 SW
2015-12-02 08:57:34 10.5 69 10.2 72 0.9 SW
2015-12-02 08:27:34 10.5 69 10.2 72 0.4 SW
2015-12-02 07:57:34 10.6 69 9.9 73 0.0 SW
2015-12-02 07:27:34 10.7 69 10.0 75 0.4 W
2015-12-02 06:57:34 10.8 69 10.1 73 0.0 NW
2015-12-02 06:27:34 10.9 69 10.2 71 0.0 NW
2015-12-02 05:57:34 10.9 69 10.7 71 0.4 SW
2015-12-02 05:27:34 11.0 69 10.9 69 0.4 SW
2015-12-02 04:57:34 11.0 69 11.0 68 0.4 SW
2015-12-02 04:27:34 11.0 69 11.2 66 0.9 SW
2015-12-02 03:57:34 11.1 69 11.4 65 0.4 S
2015-12-02 03:27:34 11.2 69 11.0 70 1.3 SW
2015-12-02 02:57:34 11.2 69 10.9 73 0.4 SW
2015-12-02 02:27:34 11.3 69 11.0 73 0.9 SW
2015-12-02 01:57:34 11.4 69 11.0 72 0.4 SW
2015-12-02 01:27:34 11.5 69 10.9 71 0.0 S
2015-12-02 00:57:34 11.7 69 10.9 71 0.0 SW
2015-12-02 00:27:34 11.8 69 10.7 73 0.0 SW
2015-12-01 23:57:34 11.9 68 10.9 73 0.0 SW
2015-12-01 23:27:34 12.1 68 10.9 73 0.4 NE
2015-12-01 22:57:34 12.3 68 10.9 74 0.0 SW
2015-12-01 22:27:34 12.6 66 10.4 75 0.0 NE
2015-12-01 21:57:34 12.9 66 10.7 74 0.4 SW
2015-12-01 21:27:34 13.2 67 11.0 76 0.9 SW
2015-12-01 20:57:34 13.5 67 11.4 78 1.3 S
2015-12-01 20:27:34 13.8 67 11.6 78 0.9 SW
2015-12-01 19:57:34 14.0 67 11.8 78 0.4 W
2015-12-01 19:27:34 14.3 67 12.5 70 0.9 SW
2015-12-01 18:57:34 14.6 67 12.4 78 1.3 SW
2015-12-01 18:27:34 15.1 67 12.4 80 0.4 SW
2015-12-01 17:57:34 15.5 67 12.5 76 1.8 SW
2015-12-01 17:27:34 16.1 67 13.2 74 0.4 NW
2015-12-01 16:57:34 16.5 67 13.2 75 2.6 SW
2015-12-01 16:27:34 17.1 66 13.4 73 1.8 SW
2015-12-01 15:57:34 19.0 63 13.6 73 1.3 SW
2015-12-01 15:27:34 20.7 68 14.0 73 1.3 SW
2015-12-01 14:57:34 19.5 70 13.8 73 1.3 S
2015-12-01 14:27:34 16.7 73 --- --- --- ---
2015-12-01 13:57:34 13.6 71 --- --- --- ---
2015-12-01 13:27:34 11.3 68 11.6 98 0.4 W
2015-12-01 12:57:34 11.3 67 11.2 99 0.4 SW
2015-12-01 12:27:34 11.7 67 10.4 99 0.9 SW
2015-12-01 11:57:34 12.2 67 9.5 99 0.9 SW
2015-12-01 11:27:34 12.0 67 8.5 98 0.0 S
2015-12-01 10:57:34 12.5 66 7.7 97 0.4 SW
2015-12-01 10:27:34 12.7 68 7.1 99 0.0 W
2015-12-01 09:57:34 10.2 71 6.3 98 0.0 N
2015-12-01 09:27:34 7.2 70 5.9 96 0.0 NW
2015-12-01 08:57:34 5.5 65 5.6 95 0.0 NE
2015-12-01 08:27:34 5.5 65 5.4 94 0.0 W
2015-12-01 07:57:34 5.5 65 5.1 93 0.0 W
2015-12-01 07:27:34 5.5 65 4.9 93 0.0 W
2015-12-01 06:57:34 5.5 65 4.6 92 0.0 W
2015-12-01 06:27:34 5.6 65 4.3 93 0.0 W
2015-12-01 05:57:34 5.7 65 4.7 93 0.0 W
2015-12-01 05:27:34 5.8 65 4.3 92 0.0 W
2015-12-01 04:57:34 5.9 65 4.2 91 0.0 W
2015-12-01 04:27:34 6.1 65 3.8 89 0.0 W
2015-12-01 03:57:34 6.3 65 3.4 87 0.0 W
2015-12-01 03:27:34 6.5 65 3.7 85 0.0 W
2015-12-01 02:57:34 6.7 65 4.4 85 0.0 W
2015-12-01 02:27:34 6.9 66 4.3 84 0.0 W
2015-12-01 01:57:34 7.2 66 4.3 87 0.4 W
2015-12-01 01:27:34 7.4 66 4.2 86 0.0 NW
2015-12-01 00:57:34 7.7 63 4.6 86 0.0 W
2015-12-01 00:27:34 8.0 64 4.6 86 0.9 W
2015-11-30 23:57:34 8.4 64 4.5 87 0.9 NW
2015-11-30 23:27:34 8.8 64 5.0 89 0.9 ---
2015-11-30 22:57:34 9.3 64 4.7 88 0.9 ---
2015-11-30 22:27:34 9.8 64 4.4 88 1.3 ---
2015-11-30 21:57:34 10.3 64 5.0 87 0.4 W
2015-11-30 21:27:34 10.7 65 4.9 88 0.9 NW
2015-11-30 20:57:34 11.5 65 5.0 89 0.9 NW
2015-11-30 20:27:34 12.2 65 5.6 86 1.3 NW
2015-11-30 19:57:34 12.8 62 6.3 86 2.2 NW
2015-11-30 19:27:34 13.5 63 6.7 86 4.4 N
2015-11-30 18:57:34 14.3 63 7.4 91 3.5 NW
2015-11-30 18:27:34 15.1 64 7.8 88 2.2 NW
2015-11-30 17:57:34 16.0 65 8.0 86 2.6 NW
2015-11-30 17:27:34 16.7 66 9.3 82 4.8 NW
2015-11-30 16:57:34 17.5 64 12.5 78 7.0 NW
2015-11-30 16:27:34 18.3 63 12.2 90 3.1 SW
2015-11-30 15:57:34 19.5 63 12.2 88 4.0 W
2015-11-30 15:27:34 20.8 64 12.0 87 4.8 W
2015-11-30 14:57:34 21.7 65 11.6 87 3.1 SW
2015-11-30 14:27:34 20.8 65 11.9 85 3.1 SW
2015-11-30 13:57:34 20.2 62 11.7 86 2.6 SW
2015-11-30 13:27:34 21.7 64 11.4 91 1.3 ---
2015-11-30 12:57:34 21.8 65 10.5 98 0.9 SW
2015-11-30 12:27:34 20.3 66 --- --- --- ---
2015-11-30 11:57:34 18.2 67 --- --- --- ---
2015-11-30 11:27:34 15.8 70 --- --- --- ---
2015-11-30 10:57:34 13.2 70 --- --- --- ---
2015-11-30 10:27:34 10.3 71 --- --- --- ---
2015-11-30 09:57:34 7.0 69 --- --- --- ---
2015-11-30 09:27:34 5.8 66 --- --- --- ---
2015-11-30 08:57:34 5.8 66 --- --- --- ---
2015-11-30 08:27:34 5.8 66 --- --- --- ---
2015-11-30 07:57:34 5.8 65 --- --- --- ---
2015-11-30 07:27:34 5.8 65 --- --- --- ---
2015-11-30 06:57:34 5.8 65 --- --- --- ---
2015-11-30 06:27:34 5.8 65 --- --- --- ---
2015-11-30 05:57:34 5.8 65 --- --- --- ---
2015-11-30 05:27:34 5.9 65 --- --- --- ---
2015-11-30 04:57:34 6.0 65 --- --- --- ---
2015-11-30 04:27:34 6.1 65 --- --- --- ---
2015-11-30 03:57:34 6.2 65 --- --- --- ---
2015-11-30 03:27:34 6.4 65 --- --- --- ---
2015-11-30 02:57:34 6.6 65 --- --- --- ---
2015-11-30 02:27:34 6.9 65 --- --- --- ---
2015-11-30 01:57:34 7.2 66 --- --- --- ---
2015-11-30 01:27:34 7.5 63 --- --- --- ---
2015-11-30 00:57:34 7.6 63 --- --- --- ---
2015-11-30 00:27:34 7.9 64 --- --- --- ---
2015-11-29 23:57:34 8.2 64 --- --- --- ---
2015-11-29 23:27:34 8.5 64 --- --- --- ---
2015-11-29 22:57:34 8.7 64 --- --- --- ---
2015-11-29 22:27:34 9.0 64 --- --- --- ---
2015-11-29 21:57:34 9.3 64 --- --- --- ---
2015-11-29 21:27:34 9.6 64 --- --- --- ---
2015-11-29 20:57:34 9.9 65 --- --- --- ---
2015-11-29 20:27:34 10.2 65 --- --- --- ---
2015-11-29 19:57:34 10.5 65 --- --- --- ---
2015-11-29 19:27:34 10.8 65 --- --- --- ---
2015-11-29 18:57:34 11.2 65 --- --- --- ---
2015-11-29 18:27:34 11.5 65 --- --- --- ---
2015-11-29 17:57:34 11.9 65 --- --- --- ---
2015-11-29 17:27:34 12.2 66 --- --- --- ---
2015-11-29 16:57:34 12.5 63 --- --- --- ---
2015-11-29 16:27:34 12.8 63 --- --- --- ---
2015-11-29 15:57:34 13.1 63 --- --- --- ---
2015-11-29 15:27:34 13.4 63 --- --- --- ---
2015-11-29 14:57:34 13.8 62 --- --- --- ---
2015-11-29 14:27:34 14.0 61 --- --- --- ---
2015-11-29 13:57:34 14.9 60 --- --- --- ---
2015-11-29 13:27:34 17.0 57 --- --- --- ---
2015-11-29 12:57:34 16.2 57 --- --- --- ---
2015-11-29 12:27:34 19.3 49 --- --- --- ---
2015-11-29 11:57:34 19.4 49 --- --- --- ---
2015-11-29 11:27:34 19.8 52 --- --- --- ---
2015-11-29 10:57:34 9.7 67 --- --- --- ---
2015-11-29 10:27:34 7.8 67 --- --- --- ---
2015-11-29 09:57:34 7.3 68 --- --- --- ---
2015-11-29 09:27:34 7.1 68 --- --- --- ---
2015-11-29 08:57:34 7.0 68 --- --- --- ---
2015-11-29 08:27:34 7.0 68 --- --- --- ---
2015-11-29 07:57:34 7.0 68 --- --- --- ---
2015-11-29 07:27:34 7.0 68 --- --- --- ---
2015-11-29 06:57:34 7.0 67 --- --- --- ---
2015-11-29 06:27:34 7.0 67 --- --- --- ---
2015-11-29 05:57:34 7.0 67 --- --- --- ---
2015-11-29 05:27:34 7.0 67 --- --- --- ---
2015-11-29 04:57:34 7.0 67 --- --- --- ---
2015-11-29 04:27:34 7.2 67 8.0 73 1.3 SW
2015-11-29 03:57:34 7.1 67 --- --- --- ---
2015-11-29 03:27:34 7.2 67 --- --- --- ---
2015-11-29 02:57:34 7.2 67 --- --- --- ---
2015-11-29 02:27:34 7.2 67 --- --- --- ---
2015-11-29 01:57:34 7.3 67 --- --- --- ---
2015-11-29 01:27:34 7.4 67 --- --- --- ---
2015-11-29 00:57:34 7.4 67 --- --- --- ---
2015-11-29 00:27:34 7.5 65 --- --- --- ---
2015-11-28 23:57:34 7.5 65 --- --- --- ---
2015-11-28 23:27:34 7.5 65 --- --- --- ---
2015-11-28 22:57:34 7.5 65 --- --- --- ---
2015-11-28 22:27:34 7.5 65 --- --- --- ---
2015-11-28 21:57:34 7.5 65 8.2 76 2.2 SW
2015-11-28 21:27:34 7.5 65 8.3 76 3.5 SW
2015-11-28 20:57:34 7.4 68 8.5 74 3.5 SW
2015-11-28 20:27:34 7.4 68 --- --- --- ---
2015-11-28 19:57:34 7.4 68 --- --- --- ---
2015-11-28 19:27:34 7.4 67 --- --- --- ---
2015-11-28 18:57:34 7.3 67 8.6 77 1.8 SW
2015-11-28 18:27:34 7.2 67 8.5 78 1.8 SW
2015-11-28 17:57:34 7.2 67 --- --- --- ---
2015-11-28 17:27:34 7.1 67 --- --- --- ---
2015-11-28 16:57:34 7.1 67 --- --- --- ---
2015-11-28 16:27:34 7.0 67 --- --- --- ---
2015-11-28 15:57:34 7.0 67 --- --- --- ---
2015-11-28 15:27:34 6.9 66 --- --- --- ---
2015-11-28 14:57:34 6.9 66 --- --- --- ---
2015-11-28 14:27:34 6.8 65 --- --- --- ---
2015-11-28 13:57:34 6.8 64 --- --- --- ---
2015-11-28 13:27:34 6.7 63 --- --- --- ---
2015-11-28 12:57:34 6.7 63 --- --- --- ---
2015-11-28 12:27:34 6.7 63 --- --- --- ---
2015-11-28 11:57:34 6.8 62 --- --- --- ---
2015-11-28 11:27:34 7.0 62 --- --- --- ---
2015-11-28 10:57:34 7.2 61 --- --- --- ---
2015-11-28 10:27:34 7.4 61 --- --- --- ---
2015-11-28 09:57:34 7.0 61 --- --- --- ---
2015-11-28 09:27:34 6.4 62 --- --- --- ---
2015-11-28 08:57:34 4.5 61 --- --- --- ---
2015-11-28 08:27:34 4.3 61 --- --- --- ---
2015-11-28 07:57:34 4.3 61 --- --- --- ---
2015-11-28 07:27:34 4.6 61 --- --- --- ---
2015-11-28 06:57:34 4.7 61 --- --- --- ---
2015-11-28 06:27:34 4.9 62 --- --- --- ---
2015-11-28 05:57:34 5.0 62 --- --- --- ---
2015-11-28 05:27:34 5.2 62 --- --- --- ---
2015-11-28 04:57:34 5.4 62 --- --- --- ---
2015-11-28 04:27:34 5.7 62 --- --- --- ---
2015-11-28 03:57:34 5.9 62 --- --- --- ---
2015-11-28 03:27:34 6.2 62 --- --- --- ---
2015-11-28 02:57:34 6.6 62 --- --- --- ---
2015-11-28 02:27:34 6.9 63 --- --- --- ---
2015-11-28 01:57:34 7.4 63 --- --- --- ---
2015-11-28 01:27:34 7.8 61 --- --- --- ---
2015-11-28 00:57:34 8.2 61 --- --- --- ---
2015-11-28 00:27:34 8.5 61 --- --- --- ---
2015-11-27 23:57:34 8.9 61 --- --- --- ---
2015-11-27 23:27:34 9.4 61 --- --- --- ---
2015-11-27 22:57:34 10.0 61 5.0 82 2.2 W
2015-11-27 22:27:34 10.4 61 --- --- --- ---
2015-11-27 21:57:34 11.3 62 4.6 84 4.0 NW
2015-11-27 21:27:34 11.9 63 --- --- --- ---
2015-11-27 20:57:34 12.6 62 --- --- --- ---
2015-11-27 20:27:34 13.0 62 --- --- --- ---
2015-11-27 19:57:34 13.5 62 8.3 86 3.1 NW
2015-11-27 19:27:34 14.0 62 9.0 90 3.1 W
2015-11-27 18:57:34 14.4 62 --- --- --- ---
2015-11-27 18:27:34 14.9 62 --- --- --- ---
2015-11-27 17:57:34 15.3 61 11.2 78 0.9 SW
2015-11-27 17:27:34 15.9 61 --- --- --- ---
2015-11-27 16:57:34 16.5 61 11.2 78 0.9 SW
2015-11-27 16:27:34 17.3 61 --- --- --- ---
2015-11-27 15:57:34 18.1 59 --- --- --- ---
2015-11-27 15:27:34 19.0 59 12.0 74 1.3 SW
2015-11-27 14:57:34 20.3 59 12.2 75 1.3 SW
2015-11-27 14:27:34 21.3 59 --- --- --- ---
2015-11-27 13:57:34 22.4 60 12.5 69 1.3 SW
2015-11-27 13:27:34 24.0 61 --- --- --- ---
2015-11-27 12:57:34 23.2 63 --- --- --- ---
2015-11-27 12:27:34 21.6 66 --- --- --- ---
2015-11-27 11:57:34 19.0 68 --- --- --- ---
2015-11-27 11:27:34 16.9 70 12.4 86 0.4 SE
2015-11-27 10:57:34 15.8 71 --- --- --- ---
2015-11-27 10:27:34 14.2 70 --- --- --- ---
2015-11-27 09:57:34 11.0 68 11.9 98 0.4 SW
2015-11-27 09:27:34 10.7 67 --- --- --- ---
2015-11-27 08:57:34 10.7 65 10.9 98 0.0 W
2015-11-27 08:27:34 10.7 65 10.7 98 0.0 SW
2015-11-27 07:57:34 10.7 65 10.5 98 0.0 SW
2015-11-27 07:27:34 10.6 64 10.7 98 0.0 SW
2015-11-27 06:57:34 10.5 64 10.5 98 0.0 SW
2015-11-27 06:27:34 10.5 64 10.4 97 0.0 SW
2015-11-27 05:57:34 10.4 64 10.4 96 0.0 SW
2015-11-27 05:27:34 10.5 63 10.5 94 0.0 SW
2015-11-27 04:57:34 10.4 63 10.7 95 0.9 SW
2015-11-27 04:27:34 10.4 63 10.2 93 0.4 SW
2015-11-27 03:57:34 10.4 63 10.5 94 0.9 SW
2015-11-27 03:27:34 10.4 62 10.5 96 0.9 SW
2015-11-27 02:57:34 10.3 62 10.5 98 0.4 SW
2015-11-27 02:27:34 10.4 62 9.9 98 0.4 W
2015-11-27 01:57:34 10.5 62 9.0 98 0.0 SW
2015-11-27 01:27:34 10.6 62 9.0 98 0.0 SW
2015-11-27 00:57:34 10.8 62 9.3 98 0.0 SW
2015-11-27 00:27:34 10.9 62 9.0 98 0.0 SW
2015-11-26 23:57:34 11.1 62 9.3 99 0.4 SW
2015-11-26 23:27:34 11.3 62 9.1 98 0.9 SW
2015-11-26 22:57:34 11.6 61 8.8 97 0.4 SW
2015-11-26 22:27:34 11.8 61 8.6 95 0.4 SE
2015-11-26 21:57:34 12.2 61 8.6 94 0.0 SW
2015-11-26 21:27:34 12.5 58 9.0 94 0.0 SW
2015-11-26 20:57:34 12.8 58 9.0 92 0.0 SW
2015-11-26 20:27:34 13.2 58 8.8 89 0.0 SW
2015-11-26 19:57:34 13.6 58 9.3 88 0.0 SW
2015-11-26 19:27:34 14.1 58 9.8 87 0.0 W
2015-11-26 18:57:34 14.5 58 10.0 86 0.0 W
2015-11-26 18:27:34 14.9 58 10.0 86 0.0 W
2015-11-26 17:57:34 15.5 58 9.8 86 0.0 SW
2015-11-26 17:27:34 16.1 58 9.8 85 0.4 SW
2015-11-26 16:57:34 16.8 57 9.5 85 0.4 SW
2015-11-26 16:27:34 17.7 55 8.8 82 0.0 W
2015-11-26 15:57:34 18.6 55 9.5 78 0.0 W
2015-11-26 15:27:34 19.6 54 10.0 78 0.0 W
2015-11-26 14:57:34 20.4 53 10.1 77 0.0 SW
2015-11-26 14:27:34 21.2 50 9.9 78 0.4 W
2015-11-26 13:57:34 24.0 50 --- --- --- ---
2015-11-26 13:27:34 26.1 49 --- --- --- ---
2015-11-26 12:57:34 28.0 42 10.1 75 1.3 NW
2015-11-26 12:27:34 37.2 32 10.2 74 1.8 W
2015-11-26 11:57:34 32.6 38 9.9 76 1.8 SW
2015-11-26 11:27:34 36.1 34 --- --- --- ---
2015-11-26 10:57:34 30.1 42 --- --- --- ---
2015-11-26 10:27:34 30.4 49 --- --- --- ---
2015-11-26 09:57:34 18.7 63 --- --- --- ---
2015-11-26 09:27:34 14.3 62 7.0 89 0.4 W
2015-11-26 08:57:34 13.7 58 6.8 89 0.4 W
2015-11-26 08:27:34 13.6 58 7.0 89 0.4 W
2015-11-26 07:57:34 13.6 58 7.0 91 0.4 W
2015-11-26 07:27:34 13.7 58 6.8 93 0.4 W
2015-11-26 06:57:34 13.6 58 6.1 94 0.9 W
2015-11-26 06:27:34 13.6 58 6.1 93 0.4 W
2015-11-26 05:57:34 13.6 58 5.8 92 0.9 W
2015-11-26 05:27:34 13.6 58 5.9 91 0.9 W
2015-11-26 04:57:34 13.7 58 5.9 89 0.9 W
2015-11-26 04:27:34 13.7 58 6.1 88 0.9 W
2015-11-26 03:57:34 13.7 58 6.1 87 1.3 W
2015-11-26 03:27:34 13.7 58 6.0 87 0.9 W
2015-11-26 02:57:34 13.7 58 5.4 86 0.9 W
2015-11-26 02:27:34 13.8 58 5.3 86 1.3 W
2015-11-26 01:57:34 13.8 58 5.6 88 0.4 W
2015-11-26 01:27:34 13.7 58 5.0 89 0.9 W
2015-11-26 00:57:34 13.7 58 4.6 88 0.0 ---
2015-11-26 00:27:34 13.6 58 4.2 85 0.0 NW
2015-11-25 23:57:34 13.6 58 5.0 86 0.4 W
2015-11-25 23:27:34 13.6 58 4.3 84 0.9 W
2015-11-25 22:57:34 13.6 57 4.9 83 0.4 NW
2015-11-25 22:27:34 13.6 57 5.3 82 0.9 NW
2015-11-25 21:57:34 13.5 57 5.8 82 1.3 NW
2015-11-25 21:27:34 13.5 57 6.1 79 1.3 W
2015-11-25 20:57:34 13.5 57 6.1 78 2.2 NW
2015-11-25 20:27:34 13.6 57 6.1 75 0.9 W
2015-11-25 19:57:34 13.7 56 5.9 72 0.9 W
2015-11-25 19:27:34 13.8 56 6.0 71 0.4 NW
2015-11-25 18:57:34 13.9 56 6.0 71 0.9 NW
2015-11-25 18:27:34 14.1 56 6.1 69 3.1 NW
2015-11-25 17:57:34 14.3 56 5.9 71 2.2 NW
2015-11-25 17:27:34 14.6 55 6.1 70 1.3 NW
2015-11-25 16:57:34 15.3 55 6.1 73 2.2 NW
2015-11-25 16:27:34 16.4 54 6.3 72 1.3 NW
2015-11-25 15:57:34 17.6 51 7.4 69 1.8 NW
2015-11-25 15:27:34 19.0 51 8.5 63 3.5 NW
2015-11-25 14:57:34 20.2 50 8.6 66 2.6 NW
2015-11-25 14:27:34 21.7 47 8.8 66 2.2 NW
2015-11-25 13:57:34 25.4 40 9.0 65 4.0 NW
2015-11-25 13:27:34 36.5 29 9.0 64 3.5 NW
2015-11-25 12:57:34 27.4 40 9.0 65 4.0 NW
2015-11-25 12:27:34 34.5 33 8.8 66 2.6 NW
2015-11-25 11:57:34 34.2 31 8.6 69 4.4 NW
2015-11-25 11:27:34 28.8 44 8.3 69 5.7 NW
2015-11-25 10:57:34 25.9 51 7.8 71 4.4 NW
2015-11-25 10:27:34 13.6 66 7.5 72 4.4 NW
2015-11-25 09:57:34 10.9 68 7.4 76 3.5 W
2015-11-25 09:27:34 7.4 64 6.8 75 2.2 NW
2015-11-25 08:57:34 6.1 64 6.3 77 1.3 NW
2015-11-25 08:27:34 5.6 64 5.9 78 3.1 W
2015-11-25 07:57:34 5.7 64 5.6 77 1.3 W
2015-11-25 07:27:34 5.7 64 5.8 78 1.3 NW
2015-11-25 06:57:34 5.9 64 5.9 79 2.6 W
2015-11-25 06:27:34 6.0 64 5.5 80 2.2 W
2015-11-25 05:57:34 6.1 64 5.6 82 2.6 W
2015-11-25 05:27:34 6.1 64 5.8 82 3.1 W
2015-11-25 04:57:34 6.3 64 5.9 82 3.1 W
2015-11-25 04:27:34 6.4 64 5.8 83 3.1 W
2015-11-25 03:57:34 6.5 64 5.8 83 3.5 W
2015-11-25 03:27:34 6.7 64 5.8 83 2.2 W
2015-11-25 02:57:34 7.0 64 5.5 83 2.2 SW
2015-11-25 02:27:34 7.1 64 5.5 84 2.6 W
2015-11-25 01:57:34 7.3 64 5.6 83 3.5 NW
2015-11-25 01:27:34 7.6 61 5.8 83 3.1 W
2015-11-25 00:57:34 7.8 61 5.9 81 3.1 W
2015-11-25 00:27:34 8.1 62 6.1 81 3.5 W
2015-11-24 23:57:34 8.4 62 6.0 81 3.5 W
2015-11-24 23:27:34 8.7 62 6.3 80 4.8 SW
2015-11-24 22:57:34 9.1 62 6.3 81 4.4 SW
2015-11-24 22:27:34 9.5 62 6.3 80 3.5 W
2015-11-24 21:57:34 9.9 62 6.3 80 4.4 W
2015-11-24 21:27:34 10.4 62 6.3 82 4.4 W
2015-11-24 20:57:34 10.9 62 6.3 81 2.2 SW
2015-11-24 20:27:34 11.4 62 6.3 83 3.1 ---
2015-11-24 19:57:34 12.1 62 6.3 84 2.6 W
2015-11-24 19:27:34 12.7 60 6.3 84 2.6 SW
2015-11-24 18:57:34 13.4 60 6.8 84 2.2 SW
2015-11-24 18:27:34 14.0 60 7.2 84 2.6 SW
2015-11-24 17:57:34 14.9 60 7.7 79 3.1 SW
2015-11-24 17:27:34 15.8 60 7.7 80 3.5 SW
2015-11-24 16:57:34 17.0 60 7.4 84 1.8 SW
2015-11-24 16:27:34 18.2 57 7.8 80 2.2 W
2015-11-24 15:57:34 19.6 57 8.0 80 1.8 SW
2015-11-24 15:27:34 20.9 60 8.3 79 2.6 NW
2015-11-24 14:57:34 21.4 59 8.3 79 1.8 SW
2015-11-24 14:27:34 21.8 58 8.6 78 1.3 SW
2015-11-24 13:57:34 23.1 54 8.5 78 0.9 SW
2015-11-24 13:27:34 24.0 62 8.5 78 0.4 SW
2015-11-24 12:57:34 22.7 63 8.2 78 0.9 SW
2015-11-24 12:27:34 21.1 66 8.3 78 3.1 W
2015-11-24 11:57:34 19.6 66 8.2 80 2.2 W
2015-11-24 11:27:34 17.8 67 8.0 83 1.3 W
2015-11-24 10:57:34 15.6 70 7.4 86 2.2 W
2015-11-24 10:27:34 13.1 70 7.4 83 2.2 SW
2015-11-24 09:57:34 10.2 71 7.7 76 1.3 SW
2015-11-24 09:27:34 7.4 69 7.8 75 1.8 SW
2015-11-24 08:57:34 6.9 67 7.8 75 2.6 SW
2015-11-24 08:27:34 6.9 67 7.8 77 2.2 W
2015-11-24 07:57:34 6.9 67 7.5 84 3.1 SW
2015-11-24 07:27:34 6.9 67 7.4 93 0.4 W
2015-11-24 06:57:34 6.9 67 7.5 91 0.9 W
2015-11-24 06:27:34 6.8 67 7.8 91 2.6 SW
2015-11-24 05:57:34 6.7 67 8.0 92 1.8 SW
2015-11-24 05:27:34 6.6 67 7.8 93 1.3 SW
2015-11-24 04:57:34 6.6 67 7.8 93 1.8 W
2015-11-24 04:27:34 6.5 67 7.5 94 0.9 SW
2015-11-24 03:57:34 6.4 67 7.2 99 0.9 SW
2015-11-24 03:27:34 6.4 67 6.8 99 0.9 SW
2015-11-24 02:57:34 6.3 67 6.3 99 0.9 S
2015-11-24 02:27:34 6.3 67 6.1 99 0.4 SW
2015-11-24 01:57:34 6.3 67 6.0 99 0.4 SW
2015-11-24 01:27:34 6.4 66 5.8 99 0.9 SW
2015-11-24 00:57:34 6.4 66 5.5 98 0.9 SE
2015-11-24 00:27:34 6.5 66 5.4 96 0.9 SE
2015-11-23 23:57:34 6.6 65 5.3 94 0.9 SW
2015-11-23 23:27:34 6.7 65 5.0 91 0.9 SW
2015-11-23 22:57:34 6.9 64 4.9 89 0.9 SW
2015-11-23 22:27:34 7.2 64 4.7 88 0.4 SW
2015-11-23 21:57:34 7.4 64 4.6 87 0.4 S
2015-11-23 21:27:34 7.7 61 4.2 86 0.0 SW
2015-11-23 20:57:34 8.1 61 4.8 85 0.4 S
2015-11-23 20:27:34 8.5 61 4.2 83 0.4 SW
2015-11-23 19:57:34 9.0 61 4.5 80 0.4 SW
2015-11-23 19:27:34 9.5 61 5.1 73 0.4 SW
2015-11-23 18:57:34 10.0 61 5.3 72 0.4 SW
2015-11-23 18:27:34 10.6 62 5.0 73 0.4 SW
2015-11-23 17:57:34 11.5 62 4.7 73 0.0 SW
2015-11-23 17:27:34 12.3 62 4.9 72 0.0 SW
2015-11-23 16:57:34 13.5 60 4.9 72 0.4 SW
2015-11-23 16:27:34 14.8 60 5.1 71 0.4 SW
2015-11-23 15:57:34 15.9 61 5.3 70 0.4 SW
2015-11-23 15:27:34 16.0 66 5.5 72 0.0 SW
2015-11-23 14:57:34 14.1 66 5.6 73 0.0 W
2015-11-23 14:27:34 11.7 65 5.8 72 0.0 SW
2015-11-23 13:57:34 10.1 58 5.9 71 0.4 SW
2015-11-23 13:27:34 13.8 52 5.8 72 0.4 W
2015-11-23 12:57:34 8.0 59 5.4 74 0.4 W
2015-11-23 12:27:34 8.5 58 5.3 73 0.4 SW
2015-11-23 11:57:34 6.6 61 5.0 74 0.4 NW
2015-11-23 11:27:34 6.1 64 4.6 76 0.4 SW
2015-11-23 10:57:34 4.0 64 4.7 77 0.4 W
2015-11-23 10:27:34 3.4 64 4.6 78 1.3 ---
2015-11-23 09:57:34 3.0 63 4.0 79 0.9 W
2015-11-23 09:27:34 2.5 63 3.0 81 1.3 SW
2015-11-23 08:57:34 2.3 20 3.0 85 0.9 W
2015-11-23 08:27:34 2.2 20 2.2 20 0.0 W
2015-11-23 07:57:34 2.1 20 2.2 20 0.0 W
2015-11-23 07:27:34 2.1 20 2.2 20 0.0 W
2015-11-23 06:57:34 2.1 20 2.6 84 0.0 W
2015-11-23 06:27:34 2.1 20 2.6 86 0.0 W
2015-11-23 05:57:34 2.1 20 2.2 20 0.0 ---
2015-11-23 05:27:34 2.1 20 2.0 20 0.0 ---
2015-11-23 04:57:34 2.1 20 2.2 20 0.0 W
2015-11-23 04:27:34 2.2 20 2.6 84 0.4 W
2015-11-23 03:57:34 2.2 20 2.6 85 0.4 W
2015-11-23 03:27:34 2.3 20 2.1 20 0.0 ---
2015-11-23 02:57:34 2.5 63 2.1 20 0.4 ---
2015-11-23 02:27:34 2.5 63 1.9 20 0.0 ---
2015-11-23 01:57:34 2.6 63 1.7 20 0.4 NW
2015-11-23 01:27:34 2.8 63 1.7 20 0.4 NW
2015-11-23 00:57:34 3.0 63 1.6 20 0.4 NW
2015-11-23 00:27:34 3.1 64 1.9 20 0.0 ---
2015-11-22 23:57:34 3.3 64 2.2 20 0.9 ---
2015-11-22 23:27:34 3.5 64 2.2 20 1.3 ---
2015-11-22 22:57:34 3.6 64 2.0 20 0.0 ---
2015-11-22 22:27:34 3.8 64 2.2 20 0.4 ---
2015-11-22 21:57:34 4.0 64 2.7 85 0.9 ---
2015-11-22 21:27:34 4.2 64 3.0 88 0.0 ---
2015-11-22 20:57:34 4.4 64 2.6 86 0.4 ---
2015-11-22 20:27:34 4.6 65 2.7 85 1.3 ---
2015-11-22 19:57:34 4.8 65 2.9 84 1.8 NW
2015-11-22 19:27:34 5.0 65 3.4 80 1.3 NW
2015-11-22 18:57:34 5.3 65 3.7 83 1.3 NW
2015-11-22 18:27:34 5.5 65 4.4 85 3.1 ---
2015-11-22 17:57:34 5.8 65 3.4 87 2.2 NW
2015-11-22 17:27:34 6.1 65 3.7 86 2.2 NW
2015-11-22 16:57:34 6.5 65 3.8 86 2.2 NW
2015-11-22 16:27:34 6.8 65 3.9 85 1.8 NW
2015-11-22 15:57:34 7.1 65 4.7 86 1.8 ---
2015-11-22 15:27:34 7.4 64 5.0 86 2.2 NW
2015-11-22 14:57:34 7.6 61 5.5 83 2.6 NW
2015-11-22 14:27:34 7.8 60 5.4 83 2.6 NW
2015-11-22 13:57:34 8.3 57 5.5 83 2.2 NW
2015-11-22 13:27:34 11.5 53 5.5 80 2.2 NW
2015-11-22 12:57:34 8.6 57 5.3 83 3.1 NW
2015-11-22 12:27:34 6.4 62 4.6 81 2.2 NW
2015-11-22 11:57:34 4.6 60 4.3 80 2.6 NW
2015-11-22 11:27:34 5.9 56 4.2 77 3.1 ---
2015-11-22 10:57:34 7.8 61 4.0 79 1.3 NW
2015-11-22 10:27:34 1.9 20 3.2 77 1.3 NW
2015-11-22 09:57:34 1.4 20 2.9 76 1.3 NW
2015-11-22 09:27:34 0.8 20 1.9 20 0.9 ---
2015-11-22 08:57:34 0.5 20 1.7 20 0.9 W
2015-11-22 08:27:34 0.4 20 1.4 20 1.8 NW
2015-11-22 07:57:34 0.4 20 1.2 20 0.9 NW
2015-11-22 07:27:34 0.4 20 1.1 20 0.9 W
2015-11-22 06:57:34 0.3 20 1.1 20 1.3 W
2015-11-22 06:27:34 0.3 20 0.9 20 1.3 W
2015-11-22 05:57:34 0.3 20 1.1 20 1.8 W
2015-11-22 05:27:34 0.4 20 0.5 20 0.4 W
2015-11-22 04:57:34 0.4 20 0.2 20 0.0 W
2015-11-22 04:27:34 0.5 20 -0.1 20 0.0 W
2015-11-22 03:57:34 0.6 20 0.4 20 0.4 W
2015-11-22 03:27:34 0.7 20 0.1 20 1.3 W
2015-11-22 02:57:34 0.9 20 0.1 20 1.3 W
2015-11-22 02:27:34 1.1 20 0.1 20 1.3 NW
2015-11-22 01:57:34 1.2 20 0.1 20 1.8 NW
2015-11-22 01:27:34 1.4 20 0.2 20 0.9 NW
2015-11-22 00:57:34 1.6 20 0.2 20 1.3 W
2015-11-22 00:27:34 1.7 20 0.6 20 1.8 ---
2015-11-21 23:57:34 1.9 20 0.9 20 1.3 NW
2015-11-21 23:27:34 2.0 20 1.4 20 1.8 W
2015-11-21 22:57:34 2.2 20 1.5 20 1.8 NW
2015-11-21 22:27:34 2.4 20 1.7 20 3.1 NW
2015-11-21 21:57:34 2.6 62 1.5 20 2.6 NW
2015-11-21 21:27:34 2.8 62 1.5 20 2.2 ---
2015-11-21 20:57:34 3.0 62 1.6 20 2.2 W
2015-11-21 20:27:34 3.3 62 1.5 20 2.6 NW
2015-11-21 19:57:34 3.6 62 1.7 20 4.4 NW
2015-11-21 19:27:34 3.9 62 1.5 20 3.5 NW
2015-11-21 18:57:34 4.3 62 1.6 20 4.0 NW
2015-11-21 18:27:34 4.7 63 1.9 20 4.8 NW
2015-11-21 17:57:34 5.1 63 2.2 20 5.3 ---
2015-11-21 17:27:34 5.5 63 2.6 72 4.8 ---
2015-11-21 16:57:34 5.9 63 3.0 79 5.7 ---
2015-11-21 16:27:34 6.3 63 3.1 82 5.7 ---
2015-11-21 15:57:34 6.8 63 3.2 83 6.6 NW
2015-11-21 15:27:34 7.3 63 3.3 87 3.5 ---
2015-11-21 14:57:34 8.0 60 3.2 83 4.0 ---
2015-11-21 14:27:34 8.9 59 4.2 80 6.1 NW
2015-11-21 13:57:34 9.9 57 4.3 80 6.6 NW
2015-11-21 13:27:34 14.3 53 4.3 82 6.6 NW
2015-11-21 12:57:34 9.5 59 4.3 80 5.7 NW
2015-11-21 12:27:34 13.3 52 4.7 76 8.3 NW
2015-11-21 11:57:34 11.7 59 5.1 74 4.8 NW
2015-11-21 11:27:34 8.0 64 5.1 74 7.9 NW
2015-11-21 10:57:34 9.1 63 6.0 70 7.0 NW
2015-11-21 10:27:34 6.6 69 5.9 77 6.6 NW
2015-11-21 09:57:34 6.2 70 6.3 67 7.0 N
2015-11-21 09:27:34 5.9 69 7.0 65 8.3 NW
2015-11-21 08:57:34 5.7 69 7.0 68 8.3 N
2015-11-21 08:27:34 5.5 68 6.3 74 9.2 NE
2015-11-21 07:57:34 5.3 67 7.0 76 11.0 N
2015-11-21 07:27:34 5.0 66 6.3 78 10.1 NW
2015-11-21 06:57:34 4.8 65 6.8 79 11.4 N
2015-11-21 06:27:34 4.4 64 6.8 79 8.8 NE
2015-11-21 05:57:34 4.2 62 6.3 90 6.6 N
2015-11-21 05:27:34 4.2 62 4.6 87 3.1 ---
2015-11-21 04:57:34 4.3 61 3.9 82 4.4 NW
2015-11-21 04:27:34 4.4 61 3.7 78 4.4 W
2015-11-21 03:57:34 4.5 61 3.4 68 5.3 NW
2015-11-21 03:27:34 4.7 61 3.3 66 4.8 ---
2015-11-21 02:57:34 5.0 61 3.3 66 3.5 ---
2015-11-21 02:27:34 5.3 61 3.5 66 3.5 W
2015-11-21 01:57:34 5.5 61 3.7 73 5.3 NW
2015-11-21 01:27:34 5.7 61 3.7 80 4.0 ---
2015-11-21 00:57:34 5.9 61 3.5 81 3.5 W
2015-11-21 00:27:34 6.2 61 3.9 81 3.5 W
2015-11-20 23:57:34 6.4 61 3.9 80 4.4 W
2015-11-20 23:27:34 6.7 61 3.9 79 4.0 W
2015-11-20 22:57:34 7.0 61 4.4 76 4.4 W
2015-11-20 22:27:34 7.3 62 4.6 76 4.4 NW
2015-11-20 21:57:34 7.6 59 5.0 74 4.8 W
2015-11-20 21:27:34 8.0 59 5.4 72 4.4 W
2015-11-20 20:57:34 8.4 59 5.0 73 6.1 SW
2015-11-20 20:27:34 8.6 60 5.0 75 4.4 W
2015-11-20 19:57:34 9.1 60 5.0 75 4.0 W
2015-11-20 19:27:34 9.5 60 5.5 76 5.7 W
2015-11-20 18:57:34 10.0 60 5.9 78 5.7 W
2015-11-20 18:27:34 10.5 60 6.1 79 4.8 W
2015-11-20 17:57:34 11.0 60 6.3 79 4.4 W
2015-11-20 17:27:34 11.5 60 6.5 80 4.4 W
2015-11-20 16:57:34 12.0 60 6.5 80 4.0 W
2015-11-20 16:27:34 12.6 58 6.3 75 1.3 W
2015-11-20 15:57:34 13.2 57 6.5 74 2.2 W
2015-11-20 15:27:34 13.9 57 6.7 74 3.5 SW
2015-11-20 14:57:34 14.4 56 6.5 77 3.5 W
2015-11-20 14:27:34 14.9 56 6.5 79 4.0 SW
2015-11-20 13:57:34 16.1 54 6.8 74 4.4 SW
2015-11-20 13:27:34 18.9 48 7.8 64 4.4 ---
2015-11-20 12:57:34 21.0 45 8.2 63 3.5 W
2015-11-20 12:27:34 27.7 35 8.1 65 4.8 W
2015-11-20 11:57:34 22.3 42 7.7 66 4.0 SW
2015-11-20 11:27:34 14.9 52 7.5 68 2.2 SW
2015-11-20 10:57:34 16.9 46 7.1 72 2.6 SW
2015-11-20 10:27:34 11.5 60 6.5 74 4.4 SW
2015-11-20 09:57:34 7.4 62 6.0 74 1.8 W
2015-11-20 09:27:34 7.0 62 5.8 74 2.6 SW
2015-11-20 08:57:34 7.0 62 5.9 75 2.2 W
2015-11-20 08:27:34 7.0 62 5.5 75 1.3 SW
2015-11-20 07:57:34 7.2 62 5.4 75 0.9 W
2015-11-20 07:27:34 7.3 62 5.5 75 0.9 SW
2015-11-20 06:57:34 7.5 60 5.6 75 1.8 SW
2015-11-20 06:27:34 7.7 60 5.5 75 2.2 SW
2015-11-20 05:57:34 7.9 60 5.4 74 2.2 SW
2015-11-20 05:27:34 8.2 60 5.5 74 2.6 SW
2015-11-20 04:57:34 8.4 60 5.8 75 2.6 W
2015-11-20 04:27:34 8.7 61 5.8 75 1.8 SW
2015-11-20 03:57:34 9.0 61 6.0 74 2.2 SW
2015-11-20 03:27:34 9.2 61 6.1 73 0.9 W
2015-11-20 02:57:34 9.5 61 6.3 74 0.4 SW
2015-11-20 02:27:34 9.9 61 6.5 75 2.6 NW
2015-11-20 01:57:34 10.2 62 6.1 79 1.3 SW
2015-11-20 01:27:34 10.6 62 6.5 75 0.9 SW
2015-11-20 00:57:34 11.0 62 6.7 74 1.8 SW
2015-11-20 00:27:34 11.4 62 7.2 74 1.3 SW
2015-11-19 23:57:34 11.8 62 7.5 71 1.3 SW
2015-11-19 23:27:34 12.3 62 7.8 72 1.8 W
2015-11-19 22:57:34 12.7 60 7.5 72 1.3 SW
2015-11-19 22:27:34 13.2 61 7.7 71 0.9 W
2015-11-19 21:57:34 13.9 61 8.1 69 2.2 SW
2015-11-19 21:27:34 14.5 61 8.5 73 2.2 W
2015-11-19 20:57:34 15.2 61 8.6 74 1.8 W
2015-11-19 20:27:34 16.0 61 8.3 73 2.2 SW
2015-11-19 19:57:34 17.0 62 8.6 77 1.3 W
2015-11-19 19:27:34 18.0 59 8.5 78 4.0 SW
2015-11-19 18:57:34 19.3 59 7.1 83 0.0 W
2015-11-19 18:27:34 20.8 59 8.1 77 0.0 SW
2015-11-19 17:57:34 22.3 59 8.5 76 1.3 SW
2015-11-19 17:27:34 23.0 60 8.5 74 0.4 W
2015-11-19 16:57:34 22.2 63 9.0 73 0.9 W
2015-11-19 16:27:34 20.8 63 9.5 70 1.3 W
2015-11-19 15:57:34 19.0 62 10.0 68 2.2 W
2015-11-19 15:27:34 16.7 60 10.2 67 1.3 W
2015-11-19 14:57:34 17.7 57 10.4 69 0.9 SW
2015-11-19 14:27:34 19.5 63 10.5 71 0.9 W
2015-11-19 13:57:34 20.5 63 10.9 71 0.0 SW
2015-11-19 13:27:34 21.6 64 10.7 72 0.0 NW
2015-11-19 12:57:34 22.3 63 10.7 72 0.4 SW
2015-11-19 12:27:34 22.0 65 10.9 72 0.4 W
2015-11-19 11:57:34 22.7 65 10.7 72 0.9 W
2015-11-19 11:27:34 21.0 67 10.4 71 0.9 SW
2015-11-19 10:57:34 19.6 70 10.2 70 1.3 SW
2015-11-19 10:27:34 16.9 71 10.4 70 2.6 SW
2015-11-19 09:57:34 13.1 70 10.5 71 4.0 SW
2015-11-19 09:27:34 9.6 65 9.7 73 1.8 SW
2015-11-19 08:57:34 9.6 65 9.7 71 2.2 SW
2015-11-19 08:27:34 9.6 65 9.5 70 4.0 W
2015-11-19 07:57:34 9.7 65 9.7 70 1.3 W
2015-11-19 07:27:34 9.8 65 9.8 69 3.1 W
2015-11-19 06:57:34 9.9 65 9.7 69 3.5 ---
2015-11-19 06:27:34 10.0 65 9.8 69 4.0 SW
2015-11-19 05:57:34 10.1 65 10.0 67 3.1 SW
2015-11-19 05:27:34 10.3 65 10.0 68 3.5 W
2015-11-19 04:57:34 10.4 65 9.8 69 3.5 W
2015-11-19 04:27:34 10.6 65 10.3 66 2.6 W
2015-11-19 03:57:34 10.7 65 10.3 66 4.0 W
2015-11-19 03:27:34 10.8 66 10.5 68 4.4 W
2015-11-19 02:57:34 11.0 66 10.4 68 5.7 SW
2015-11-19 02:27:34 11.1 66 10.4 67 6.1 ---
2015-11-19 01:57:34 11.3 66 10.7 65 5.7 W
2015-11-19 01:27:34 11.4 66 10.7 66 5.3 SW
2015-11-19 00:57:34 11.6 66 10.9 66 5.3 W
2015-11-19 00:27:34 11.7 66 11.0 66 3.1 ---
2015-11-18 23:57:34 11.9 66 11.0 68 2.6 SW
2015-11-18 23:27:34 12.1 66 10.7 69 1.3 SW
2015-11-18 22:57:34 12.3 66 10.7 69 1.3 SW
2015-11-18 22:27:34 12.4 66 10.9 69 1.3 SW
2015-11-18 21:57:34 12.7 64 10.9 72 0.9 SW
2015-11-18 21:27:34 12.9 64 11.0 70 0.9 SW
2015-11-18 20:57:34 13.2 64 12.1 65 0.9 SW
2015-11-18 20:27:34 13.6 64 11.4 67 0.9 W
2015-11-18 19:57:34 13.8 64 11.4 68 0.4 SW
2015-11-18 19:27:34 14.1 64 11.9 67 0.9 SW
2015-11-18 18:57:34 14.5 64 12.1 67 0.9 S
2015-11-18 18:27:34 14.9 65 12.2 66 0.9 SW
2015-11-18 17:57:34 15.3 65 12.2 68 1.3 W
2015-11-18 17:27:34 15.7 65 12.4 67 1.3 SW
2015-11-18 16:57:34 16.2 65 12.4 68 0.4 SW
2015-11-18 16:27:34 16.6 65 13.2 67 0.4 SW
2015-11-18 15:57:34 16.7 66 13.8 69 0.9 S
2015-11-18 15:27:34 16.5 66 13.6 74 0.9 ---
2015-11-18 14:57:34 16.5 65 13.4 76 1.3 SW
2015-11-18 14:27:34 16.8 63 13.4 74 0.9 SW
2015-11-18 13:57:34 18.1 55 14.1 65 0.9 SW
2015-11-18 13:27:34 23.5 47 14.1 64 0.9 SW
2015-11-18 12:57:34 22.5 45 13.8 65 0.9 SW
2015-11-18 12:27:34 27.5 44 13.6 67 0.9 SW
2015-11-18 11:57:34 17.2 63 12.0 76 0.4 SW
2015-11-18 11:27:34 16.0 65 11.9 78 0.4 SE
2015-11-18 10:57:34 16.4 65 11.4 79 0.0 W
2015-11-18 10:27:34 15.7 67 11.0 79 0.4 SW
2015-11-18 09:57:34 13.8 68 10.3 83 0.0 NW
2015-11-18 09:27:34 10.8 66 --- --- --- ---
2015-11-18 08:57:34 10.3 65 --- --- --- ---
2015-11-18 08:27:34 10.2 66 --- --- --- ---
2015-11-18 07:57:34 10.2 66 --- --- --- ---
2015-11-18 07:27:34 10.4 66 7.5 75 0.0 ---
2015-11-18 06:57:34 10.4 66 --- --- --- ---
2015-11-18 06:27:34 10.6 66 --- --- --- ---
2015-11-18 05:57:34 10.7 66 --- --- --- ---
2015-11-18 05:27:34 10.9 66 --- --- --- ---
2015-11-18 04:57:34 11.2 66 8.5 70 0.0 ---
2015-11-18 04:27:34 11.5 66 8.8 71 0.0 ---
2015-11-18 03:57:34 11.7 66 --- --- --- ---
2015-11-18 03:27:34 12.0 66 --- --- --- ---
2015-11-18 02:57:34 12.4 66 --- --- --- ---
2015-11-18 02:27:34 12.8 64 --- --- --- ---
2015-11-18 01:57:34 13.0 64 --- --- --- ---
2015-11-18 01:27:34 13.3 65 9.8 67 3.1 ---
2015-11-18 00:57:34 13.5 65 9.9 63 3.1 ---
2015-11-18 00:27:34 13.8 66 11.0 62 3.1 ---
2015-11-17 23:57:34 13.9 66 11.7 69 3.5 ---
2015-11-17 23:27:34 14.1 66 11.6 70 1.8 ---
2015-11-17 22:57:34 14.3 66 11.2 81 3.5 ---
2015-11-17 22:27:34 14.5 66 12.0 71 2.6 ---
2015-11-17 21:57:34 14.7 66 12.4 65 0.4 ---
2015-11-17 21:27:34 14.9 67 12.5 61 0.9 ---
2015-11-17 20:57:34 15.1 67 13.2 60 0.4 ---
2015-11-17 20:27:34 15.2 67 --- --- --- ---
2015-11-17 19:57:34 15.4 67 13.4 66 0.4 ---
2015-11-17 19:27:34 15.6 67 13.9 61 1.3 ---
2015-11-17 18:57:34 15.8 67 14.1 66 0.0 ---
2015-11-17 18:27:34 16.1 68 14.1 67 0.0 ---
2015-11-17 17:57:34 16.3 68 14.3 70 0.0 ---
2015-11-17 17:27:34 16.7 67 14.3 76 1.3 ---
2015-11-17 16:57:34 17.0 67 --- --- --- ---
2015-11-17 16:27:34 17.7 65 13.0 95 0.4 ---
2015-11-17 15:57:34 18.4 65 11.8 97 0.0 ---
2015-11-17 15:27:34 19.1 66 11.2 93 0.0 ---
2015-11-17 14:57:34 18.8 67 11.4 89 0.0 ---
2015-11-17 14:27:34 17.9 67 --- --- --- ---
2015-11-17 13:57:34 16.6 69 --- --- --- ---
2015-11-17 13:27:34 15.7 66 11.0 93 0.0 ---
2015-11-17 12:57:34 15.7 67 10.4 90 0.0 ---
2015-11-17 12:27:34 15.7 67 10.1 86 0.0 ---
2015-11-17 11:57:34 15.6 67 10.0 84 0.0 ---
2015-11-17 11:27:34 15.5 68 9.3 85 0.0 ---
2015-11-17 10:57:34 15.2 69 9.1 84 0.0 ---
2015-11-17 10:27:34 13.4 70 9.0 83 0.0 ---
2015-11-17 09:57:34 11.0 69 9.0 83 0.0 ---
2015-11-17 09:27:34 10.3 65 8.8 85 0.0 ---
2015-11-17 08:57:34 10.3 65 8.2 88 0.0 ---
2015-11-17 08:27:34 10.3 65 8.3 90 0.0 ---
2015-11-17 07:57:34 10.1 65 8.5 95 0.0 ---
2015-11-17 07:27:34 10.1 65 8.5 99 0.0 ---
2015-11-17 06:57:34 10.2 65 8.3 99 0.0 ---
2015-11-17 06:27:34 10.3 65 8.1 99 0.0 ---
2015-11-17 05:57:34 10.4 65 7.8 99 0.0 ---
2015-11-17 05:27:34 10.6 65 7.5 99 0.0 ---
2015-11-17 04:57:34 10.7 65 7.7 98 0.0 ---
2015-11-17 04:27:34 10.8 65 7.8 97 0.0 ---
2015-11-17 03:57:34 10.9 65 8.0 96 0.0 ---
2015-11-17 03:27:34 11.1 65 7.8 95 0.0 ---
2015-11-17 02:57:34 11.2 65 8.5 94 0.0 ---
2015-11-17 02:27:34 11.3 65 8.5 94 0.0 ---
2015-11-17 01:57:34 11.3 65 8.8 94 0.0 ---
2015-11-17 01:27:34 11.5 65 8.8 93 0.0 ---
2015-11-17 00:57:34 11.6 64 8.6 92 0.0 ---
2015-11-17 00:27:34 11.7 64 8.8 92 0.0 ---
2015-11-16 23:57:34 11.9 64 8.6 92 0.0 ---
2015-11-16 23:27:34 12.1 64 8.3 92 0.0 ---
2015-11-16 22:57:34 12.3 64 8.2 89 0.0 ---
2015-11-16 22:27:34 12.5 61 8.2 86 0.0 ---
2015-11-16 21:57:34 12.8 61 8.5 80 0.0 ---
2015-11-16 21:27:34 13.1 61 8.8 75 0.0 ---
2015-11-16 20:57:34 13.5 61 8.8 72 0.0 ---
2015-11-16 20:27:34 13.9 61 8.6 70 0.0 ---
2015-11-16 19:57:34 14.3 61 8.6 69 0.0 ---
2015-11-16 19:27:34 14.8 61 9.0 65 0.0 ---
2015-11-16 18:57:34 15.4 60 8.6 66 0.0 ---
2015-11-16 18:27:34 15.9 60 8.3 64 0.0 ---
2015-11-16 17:57:34 16.7 60 9.0 59 0.0 ---
2015-11-16 17:27:34 17.6 56 8.6 60 0.4 ---
2015-11-16 16:57:34 18.8 54 8.8 60 0.0 ---
2015-11-16 16:27:34 20.7 63 9.5 59 0.0 ---
2015-11-16 15:57:34 18.2 61 9.9 59 0.0 ---
2015-11-16 15:27:34 18.2 64 10.7 58 0.9 ---
2015-11-16 14:57:34 18.2 63 10.9 56 1.3 ---
2015-11-16 14:27:34 18.4 62 11.0 56 0.0 ---
2015-11-16 13:57:34 19.4 58 11.6 56 0.0 ---
2015-11-16 13:27:34 22.0 57 11.4 63 0.0 ---
2015-11-16 12:57:34 16.9 65 11.2 63 0.0 ---
2015-11-16 12:27:34 16.8 63 10.5 62 0.0 ---
2015-11-16 11:57:34 18.5 60 10.4 62 0.0 ---
2015-11-16 11:27:34 15.9 66 10.7 62 0.0 ---
2015-11-16 10:57:34 14.7 67 10.2 67 0.0 ---
2015-11-16 10:27:34 15.0 67 10.2 73 0.0 ---
2015-11-16 09:57:34 14.7 68 10.4 76 0.0 ---
2015-11-16 09:27:34 13.3 67 9.9 79 0.0 ---
2015-11-16 08:57:34 13.3 67 10.9 77 0.0 ---
2015-11-16 08:27:34 13.5 67 11.6 71 0.0 ---
2015-11-16 07:57:34 13.6 68 11.2 71 0.0 ---
2015-11-16 07:27:34 13.8 68 11.0 71 0.0 ---
2015-11-16 06:57:34 13.9 68 11.4 70 0.0 ---
2015-11-16 06:27:34 14.1 68 11.8 68 0.0 ---
2015-11-16 05:57:34 14.3 69 12.4 66 0.0 ---
2015-11-16 05:27:34 14.4 69 13.0 62 0.0 ---
2015-11-16 04:57:34 14.5 69 13.8 66 0.0 ---
2015-11-16 04:27:34 14.5 69 13.8 73 0.0 ---
2015-11-16 03:57:34 14.5 69 13.7 73 0.0 ---
2015-11-16 03:27:34 14.5 69 14.0 73 0.0 ---
2015-11-16 02:57:34 14.6 69 13.8 73 0.0 ---
2015-11-16 02:27:34 14.6 69 13.2 73 0.0 ---
2015-11-16 01:57:34 14.8 69 13.0 73 0.0 ---
2015-11-16 01:27:34 14.9 69 13.0 73 0.0 ---
2015-11-16 00:57:34 15.0 68 12.5 75 0.0 ---
2015-11-16 00:27:34 15.3 69 13.2 73 0.0 ---
2015-11-15 23:57:34 15.3 69 13.4 72 0.0 ---
2015-11-15 23:27:34 15.5 69 13.6 73 0.0 ---
2015-11-15 22:57:34 15.6 69 14.1 70 0.0 ---
2015-11-15 22:27:34 15.7 69 14.1 69 0.0 ---
2015-11-15 21:57:34 15.8 69 13.9 71 0.0 ---
2015-11-15 21:27:34 16.0 69 13.9 72 0.0 ---
2015-11-15 20:57:34 16.1 69 14.1 72 0.0 ---
2015-11-15 20:27:34 16.2 69 14.1 72 0.0 ---
2015-11-15 19:57:34 16.3 69 14.6 72 0.0 ---
2015-11-15 19:27:34 16.4 69 15.2 70 0.0 ---
2015-11-15 18:57:34 16.5 69 15.6 69 0.0 ---
2015-11-15 18:27:34 16.5 69 15.6 70 0.0 ---
2015-11-15 17:57:34 16.6 69 15.9 70 0.0 ---
2015-11-15 17:27:34 16.7 69 15.9 71 0.0 ---
2015-11-15 16:57:34 16.8 69 15.6 73 0.0 ---
2015-11-15 16:27:34 16.9 69 15.4 73 0.0 ---
2015-11-15 15:57:34 17.0 69 15.6 74 0.0 ---
2015-11-15 15:27:34 17.1 69 15.6 74 0.0 ---
2015-11-15 14:57:34 17.1 69 15.8 73 0.0 ---
2015-11-15 14:27:34 17.0 69 15.9 74 0.0 ---
2015-11-15 13:57:34 17.0 69 15.8 74 0.0 ---
2015-11-15 13:27:34 16.9 69 15.8 75 0.0 ---
2015-11-15 12:57:34 16.8 69 16.2 73 0.0 ---
2015-11-15 12:27:34 16.4 69 16.2 73 0.0 ---
2015-11-15 11:57:34 16.1 69 16.0 73 0.0 ---
2015-11-15 11:27:34 15.8 68 15.6 73 0.0 ---
2015-11-15 10:57:34 15.6 68 15.6 73 0.0 ---
2015-11-15 10:27:34 15.2 68 15.4 74 0.0 ---
2015-11-15 09:57:34 15.0 67 15.2 73 0.0 ---
2015-11-15 09:27:34 14.8 67 15.2 74 0.0 ---
2015-11-15 08:57:34 14.7 67 15.0 73 1.8 ---
2015-11-15 08:27:34 14.7 67 14.8 73 0.9 ---
2015-11-15 07:57:34 14.6 67 14.8 72 0.9 ---
2015-11-15 07:27:34 14.5 67 15.0 71 0.4 ---
2015-11-15 06:57:34 14.6 67 15.0 71 0.9 ---
2015-11-15 06:27:34 14.4 67 15.0 71 0.4 ---
2015-11-15 05:57:34 14.4 67 15.2 71 1.3 ---
2015-11-15 05:27:34 14.3 67 15.4 71 1.3 ---
2015-11-15 04:57:34 14.1 67 15.4 71 1.3 ---
2015-11-15 04:27:34 14.0 66 15.4 72 5.3 ---
2015-11-15 03:57:34 13.8 66 15.2 73 2.6 ---
2015-11-15 03:27:34 13.7 66 15.0 75 4.4 ---
2015-11-15 02:57:34 13.6 66 14.6 79 3.5 ---
2015-11-15 02:27:34 13.3 66 14.3 82 1.8 ---
2015-11-15 01:57:34 13.2 66 14.1 84 0.9 ---
2015-11-15 01:27:34 13.0 66 14.1 84 1.3 ---
2015-11-15 00:57:34 12.8 66 14.3 84 0.9 ---
2015-11-15 00:27:34 12.5 66 14.6 83 1.3 ---
2015-11-14 23:57:34 12.2 68 14.1 88 0.9 ---
2015-11-14 23:27:34 11.9 67 13.7 92 0.9 ---
2015-11-14 22:57:34 11.6 67 13.6 95 1.3 ---
2015-11-14 22:27:34 11.3 66 13.2 96 0.9 ---
2015-11-14 21:57:34 11.0 66 13.2 98 0.4 ---
2015-11-14 21:27:34 10.7 65 12.5 99 0.4 ---
2015-11-14 20:57:34 10.5 64 12.2 99 0.0 ---
2015-11-14 20:27:34 10.3 64 11.0 99 0.0 ---
2015-11-14 19:57:34 10.2 64 10.5 99 0.0 ---
2015-11-14 19:27:34 10.1 64 9.9 99 0.0 ---
2015-11-14 18:57:34 10.0 63 9.7 99 0.0 ---
2015-11-14 18:27:34 9.9 63 9.1 99 0.0 ---
2015-11-14 17:57:34 9.9 63 8.6 97 0.0 ---
2015-11-14 17:27:34 9.9 63 8.5 96 0.0 ---
2015-11-14 16:57:34 9.9 63 8.3 94 0.0 ---
2015-11-14 16:27:34 9.9 62 8.2 92 0.0 ---
2015-11-14 15:57:34 9.9 62 8.0 90 0.0 ---
2015-11-14 15:27:34 9.8 62 8.2 88 0.0 ---
2015-11-14 14:57:34 9.8 62 8.2 84 0.0 ---
2015-11-14 14:27:34 9.8 62 8.5 79 0.0 ---
2015-11-14 13:57:34 9.6 62 9.0 74 0.0 ---
2015-11-14 13:27:34 9.5 61 9.1 69 0.4 ---
2015-11-14 12:57:34 9.2 61 9.3 69 0.0 ---
2015-11-14 12:27:34 8.9 61 9.0 70 0.4 ---
2015-11-14 11:57:34 8.7 61 9.1 69 0.4 ---
2015-11-14 11:27:34 8.4 60 9.0 69 0.9 ---
2015-11-14 10:57:34 8.1 60 8.3 70 0.9 ---
2015-11-14 10:27:34 7.8 60 7.8 72 0.4 ---
2015-11-14 09:57:34 7.6 59 7.0 77 0.9 ---
2015-11-14 09:27:34 7.6 59 6.3 79 0.0 ---
2015-11-14 08:57:34 7.6 59 6.0 79 0.0 ---
2015-11-14 08:27:34 7.5 59 5.6 79 0.0 ---
2015-11-14 07:57:34 7.5 59 5.6 76 0.0 ---
2015-11-14 07:27:34 7.5 59 6.0 74 0.0 ---
2015-11-14 06:57:34 7.5 59 6.0 74 0.0 ---
2015-11-14 06:27:34 7.6 59 5.8 75 0.0 ---
2015-11-14 05:57:34 7.6 59 5.4 76 0.0 ---
2015-11-14 05:27:34 7.7 59 5.4 75 0.0 ---
2015-11-14 04:57:34 7.8 59 5.6 74 0.0 ---
2015-11-14 04:27:34 7.8 59 5.9 73 0.4 ---
2015-11-14 03:57:34 7.9 59 5.9 74 1.8 ---
2015-11-14 03:27:34 8.0 59 6.1 73 2.6 ---
2015-11-14 02:57:34 8.2 59 6.1 71 1.8 ---
2015-11-14 02:27:34 8.4 59 6.1 71 3.1 ---
2015-11-14 01:57:34 8.5 59 6.0 69 2.6 ---
2015-11-14 01:27:34 8.7 59 6.1 70 4.0 ---
2015-11-14 00:57:34 8.9 59 6.3 71 1.3 ---
2015-11-14 00:27:34 9.1 59 5.8 74 0.9 ---
2015-11-13 23:57:34 9.3 59 5.8 74 0.4 ---
2015-11-13 23:27:34 9.5 59 6.0 73 0.9 ---
2015-11-13 22:57:34 9.8 59 5.9 73 2.6 ---
2015-11-13 22:27:34 10.1 59 6.0 72 0.9 ---
2015-11-13 21:57:34 10.4 60 6.1 71 1.3 ---
2015-11-13 21:27:34 10.8 60 6.3 68 1.8 ---
2015-11-13 20:57:34 11.2 60 6.7 65 1.8 ---
2015-11-13 20:27:34 11.6 60 6.3 63 2.6 ---
2015-11-13 19:57:34 12.2 60 6.3 63 4.0 ---
2015-11-13 19:27:34 12.7 58 6.3 62 3.5 ---
2015-11-13 18:57:34 13.5 58 6.7 63 5.3 ---
2015-11-13 18:27:34 14.2 59 6.3 66 3.1 ---
2015-11-13 17:57:34 15.0 59 6.3 69 0.0 ---
2015-11-13 17:27:34 15.7 59 6.4 75 2.2 ---
2015-11-13 16:57:34 16.6 59 6.3 75 4.4 ---
2015-11-13 16:27:34 17.4 59 8.8 51 3.5 ---
2015-11-13 15:57:34 18.2 57 8.8 51 4.4 ---
2015-11-13 15:27:34 18.7 57 9.3 49 1.8 ---
2015-11-13 14:57:34 18.9 56 9.3 48 6.1 ---
2015-11-13 14:27:34 18.9 54 9.7 49 5.3 ---
2015-11-13 13:57:34 20.2 49 9.5 50 4.4 ---
2015-11-13 13:27:34 29.8 36 9.7 48 5.3 ---
2015-11-13 12:57:34 16.1 57 8.8 51 4.4 ---
2015-11-13 12:27:34 17.0 55 9.3 64 0.9 ---
2015-11-13 11:57:34 18.5 51 8.6 67 0.0 ---
2015-11-13 11:27:34 17.4 56 8.8 66 0.0 ---
2015-11-13 10:57:34 13.2 60 8.2 67 0.0 ---
2015-11-13 10:27:34 13.4 60 8.5 65 0.0 ---
2015-11-13 09:57:34 13.7 60 8.0 68 0.0 ---
2015-11-13 09:27:34 13.9 59 8.3 62 0.0 ---
2015-11-13 08:57:34 12.5 59 8.1 62 0.0 ---
2015-11-13 08:27:34 11.5 61 8.0 62 0.0 ---
2015-11-13 07:57:34 11.4 61 7.8 63 0.0 ---
2015-11-13 07:27:34 11.6 62 7.8 63 0.0 ---
2015-11-13 06:57:34 12.0 62 8.1 62 0.0 ---
2015-11-13 06:27:34 12.2 62 8.2 63 0.0 ---
2015-11-13 05:57:34 12.5 60 8.8 62 0.0 ---
2015-11-13 05:27:34 12.8 60 9.0 64 0.0 ---
2015-11-13 04:57:34 13.1 61 9.8 63 0.0 ---
2015-11-13 04:27:34 13.3 61 9.9 64 0.0 ---
2015-11-13 03:57:34 13.5 61 10.1 65 0.0 ---
2015-11-13 03:27:34 13.8 61 10.1 67 0.0 ---
2015-11-13 02:57:34 14.2 62 10.4 69 0.0 ---
2015-11-13 02:27:34 14.6 62 10.5 70 0.0 ---
2015-11-13 01:57:34 14.8 62 10.9 72 0.0 ---
2015-11-13 01:27:34 15.1 62 10.9 78 0.0 ---
2015-11-13 00:57:34 15.5 63 11.4 77 0.0 ---
2015-11-13 00:27:34 15.7 63 11.6 79 0.0 ---
2015-11-12 23:57:34 16.0 63 11.7 80 0.0 ---
2015-11-12 23:27:34 16.2 63 12.5 80 0.0 ---
2015-11-12 22:57:34 16.3 63 13.9 73 0.0 ---
2015-11-12 22:27:34 16.5 63 13.6 76 0.0 ---
2015-11-12 21:57:34 16.8 63 13.4 76 0.0 ---
2015-11-12 21:27:34 17.0 62 13.8 74 0.0 ---
2015-11-12 20:57:34 17.3 62 13.7 73 0.0 ---
2015-11-12 20:27:34 17.7 60 13.8 74 0.0 ---
2015-11-12 19:57:34 18.1 59 13.6 73 0.0 ---
2015-11-12 19:27:34 18.6 59 13.4 73 0.0 ---
2015-11-12 18:57:34 19.0 59 13.6 73 0.0 ---
2015-11-12 18:27:34 19.6 59 13.6 73 0.0 ---
2015-11-12 17:57:34 20.2 59 13.9 74 0.0 ---
2015-11-12 17:27:34 20.9 59 14.1 74 0.0 ---
2015-11-12 16:57:34 21.6 59 13.9 77 0.0 ---
2015-11-12 16:27:34 22.6 57 13.7 78 0.0 ---
2015-11-12 15:57:34 23.5 56 13.8 77 0.0 ---
2015-11-12 15:27:34 24.7 56 13.6 74 0.0 ---
2015-11-12 14:57:34 25.9 55 13.6 72 0.0 ---
2015-11-12 14:27:34 27.0 54 13.6 68 0.0 ---
2015-11-12 13:57:34 28.2 50 13.8 66 0.0 ---
2015-11-12 13:27:34 32.3 45 13.4 68 0.0 ---
2015-11-12 12:57:34 27.3 52 13.8 65 0.0 ---
2015-11-12 12:27:34 29.6 47 12.2 78 0.0 ---
2015-11-12 11:57:34 34.5 39 11.4 80 0.0 ---
2015-11-12 11:27:34 34.7 43 11.6 79 0.0 ---
2015-11-12 10:57:34 34.4 44 11.4 78 0.0 ---
2015-11-12 10:27:34 22.4 63 11.0 78 0.0 ---
2015-11-12 09:57:34 16.7 66 10.2 80 0.0 ---
2015-11-12 09:27:34 14.4 63 9.5 83 0.0 ---
2015-11-12 08:57:34 12.7 63 9.0 85 0.0 ---
2015-11-12 08:27:34 11.6 65 8.0 88 0.0 ---
2015-11-12 07:57:34 11.4 65 8.1 85 0.0 ---
2015-11-12 07:27:34 11.6 65 8.2 84 0.0 ---
2015-11-12 06:57:34 11.8 65 8.8 83 0.0 ---
2015-11-12 06:27:34 12.0 65 8.6 83 0.0 ---
2015-11-12 05:57:34 12.2 65 8.8 81 0.0 ---
2015-11-12 05:27:34 12.4 65 9.5 79 0.0 ---
2015-11-12 04:57:34 12.7 63 9.7 78 0.0 ---
2015-11-12 04:27:34 12.9 63 10.0 78 0.0 ---
2015-11-12 03:57:34 13.2 63 9.8 78 0.0 ---
2015-11-12 03:27:34 13.4 63 10.5 77 0.0 ---
2015-11-12 02:57:34 13.5 63 10.9 77 0.0 ---
2015-11-12 02:27:34 13.7 64 11.4 79 0.0 ---
2015-11-12 01:57:34 13.9 64 11.6 83 0.0 ---
2015-11-12 01:27:34 14.1 64 11.9 84 0.0 ---
2015-11-12 00:57:34 14.3 64 11.7 84 0.0 ---
2015-11-12 00:27:34 14.5 64 11.8 81 0.0 ---
2015-11-11 23:57:34 14.7 64 12.2 80 0.0 ---
2015-11-11 23:27:34 14.9 64 12.4 83 0.0 ---
2015-11-11 22:57:34 15.1 64 12.1 85 0.0 ---
2015-11-11 22:27:34 15.4 64 12.0 80 0.0 ---
2015-11-11 21:57:34 15.5 64 12.5 75 0.0 ---
2015-11-11 21:27:34 15.8 64 12.5 74 0.0 ---
2015-11-11 20:57:34 16.1 63 12.4 77 0.0 ---
2015-11-11 20:27:34 16.4 63 12.4 75 0.0 ---
2015-11-11 19:57:34 16.7 63 13.0 70 0.0 ---
2015-11-11 19:27:34 17.0 63 13.0 70 0.0 ---
2015-11-11 18:57:34 17.4 63 13.0 71 0.0 ---
2015-11-11 18:27:34 17.9 61 13.2 71 0.0 ---
2015-11-11 17:57:34 18.4 61 13.4 72 0.0 ---
2015-11-11 17:27:34 19.0 61 13.4 72 0.0 ---
2015-11-11 16:57:34 19.6 61 13.8 71 0.0 ---
2015-11-11 16:27:34 20.2 61 13.7 70 0.0 ---
2015-11-11 15:57:34 20.9 61 14.3 70 0.0 ---
2015-11-11 15:27:34 21.6 61 14.8 69 0.0 ---
2015-11-11 14:57:34 22.3 61 15.2 68 0.0 ---
2015-11-11 14:27:34 23.0 58 15.4 69 0.0 ---
2015-11-11 13:57:34 24.1 57 15.4 68 0.0 ---
2015-11-11 13:27:34 26.0 56 15.4 69 0.0 ---
2015-11-11 12:57:34 26.0 56 15.9 67 0.0 ---
2015-11-11 12:27:34 27.1 53 15.9 67 0.0 ---
2015-11-11 11:57:34 31.7 43 15.8 67 0.0 ---
2015-11-11 11:27:34 30.1 48 15.9 68 0.0 ---
2015-11-11 10:57:34 27.1 52 15.0 69 0.0 ---
2015-11-11 10:27:34 20.2 64 14.3 69 0.0 ---
2015-11-11 09:57:34 18.4 64 13.9 72 0.0 ---
2015-11-11 09:27:34 17.2 66 13.6 73 0.0 ---
2015-11-11 08:57:34 16.8 66 13.4 74 0.0 ---
2015-11-11 08:27:34 16.1 66 13.2 78 0.0 ---
2015-11-11 07:57:34 16.1 66 12.5 78 0.0 ---
2015-11-11 07:27:34 16.1 66 13.4 77 0.0 ---
2015-11-11 06:57:34 16.3 66 14.0 77 0.0 ---
2015-11-11 06:27:34 16.3 66 14.0 80 0.0 ---
2015-11-11 05:57:34 16.3 66 13.9 78 0.0 ---
2015-11-11 05:27:34 16.5 66 14.3 76 0.0 ---
2015-11-11 04:57:34 16.5 66 14.1 79 0.0 ---
2015-11-11 04:27:34 16.5 66 13.9 80 0.0 ---
2015-11-11 03:57:34 16.8 66 13.8 82 0.0 ---
2015-11-11 03:27:34 16.8 66 13.9 80 0.0 ---
2015-11-11 02:57:34 17.0 66 14.1 80 0.0 ---
2015-11-11 02:27:34 17.1 66 14.1 80 0.0 ---
2015-11-11 01:57:34 17.3 66 14.3 80 0.0 ---
2015-11-11 01:27:34 17.3 66 14.3 80 0.0 ---
2015-11-11 00:57:34 17.5 63 14.3 80 0.0 ---
2015-11-11 00:27:34 17.7 63 14.6 78 0.0 ---
2015-11-10 23:57:34 17.9 63 15.0 78 0.0 ---
2015-11-10 23:27:34 18.1 63 15.0 78 0.0 ---
2015-11-10 22:57:34 18.2 63 15.0 78 0.0 ---
2015-11-10 22:27:34 18.4 63 15.0 78 0.0 ---
2015-11-10 21:57:34 18.6 63 15.2 79 0.0 ---
2015-11-10 21:27:34 18.8 63 15.4 79 0.0 ---
2015-11-10 20:57:34 18.9 63 15.4 80 0.0 ---
2015-11-10 20:27:34 19.2 63 15.4 79 0.0 ---
2015-11-10 19:57:34 19.5 63 15.6 80 0.0 ---
2015-11-10 19:27:34 19.8 63 15.4 81 0.0 ---
2015-11-10 18:57:34 20.2 63 15.6 80 0.0 ---
2015-11-10 18:27:34 20.6 63 15.9 79 0.0 ---
2015-11-10 17:57:34 21.0 63 15.9 78 0.0 ---
2015-11-10 17:27:34 21.5 63 15.9 78 0.0 ---
2015-11-10 16:57:34 21.9 63 16.0 75 0.0 ---
2015-11-10 16:27:34 22.6 60 16.4 74 0.0 ---
2015-11-10 15:57:34 23.1 60 16.9 73 0.0 ---
2015-11-10 15:27:34 24.0 61 17.1 73 0.0 ---
2015-11-10 14:57:34 24.3 60 17.4 73 0.0 ---
2015-11-10 14:27:34 24.5 57 17.1 73 0.0 ---
2015-11-10 13:57:34 25.9 60 17.6 69 0.0 ---
2015-11-10 13:27:34 25.8 62 17.1 73 0.0 ---
2015-11-10 12:57:34 25.4 62 17.9 68 0.0 ---
2015-11-10 12:27:34 25.0 62 17.4 73 0.0 ---
2015-11-10 11:57:34 25.1 61 17.4 74 0.0 ---
2015-11-10 11:27:34 25.8 61 17.4 73 0.0 ---
2015-11-10 10:57:34 25.5 59 16.9 74 0.0 ---
2015-11-10 10:27:34 24.3 68 17.1 75 0.0 ---
2015-11-10 09:57:34 19.0 71 15.8 78 0.0 ---
2015-11-10 09:27:34 16.4 68 16.1 79 0.0 ---
2015-11-10 08:57:34 16.1 68 15.6 81 0.0 ---
2015-11-10 08:27:34 16.0 67 15.4 80 0.0 ---
2015-11-10 07:57:34 16.1 67 15.4 80 0.0 ---
2015-11-10 07:27:34 16.0 67 15.6 78 0.0 ---
2015-11-10 06:57:34 16.1 67 15.9 77 0.4 ---
2015-11-10 06:27:34 16.1 67 15.9 77 0.4 ---
2015-11-10 05:57:34 16.0 67 15.9 76 0.4 ---
2015-11-10 05:27:34 16.2 67 15.9 76 0.0 ---
2015-11-10 04:57:34 16.2 66 15.9 76 1.3 ---
2015-11-10 04:27:34 16.2 66 15.9 75 0.4 ---
2015-11-10 03:57:34 16.2 66 15.8 74 0.4 ---
2015-11-10 03:27:34 16.3 66 16.0 74 1.3 ---
2015-11-10 02:57:34 16.2 66 16.0 74 1.3 ---
2015-11-10 02:27:34 16.2 66 16.2 73 0.9 ---
2015-11-10 01:57:34 16.1 66 16.2 73 0.0 ---
2015-11-10 01:27:34 16.1 66 16.2 73 0.0 ---
2015-11-10 00:57:34 16.1 66 16.0 73 0.0 ---
2015-11-10 00:27:34 16.1 65 15.9 74 0.0 ---
2015-11-09 23:57:34 16.1 65 15.8 73 0.0 ---
2015-11-09 23:27:34 16.1 65 15.9 74 0.0 ---
2015-11-09 22:57:34 16.1 65 15.6 74 0.0 ---
2015-11-09 22:27:34 16.1 65 15.4 73 0.0 ---
2015-11-09 21:57:34 16.2 64 15.4 73 0.0 ---
2015-11-09 21:27:34 16.3 64 15.0 74 0.0 ---
2015-11-09 20:57:34 16.5 64 14.8 74 0.0 ---
2015-11-09 20:27:34 16.6 64 14.8 73 0.0 ---
2015-11-09 19:57:34 16.7 64 14.8 74 0.0 ---
2015-11-09 19:27:34 16.9 63 14.6 74 0.0 ---
2015-11-09 18:57:34 17.2 63 14.6 74 0.0 ---
2015-11-09 18:27:34 17.4 62 14.3 74 0.0 ---
2015-11-09 17:57:34 17.9 60 14.3 74 0.0 ---
2015-11-09 17:27:34 18.3 60 13.9 74 0.0 ---
2015-11-09 16:57:34 18.9 59 13.9 74 0.0 ---
2015-11-09 16:27:34 19.6 59 13.7 74 0.0 ---
2015-11-09 15:57:34 20.4 59 13.9 73 0.0 ---
2015-11-09 15:27:34 21.0 60 13.9 73 0.0 ---
2015-11-09 14:57:34 20.7 59 13.9 73 0.0 ---
2015-11-09 14:27:34 21.3 59 13.8 74 0.0 ---
2015-11-09 13:57:34 21.8 59 13.6 73 0.0 ---
2015-11-09 13:27:34 20.1 60 13.4 73 0.0 ---
2015-11-09 12:57:34 17.7 57 13.4 71 0.0 ---
2015-11-09 12:27:34 17.8 56 13.4 69 0.0 ---
2015-11-09 11:57:34 18.4 56 13.0 69 0.0 ---
2015-11-09 11:27:34 19.2 55 12.4 73 0.0 ---
2015-11-09 10:57:34 20.4 54 11.6 73 0.0 ---
2015-11-09 10:27:34 20.4 56 11.6 73 0.0 ---
2015-11-09 09:57:34 19.5 56 10.7 75 0.4 ---
2015-11-09 09:27:34 18.9 55 9.9 78 0.4 ---
2015-11-09 08:57:34 18.9 55 9.8 77 0.4 ---
2015-11-09 08:27:34 19.0 55 9.3 77 0.4 ---
2015-11-09 07:57:34 19.2 55 9.1 75 0.4 ---
2015-11-09 07:27:34 19.2 55 8.8 75 0.4 ---
2015-11-09 06:57:34 19.3 56 8.6 76 0.0 ---
2015-11-09 06:27:34 19.2 56 8.5 77 0.0 ---
2015-11-09 05:57:34 19.2 56 8.3 77 0.0 ---
2015-11-09 05:27:34 19.3 57 8.0 79 0.4 ---
2015-11-09 04:57:34 19.4 57 7.8 78 0.0 ---
2015-11-09 04:27:34 19.5 58 8.0 78 0.0 ---
2015-11-09 03:57:34 19.5 59 8.1 76 0.0 ---
2015-11-09 03:27:34 19.5 59 8.0 78 0.0 ---
2015-11-09 02:57:34 19.5 60 7.8 79 0.0 ---
2015-11-09 02:27:34 19.4 60 8.1 80 0.0 ---
2015-11-09 01:57:34 19.4 61 8.1 81 0.0 ---
2015-11-09 01:27:34 19.2 61 8.3 77 0.0 ---
2015-11-09 00:57:34 19.1 62 8.8 75 0.4 ---
2015-11-09 00:27:34 18.9 62 9.5 74 0.4 ---
2015-11-08 23:57:34 19.0 62 10.7 67 1.8 ---
2015-11-08 23:27:34 19.2 63 11.2 77 1.3 ---
2015-11-08 22:57:34 19.5 64 11.8 74 1.3 ---
2015-11-08 22:27:34 19.5 64 12.5 73 1.8 ---
2015-11-08 21:57:34 19.5 64 13.7 74 1.8 ---
2015-11-08 21:27:34 19.5 64 13.8 74 1.8 ---
2015-11-08 20:57:34 19.5 65 13.9 73 0.4 ---
2015-11-08 20:27:34 19.5 65 14.1 84 0.4 ---
2015-11-08 19:57:34 19.5 65 15.2 85 0.9 ---
2015-11-08 19:27:34 19.5 65 15.2 83 0.4 ---
2015-11-08 18:57:34 19.5 65 15.2 85 0.0 ---
2015-11-08 18:27:34 19.4 65 14.8 87 0.4 ---
2015-11-08 17:57:34 19.3 64 14.8 86 0.0 ---
2015-11-08 17:27:34 19.2 64 14.6 87 0.0 ---
2015-11-08 16:57:34 19.2 64 14.3 87 0.0 ---
2015-11-08 16:27:34 19.1 63 14.3 85 0.0 ---
2015-11-08 15:57:34 18.9 63 13.9 85 0.0 ---
2015-11-08 15:27:34 18.9 62 13.8 84 0.0 ---
2015-11-08 14:57:34 18.9 62 13.8 83 0.0 ---
2015-11-08 14:27:34 18.9 62 13.6 82 0.4 ---
2015-11-08 13:57:34 18.9 61 13.2 83 0.0 ---
2015-11-08 13:27:34 18.9 61 12.5 85 0.0 ---
2015-11-08 12:57:34 18.9 60 12.4 93 0.4 ---
2015-11-08 12:27:34 19.0 60 12.0 97 0.0 ---
2015-11-08 11:57:34 19.2 59 11.6 99 0.0 ---
2015-11-08 11:27:34 19.3 59 10.9 99 0.0 ---
2015-11-08 10:57:34 19.5 59 10.4 99 0.0 ---
2015-11-08 10:27:34 19.8 59 10.5 99 0.0 ---
2015-11-08 09:57:34 20.2 59 10.2 99 0.0 ---
2015-11-08 09:27:34 19.9 59 9.7 99 0.0 ---
2015-11-08 08:57:34 20.1 59 9.0 99 0.0 ---
2015-11-08 08:27:34 20.0 59 8.6 99 0.0 ---
2015-11-08 07:57:34 19.7 59 8.1 99 0.0 ---
2015-11-08 07:27:34 19.6 59 7.5 99 0.0 ---
2015-11-08 06:57:34 19.7 59 7.7 99 0.0 ---
2015-11-08 06:27:34 19.8 60 7.0 99 0.0 ---
2015-11-08 05:57:34 19.7 60 7.0 99 0.0 ---
2015-11-08 05:27:34 19.5 60 6.0 99 0.0 ---
2015-11-08 04:57:34 19.5 61 6.4 99 0.0 ---
2015-11-08 04:27:34 19.5 61 6.3 99 0.0 ---
2015-11-08 03:57:34 19.5 61 7.2 99 0.0 ---
2015-11-08 03:27:34 19.5 61 7.5 95 0.0 ---
2015-11-08 02:57:34 19.5 62 7.4 96 0.0 ---
2015-11-08 02:27:34 19.4 62 7.7 91 0.0 ---
2015-11-08 01:57:34 19.2 62 7.4 93 0.0 ---
2015-11-08 01:27:34 19.2 63 7.2 91 0.0 ---
2015-11-08 00:57:34 19.1 63 8.2 87 0.0 ---
2015-11-08 00:27:34 19.0 63 8.3 88 0.0 ---
2015-11-07 23:57:34 18.9 64 8.3 82 0.0 ---
2015-11-07 23:27:34 18.8 64 9.5 78 0.0 ---
2015-11-07 22:57:34 18.8 64 10.1 78 0.0 ---
2015-11-07 22:27:34 18.8 65 10.9 75 0.9 ---
2015-11-07 21:57:34 18.8 65 11.2 74 1.3 ---
2015-11-07 21:27:34 19.0 65 11.9 72 1.8 ---
2015-11-07 20:57:34 18.9 65 12.4 73 1.8 ---
2015-11-07 20:27:34 18.9 65 13.4 70 2.2 ---
2015-11-07 19:57:34 18.9 65 13.8 67 2.2 ---
2015-11-07 19:27:34 18.9 66 13.7 66 1.8 ---
2015-11-07 18:57:34 18.9 66 14.1 66 1.8 ---
2015-11-07 18:27:34 19.0 66 13.8 69 0.4 ---
2015-11-07 17:57:34 19.2 67 14.0 69 0.4 ---
2015-11-07 17:27:34 19.4 67 14.1 67 0.4 ---
2015-11-07 16:57:34 19.9 68 14.8 65 1.3 ---
2015-11-07 16:27:34 20.4 68 15.6 64 1.3 ---
2015-11-07 15:57:34 20.9 69 16.2 68 1.8 ---
2015-11-07 15:27:34 20.9 70 16.4 68 3.1 ---
2015-11-07 14:57:34 20.6 70 16.9 81 0.4 ---
2015-11-07 14:27:34 19.9 70 16.7 89 0.4 ---
2015-11-07 13:57:34 19.5 70 16.2 90 0.4 ---
2015-11-07 13:27:34 19.5 70 16.4 86 0.9 ---
2015-11-07 12:57:34 19.5 69 16.7 84 0.9 ---
2015-11-07 12:27:34 19.5 69 16.4 86 0.4 ---
2015-11-07 11:57:34 19.5 69 16.2 89 0.4 ---
2015-11-07 11:27:34 19.5 69 15.8 99 0.4 ---
2015-11-07 10:57:34 19.4 69 15.6 99 0.4 ---
2015-11-07 10:27:34 19.2 68 15.4 99 0.4 ---
2015-11-07 09:57:34 18.9 67 14.8 99 0.0 ---
2015-11-07 09:27:34 19.0 67 14.1 99 0.0 ---
2015-11-07 08:57:34 18.9 66 13.8 99 0.0 ---
2015-11-07 08:27:34 18.9 66 13.2 99 0.4 ---
2015-11-07 07:57:34 18.8 66 12.0 99 0.0 ---
2015-11-07 07:27:34 19.0 65 11.7 99 0.0 ---
2015-11-07 06:57:34 18.9 65 11.6 99 0.0 ---
2015-11-07 06:27:34 18.9 65 11.4 99 0.0 ---
2015-11-07 05:57:34 18.9 65 11.0 99 0.0 ---
2015-11-07 05:27:34 18.8 66 10.7 99 0.0 ---
2015-11-07 04:57:34 18.8 66 10.4 99 0.0 ---
2015-11-07 04:27:34 18.8 66 10.2 99 0.0 ---
2015-11-07 03:57:34 18.9 66 10.5 99 0.0 ---
2015-11-07 03:27:34 19.0 66 11.2 99 0.0 ---
2015-11-07 02:57:34 19.1 66 11.4 99 0.0 ---
2015-11-07 02:27:34 19.2 66 11.6 99 0.0 ---
2015-11-07 01:57:34 19.3 67 11.9 98 0.0 ---
2015-11-07 01:27:34 19.3 67 12.0 98 0.0 ---
2015-11-07 00:57:34 19.4 67 11.9 97 0.0 ---
2015-11-07 00:27:34 19.4 67 12.4 96 0.0 ---
2015-11-06 23:57:34 19.4 68 12.4 96 0.0 ---
2015-11-06 23:27:34 19.5 68 12.5 92 0.0 ---
2015-11-06 22:57:34 19.5 68 13.2 92 0.0 ---
2015-11-06 22:27:34 19.5 68 13.6 93 0.0 ---
2015-11-06 21:57:34 19.5 69 13.7 93 0.0 ---
2015-11-06 21:27:34 19.5 69 14.1 95 0.0 ---
2015-11-06 20:57:34 19.5 69 14.6 95 0.0 ---
2015-11-06 20:27:34 19.4 69 15.0 95 0.0 ---
2015-11-06 19:57:34 19.4 69 15.2 95 0.0 ---
2015-11-06 19:27:34 19.4 69 15.6 95 0.0 ---
2015-11-06 18:57:34 19.4 69 15.9 98 0.0 ---
2015-11-06 18:27:34 19.4 68 15.6 99 0.0 ---
2015-11-06 17:57:34 19.4 68 15.4 99 0.0 ---
2015-11-06 17:27:34 19.4 68 15.4 99 0.0 ---
2015-11-06 16:57:34 19.4 68 15.4 99 0.0 ---
2015-11-06 16:27:34 19.4 68 15.2 99 0.0 ---
2015-11-06 15:57:34 19.4 68 15.0 97 0.0 ---
2015-11-06 15:27:34 19.4 67 14.6 95 0.0 ---
2015-11-06 14:57:34 19.4 67 14.6 92 0.0 ---
2015-11-06 14:27:34 19.5 67 14.6 89 0.4 ---
2015-11-06 13:57:34 19.6 67 15.2 87 0.0 ---
2015-11-06 13:27:34 19.6 67 14.6 88 0.0 ---
2015-11-06 12:57:34 19.5 67 13.9 89 0.0 ---
2015-11-06 12:27:34 19.6 67 13.7 88 0.0 ---
2015-11-06 11:57:34 19.6 67 13.9 85 0.0 ---
2015-11-06 11:27:34 19.6 67 14.1 83 0.0 ---
2015-11-06 10:57:34 19.6 67 13.9 82 0.0 ---
2015-11-06 10:27:34 19.6 67 13.9 81 0.0 ---
2015-11-06 09:57:34 19.4 67 13.8 82 0.0 ---
2015-11-06 09:27:34 19.4 67 13.4 82 0.0 ---
2015-11-06 08:57:34 19.3 67 13.2 82 0.0 ---
2015-11-06 08:27:34 19.3 67 13.0 80 0.0 ---
2015-11-06 07:57:34 19.3 67 13.2 81 0.0 ---
2015-11-06 07:27:34 19.2 67 13.2 81 0.0 ---
2015-11-06 06:57:34 19.3 67 13.4 84 0.0 ---
2015-11-06 06:27:34 19.3 67 13.6 83 0.0 ---
2015-11-06 05:57:34 19.3 67 13.8 83 0.0 ---
2015-11-06 05:27:34 19.3 67 14.0 82 0.0 ---
2015-11-06 04:57:34 19.3 67 13.7 90 0.0 ---
2015-11-06 04:27:34 19.3 68 13.7 95 0.0 ---
2015-11-06 03:57:34 19.3 68 14.0 97 0.0 ---
2015-11-06 03:27:34 19.4 68 13.8 97 0.0 ---
2015-11-06 02:57:34 19.3 68 13.8 98 0.0 ---
2015-11-06 02:27:34 19.3 68 13.7 98 0.0 ---
2015-11-06 01:57:34 19.3 68 14.0 99 0.0 ---
2015-11-06 01:27:34 19.3 68 13.6 98 0.0 ---
2015-11-06 00:57:34 19.3 68 13.2 97 0.0 ---
2015-11-06 00:27:34 19.3 68 13.4 97 0.0 ---
2015-11-05 23:57:34 19.4 68 13.6 97 0.0 ---
2015-11-05 23:27:34 19.4 68 13.8 98 0.0 ---
2015-11-05 22:57:34 19.4 68 13.6 98 0.0 ---
2015-11-05 22:27:34 19.4 68 13.4 98 0.0 ---
2015-11-05 21:57:34 19.4 68 13.4 98 0.0 ---
2015-11-05 21:27:34 19.2 68 13.4 98 0.0 ---
2015-11-05 20:57:34 19.2 68 13.2 97 0.0 ---
2015-11-05 20:27:34 19.2 68 13.2 97 0.0 ---
2015-11-05 19:57:34 19.2 68 13.2 96 0.0 ---
2015-11-05 19:27:34 19.2 68 13.2 95 0.0 ---
2015-11-05 18:57:34 19.3 68 13.2 93 0.0 ---
2015-11-05 18:27:34 19.3 68 13.4 92 0.0 ---
2015-11-05 17:57:34 19.4 68 13.6 89 0.0 ---
2015-11-05 17:27:34 19.5 68 13.7 85 0.0 ---
2015-11-05 16:57:34 19.6 68 14.3 84 0.0 ---
2015-11-05 16:27:34 19.6 68 14.6 89 0.0 ---
2015-11-05 15:57:34 19.7 68 14.8 92 0.0 ---
2015-11-05 15:27:34 19.9 68 14.6 93 0.0 ---
2015-11-05 14:57:34 20.2 68 14.6 93 0.0 ---
2015-11-05 14:27:34 20.6 68 14.6 95 0.0 ---
2015-11-05 13:57:34 21.0 69 14.8 97 0.0 ---
2015-11-05 13:27:34 21.6 69 14.8 99 0.0 ---
2015-11-05 12:57:34 21.7 68 14.3 99 0.0 ---
2015-11-05 12:27:34 22.6 66 14.1 99 0.0 ---
2015-11-05 11:57:34 23.7 68 13.9 99 0.0 ---
2015-11-05 11:27:34 24.2 71 13.7 99 0.0 ---
2015-11-05 10:57:34 22.7 72 13.8 99 0.0 ---
2015-11-05 10:27:34 20.6 75 13.6 99 0.0 ---
2015-11-05 09:57:34 17.8 75 13.6 99 0.0 ---
2015-11-05 09:27:34 14.2 72 13.4 99 0.0 ---
2015-11-05 08:57:34 13.6 68 12.5 99 0.0 ---
2015-11-05 08:27:34 13.5 68 12.0 99 0.0 ---
2015-11-05 07:57:34 13.5 68 11.7 99 0.0 ---
2015-11-05 07:27:34 13.5 68 11.6 99 0.0 ---
2015-11-05 06:57:34 13.5 68 11.4 99 0.0 ---
2015-11-05 06:27:34 13.5 68 11.4 99 0.0 ---
2015-11-05 05:57:34 13.5 68 11.4 99 0.0 ---
2015-11-05 05:27:34 13.5 68 11.4 99 0.0 ---
2015-11-05 04:57:34 13.5 68 11.2 99 0.0 ---
2015-11-05 04:27:34 13.6 68 11.2 99 0.0 ---
2015-11-05 03:57:34 13.6 68 10.9 99 0.0 ---
2015-11-05 03:27:34 13.6 68 11.2 99 0.0 ---
2015-11-05 02:57:34 13.6 68 11.4 99 0.0 ---
2015-11-05 02:27:34 13.7 68 11.4 99 0.0 ---
2015-11-05 01:57:34 13.7 68 11.6 99 0.0 ---
2015-11-05 01:27:34 13.7 68 11.4 99 0.0 ---
2015-11-05 00:57:34 13.7 68 11.6 99 0.0 ---
2015-11-05 00:27:34 13.8 68 11.6 99 0.0 ---
2015-11-04 23:57:34 13.8 68 11.6 99 0.0 ---
2015-11-04 23:27:34 13.9 68 11.4 99 0.0 ---
2015-11-04 22:57:34 14.0 68 11.4 99 0.0 ---
2015-11-04 22:27:34 14.0 68 11.2 99 0.0 ---
2015-11-04 21:57:34 14.1 69 11.2 99 0.0 ---
2015-11-04 21:27:34 14.3 69 10.9 99 0.0 ---
2015-11-04 20:57:34 14.3 69 11.0 99 0.0 ---
2015-11-04 20:27:34 14.6 69 11.0 99 0.0 ---
2015-11-04 19:57:34 14.8 69 10.9 99 0.0 ---
2015-11-04 19:27:34 14.9 69 10.5 99 0.0 ---
2015-11-04 18:57:34 15.2 70 10.7 99 0.0 ---
2015-11-04 18:27:34 15.4 70 10.7 99 0.0 ---
2015-11-04 17:57:34 15.6 70 10.7 99 0.0 ---
2015-11-04 17:27:34 15.9 71 10.9 99 0.0 ---
2015-11-04 16:57:34 16.2 71 11.0 99 0.0 ---
2015-11-04 16:27:34 16.5 72 11.4 99 0.0 ---
2015-11-04 15:57:34 16.8 72 11.7 99 0.0 ---
2015-11-04 15:27:34 17.7 72 11.6 99 0.9 ---
2015-11-04 14:57:34 16.8 71 11.6 99 0.0 ---
2015-11-04 14:27:34 16.9 68 11.2 99 0.0 ---
2015-11-04 13:57:34 17.3 68 11.2 99 0.0 ---
2015-11-04 13:27:34 17.8 66 11.0 99 0.0 ---
2015-11-04 12:57:34 18.4 67 10.7 99 0.0 ---
2015-11-04 12:27:34 19.2 67 10.7 99 0.0 ---
2015-11-04 11:57:34 19.6 67 10.4 99 0.0 ---
2015-11-04 11:27:34 20.2 67 10.1 99 0.0 ---
2015-11-04 10:57:34 21.0 69 10.1 99 0.0 ---
2015-11-04 10:27:34 19.1 71 9.9 99 0.0 ---
2015-11-04 09:57:34 15.7 73 9.8 99 0.0 ---
2015-11-04 09:27:34 12.1 68 9.5 99 0.0 ---
2015-11-04 08:57:34 11.7 67 9.3 99 0.0 ---
2015-11-04 08:27:34 11.7 67 9.7 99 0.0 ---
2015-11-04 07:57:34 11.7 67 9.7 99 0.0 ---
2015-11-04 07:27:34 11.7 67 9.8 99 0.0 ---
2015-11-04 06:57:34 11.8 67 9.9 99 0.0 ---
2015-11-04 06:27:34 11.8 67 10.1 99 0.0 ---
2015-11-04 05:57:34 11.8 67 10.4 99 0.0 ---
2015-11-04 05:27:34 11.8 67 10.4 99 0.0 ---
2015-11-04 04:57:34 11.8 67 10.4 99 0.0 ---
2015-11-04 04:27:34 11.8 67 10.5 99 0.0 ---
2015-11-04 03:57:34 11.9 67 10.4 99 0.0 ---
2015-11-04 03:27:34 11.9 67 10.4 99 0.0 ---
2015-11-04 02:57:34 12.0 67 10.2 99 0.0 ---
2015-11-04 02:27:34 11.9 67 10.1 99 0.0 ---
2015-11-04 01:57:34 12.2 67 10.4 99 0.0 ---
2015-11-04 01:27:34 12.2 67 10.1 99 0.0 ---
2015-11-04 00:57:34 12.3 67 10.1 99 0.0 ---
2015-11-04 00:27:34 12.4 67 10.0 99 0.0 ---
2015-11-03 23:57:34 12.6 65 9.3 99 0.0 ---
2015-11-03 23:27:34 12.8 65 9.3 99 0.0 ---
2015-11-03 22:57:34 13.0 65 9.0 99 0.0 ---
2015-11-03 22:27:34 13.2 65 9.8 99 0.0 ---
2015-11-03 21:57:34 13.4 65 9.8 99 0.0 ---
2015-11-03 21:27:34 13.6 65 9.8 99 0.0 ---
2015-11-03 20:57:34 13.8 66 9.8 99 0.0 ---
2015-11-03 20:27:34 14.0 66 9.8 99 0.0 ---
2015-11-03 19:57:34 14.2 66 9.8 98 0.0 ---
2015-11-03 19:27:34 14.6 66 9.7 97 0.0 ---
2015-11-03 18:57:34 15.0 66 9.7 96 0.0 ---
2015-11-03 18:27:34 15.4 66 10.1 95 0.0 ---
2015-11-03 17:57:34 15.9 66 10.1 93 0.0 ---
2015-11-03 17:27:34 16.4 66 9.9 91 0.0 ---
2015-11-03 16:57:34 17.1 65 10.1 90 0.0 ---
2015-11-03 16:27:34 17.9 63 10.1 87 0.0 ---
2015-11-03 15:57:34 18.5 63 10.5 86 0.0 ---
2015-11-03 15:27:34 18.7 67 10.7 85 0.0 ---
2015-11-03 14:57:34 16.9 66 11.0 83 0.0 ---
2015-11-03 14:27:34 16.7 66 11.6 83 0.0 ---
2015-11-03 13:57:34 16.3 65 10.9 84 0.0 ---
2015-11-03 13:27:34 17.7 60 10.5 84 0.0 ---
2015-11-03 12:57:34 20.8 66 10.5 84 0.0 ---
2015-11-03 12:27:34 19.7 68 10.5 85 0.0 ---
2015-11-03 11:57:34 17.4 70 10.5 90 0.0 ---
2015-11-03 11:27:34 15.2 67 --- --- --- ---
2015-11-03 10:57:34 16.1 71 --- --- --- ---
2015-11-03 10:27:34 12.9 71 --- --- --- ---
2015-11-03 09:57:34 11.1 69 --- --- --- ---
2015-11-03 09:27:34 10.4 66 8.6 99 0.0 ---
2015-11-03 08:57:34 10.4 66 8.3 99 0.0 ---
2015-11-03 08:27:34 10.6 66 8.3 99 0.0 ---
2015-11-03 07:57:34 10.5 66 8.2 99 0.0 ---
2015-11-03 07:27:34 10.6 66 8.2 99 0.0 ---
2015-11-03 06:57:34 10.7 66 8.2 99 0.0 ---
2015-11-03 06:27:34 10.8 66 8.2 99 0.0 ---
2015-11-03 05:57:34 10.9 66 8.3 99 0.0 ---
2015-11-03 05:27:34 11.0 66 8.6 99 0.0 ---
2015-11-03 04:57:34 11.0 67 8.6 99 0.0 ---
2015-11-03 04:27:34 11.1 67 9.0 99 0.0 ---
2015-11-03 03:57:34 11.1 67 9.1 99 0.0 ---
2015-11-03 03:27:34 11.2 67 9.0 99 0.0 ---
2015-11-03 02:57:34 11.3 67 8.8 99 0.0 ---
2015-11-03 02:27:34 11.4 67 8.6 99 0.0 ---
2015-11-03 01:57:34 11.6 67 8.5 99 0.0 ---
2015-11-03 01:27:34 11.8 67 8.5 99 0.0 ---
2015-11-03 00:57:34 11.9 67 8.6 99 0.0 ---
2015-11-03 00:27:34 12.1 67 8.8 99 0.0 ---
2015-11-02 23:57:34 12.3 67 9.1 99 0.0 ---
2015-11-02 23:27:34 12.4 68 9.3 99 0.0 ---
2015-11-02 22:57:34 12.6 65 9.7 99 0.0 ---
2015-11-02 22:27:34 12.7 65 9.8 99 0.0 ---
2015-11-02 21:57:34 12.9 65 9.9 99 0.0 ---
2015-11-02 21:27:34 13.0 66 9.9 99 0.0 ---
2015-11-02 20:57:34 13.2 66 10.1 99 0.0 ---
2015-11-02 20:27:34 13.4 66 10.1 99 0.0 ---
2015-11-02 19:57:34 13.7 66 9.9 99 0.0 ---
2015-11-02 19:27:34 14.0 66 9.9 99 0.0 ---
2015-11-02 18:57:34 14.3 66 10.0 99 0.0 ---
2015-11-02 18:27:34 14.5 67 9.8 99 0.0 ---
2015-11-02 17:57:34 15.2 67 9.5 99 0.0 ---
2015-11-02 17:27:34 15.7 67 9.0 99 0.0 ---
2015-11-02 16:57:34 16.3 67 8.8 99 0.0 ---
2015-11-02 16:27:34 17.1 66 8.8 99 0.0 ---
2015-11-02 15:57:34 18.0 64 9.0 99 0.0 ---
2015-11-02 15:27:34 19.5 67 9.5 99 0.0 ---
2015-11-02 14:57:34 20.3 68 9.7 99 0.0 ---
2015-11-02 14:27:34 20.2 71 9.8 99 0.0 ---
2015-11-02 13:57:34 17.6 70 9.9 99 0.0 ---
2015-11-02 13:27:34 15.2 71 10.1 99 0.0 ---
2015-11-02 12:57:34 12.3 71 9.7 99 0.0 ---
2015-11-02 12:27:34 11.5 69 9.5 99 0.0 ---
2015-11-02 11:57:34 11.2 69 9.1 99 0.0 ---
2015-11-02 11:27:34 11.0 70 8.5 99 0.0 ---
2015-11-02 10:57:34 10.7 70 8.2 99 0.0 ---
2015-11-02 10:27:34 10.4 69 7.7 99 0.0 ---
2015-11-02 09:57:34 10.0 66 7.8 99 0.0 ---
2015-11-02 09:27:34 9.9 66 7.4 99 0.0 ---
2015-11-02 08:57:34 9.8 66 7.1 99 0.0 ---
2015-11-02 08:27:34 9.8 66 6.7 99 0.0 ---
2015-11-02 07:57:34 9.9 66 6.3 99 0.0 ---
2015-11-02 07:27:34 10.0 66 6.1 99 0.0 ---
2015-11-02 06:57:34 10.2 66 6.3 99 0.0 ---
2015-11-02 06:27:34 10.4 66 6.3 99 0.0 ---
2015-11-02 05:57:34 10.6 66 6.3 99 0.0 ---
2015-11-02 05:27:34 10.9 66 6.3 99 0.0 ---
2015-11-02 04:57:34 11.1 67 6.3 99 0.0 ---
2015-11-02 04:27:34 11.3 67 6.3 99 0.0 ---
2015-11-02 03:57:34 11.6 67 6.3 99 0.0 ---
2015-11-02 03:27:34 11.9 67 6.1 99 0.0 ---
2015-11-02 02:57:34 12.2 67 6.7 99 0.0 ---
2015-11-02 02:27:34 12.6 65 6.3 99 0.0 ---
2015-11-02 01:57:34 13.1 65 6.0 99 0.0 ---
2015-11-02 01:27:34 13.6 66 6.1 99 0.0 ---
2015-11-02 00:57:34 14.0 66 6.1 99 0.0 ---
2015-11-02 00:27:34 14.5 66 6.4 99 0.0 ---
2015-11-01 23:57:34 15.0 66 6.8 99 0.0 ---
2015-11-01 23:27:34 15.7 67 7.2 99 0.0 ---
2015-11-01 22:57:34 16.2 67 7.4 99 0.0 ---
2015-11-01 22:27:34 16.8 67 8.5 98 0.0 ---
2015-11-01 21:57:34 17.5 66 8.5 96 0.0 ---
2015-11-01 21:27:34 18.1 66 8.5 95 0.0 ---
2015-11-01 20:57:34 18.9 66 9.5 94 0.0 ---
2015-11-01 20:27:34 19.6 67 10.1 93 0.0 ---
2015-11-01 19:57:34 20.3 67 10.1 91 0.0 ---
2015-11-01 19:27:34 21.0 67 10.9 91 0.0 ---
2015-11-01 18:57:34 21.8 68 11.6 93 0.0 ---
2015-11-01 18:27:34 22.8 66 11.6 92 0.0 ---
2015-11-01 17:57:34 23.8 66 11.9 90 0.0 ---
2015-11-01 17:27:34 24.9 66 12.4 87 0.0 ---
2015-11-01 16:57:34 26.1 66 13.4 80 0.0 ---
2015-11-01 16:27:34 27.2 67 14.8 77 0.0 ---
2015-11-01 15:57:34 28.2 65 15.6 72 0.0 ---
2015-11-01 15:27:34 28.6 65 16.0 67 0.0 ---
2015-11-01 14:57:34 28.7 64 16.0 69 0.0 ---
2015-11-01 14:27:34 28.6 64 16.0 70 0.0 ---
2015-11-01 13:57:34 28.4 64 16.9 67 0.0 ---
2015-11-01 13:27:34 28.0 63 16.4 69 0.0 ---
2015-11-01 12:57:34 27.2 65 17.6 69 0.0 ---
2015-11-01 12:27:34 26.3 64 16.2 99 0.0 ---
2015-11-01 11:57:34 25.6 62 14.6 99 0.0 ---
2015-11-01 11:27:34 25.6 58 13.7 99 0.0 ---
2015-11-01 10:57:34 27.4 53 13.4 99 0.0 ---
2015-11-01 10:27:34 19.6 66 12.0 99 0.0 ---
2015-11-01 09:57:34 16.6 68 11.0 99 0.0 ---
2015-11-01 09:27:34 14.3 67 9.9 99 0.0 ---
2015-11-01 08:57:34 12.1 69 9.3 99 0.0 ---
2015-11-01 08:27:34 10.5 69 8.1 99 0.0 ---
2015-11-01 07:57:34 9.7 69 7.0 99 0.0 ---
2015-11-01 07:27:34 9.6 69 7.4 99 0.0 ---
2015-11-01 06:57:34 9.7 69 6.3 99 0.0 ---
2015-11-01 06:27:34 9.8 69 6.8 99 0.0 ---
2015-11-01 05:57:34 10.0 69 7.0 99 0.0 ---
2015-11-01 05:27:34 10.2 69 7.1 99 0.0 ---
2015-11-01 04:57:34 10.4 69 6.7 99 0.0 ---
2015-11-01 04:27:34 10.5 69 6.3 99 0.0 ---
2015-11-01 03:57:34 10.7 69 6.3 99 0.0 ---
2015-11-01 03:27:34 10.9 70 7.8 99 0.0 ---
2015-11-01 02:57:34 11.0 70 7.8 99 0.0 ---
2015-11-01 02:27:34 11.0 70 8.0 99 0.0 ---
2015-11-01 01:57:34 11.2 70 8.6 99 0.0 ---
2015-11-01 01:27:34 11.2 70 9.1 99 0.0 ---
2015-11-01 00:57:34 11.3 70 8.6 99 0.0 ---
2015-11-01 00:27:34 11.5 70 9.0 99 0.0 ---
2015-10-31 23:57:34 11.6 70 9.0 99 0.0 ---
2015-10-31 23:27:34 11.8 70 9.0 99 0.0 ---
2015-10-31 22:57:34 12.0 70 8.6 99 0.0 ---
2015-10-31 22:27:34 12.2 70 8.8 99 0.0 ---
2015-10-31 21:57:34 12.4 71 8.5 99 0.0 ---
2015-10-31 21:27:34 12.7 68 8.3 99 0.0 ---
2015-10-31 20:57:34 13.0 68 8.6 98 0.0 ---
2015-10-31 20:27:34 13.2 69 8.6 97 0.0 ---
2015-10-31 19:57:34 13.6 69 8.8 97 0.0 ---
2015-10-31 19:27:34 13.8 69 9.3 96 0.0 ---
2015-10-31 18:57:34 14.0 69 10.2 95 0.0 ---
2015-10-31 18:27:34 14.3 69 10.1 94 0.0 ---
2015-10-31 17:57:34 14.6 70 10.2 93 0.0 ---
2015-10-31 17:27:34 14.9 70 10.9 91 0.0 ---
2015-10-31 16:57:34 15.2 70 11.4 86 0.0 ---
2015-10-31 16:27:34 15.5 70 12.4 85 0.0 ---
2015-10-31 15:57:34 15.5 70 13.2 79 0.0 ---
2015-10-31 15:27:34 15.3 70 13.7 75 0.0 ---
2015-10-31 14:57:34 15.0 70 14.1 75 0.0 ---
2015-10-31 14:27:34 14.8 70 13.5 75 0.0 ---
2015-10-31 13:57:34 14.4 70 13.9 75 0.0 ---
2015-10-31 13:27:34 14.0 70 13.5 76 0.0 ---
2015-10-31 12:57:34 13.6 69 13.2 77 0.0 ---
2015-10-31 12:27:34 13.2 70 13.2 78 0.0 ---
2015-10-31 11:57:34 12.7 70 12.4 85 0.0 ---
2015-10-31 11:27:34 12.3 72 11.8 90 0.0 ---
2015-10-31 10:57:34 12.1 71 11.6 97 0.0 ---
2015-10-31 10:27:34 11.9 71 11.6 99 0.0 ---
2015-10-31 09:57:34 11.8 71 11.6 99 0.0 ---
2015-10-31 09:27:34 11.7 71 11.4 99 0.0 ---
2015-10-31 08:57:34 11.6 71 11.2 99 0.0 ---
2015-10-31 08:27:34 11.6 70 10.7 99 0.0 ---
2015-10-31 07:57:34 11.5 70 9.9 99 0.0 ---
2015-10-31 07:27:34 11.8 71 8.5 99 0.0 ---
2015-10-31 06:57:34 11.9 71 8.5 99 0.0 ---
2015-10-31 06:27:34 12.1 71 8.5 99 0.0 ---
2015-10-31 05:57:34 12.3 71 8.8 99 0.0 ---
2015-10-31 05:27:34 12.5 69 9.0 99 0.0 ---
2015-10-31 04:57:34 12.7 69 9.3 98 0.0 ---
2015-10-31 04:27:34 12.9 69 9.5 97 0.0 ---
2015-10-31 03:57:34 13.2 69 9.8 95 0.0 ---
2015-10-31 03:27:34 13.3 70 10.1 93 0.0 ---
2015-10-31 02:57:34 13.5 70 10.7 92 0.0 ---
2015-10-31 02:27:34 13.4 70 11.4 91 0.0 ---
2015-10-31 01:57:34 13.7 70 11.8 90 0.0 ---
2015-10-31 01:27:34 13.8 70 12.2 90 0.0 ---
2015-10-31 00:57:34 13.8 70 12.4 89 0.0 ---
2015-10-31 00:27:34 14.0 70 12.4 88 0.0 ---
2015-10-30 23:57:34 14.1 70 12.4 88 0.0 ---
2015-10-30 23:27:34 14.1 70 12.4 84 0.0 ---
2015-10-30 22:57:34 14.2 71 13.0 78 0.0 ---
2015-10-30 22:27:34 14.3 71 13.4 76 0.0 ---
2015-10-30 21:57:34 14.4 71 13.4 74 0.0 ---
2015-10-30 21:27:34 14.4 71 13.4 75 0.0 ---
2015-10-30 20:57:34 14.6 71 13.4 77 0.0 ---
2015-10-30 20:27:34 14.6 71 13.2 79 0.0 ---
2015-10-30 19:57:34 14.7 71 13.2 80 0.0 ---
2015-10-30 19:27:34 14.8 71 13.4 83 0.0 ---
2015-10-30 18:57:34 14.9 72 13.2 84 0.0 ---
2015-10-30 18:27:34 15.0 72 13.2 85 0.0 ---
2015-10-30 17:57:34 15.1 72 13.6 84 0.0 ---
2015-10-30 17:27:34 15.1 72 13.9 84 0.0 ---
2015-10-30 16:57:34 15.2 72 14.3 85 0.0 ---
2015-10-30 16:27:34 15.1 72 14.8 85 0.0 ---
2015-10-30 15:57:34 15.1 72 15.0 85 0.0 ---
2015-10-30 15:27:34 15.1 72 15.2 86 0.0 ---
2015-10-30 14:57:34 14.9 72 15.0 87 0.0 ---
2015-10-30 14:27:34 14.8 72 15.0 88 0.0 ---
2015-10-30 13:57:34 14.6 72 14.8 88 0.0 ---
2015-10-30 13:27:34 14.5 72 14.6 88 0.0 ---
2015-10-30 12:57:34 14.4 72 14.3 91 0.0 ---
2015-10-30 12:27:34 14.2 72 14.1 94 0.0 ---
2015-10-30 11:57:34 14.1 72 13.9 97 0.0 ---
2015-10-30 11:27:34 14.0 72 13.5 98 0.0 ---
2015-10-30 10:57:34 13.8 71 13.6 99 0.0 ---
2015-10-30 10:27:34 13.7 71 13.4 98 0.0 ---
2015-10-30 09:57:34 13.6 71 13.2 98 0.0 ---
2015-10-30 09:27:34 13.5 70 13.2 98 0.0 ---
2015-10-30 08:57:34 13.4 69 13.0 97 0.0 ---
2015-10-30 08:27:34 13.3 69 13.0 97 0.0 ---
2015-10-30 07:57:34 13.3 69 13.0 97 0.0 ---
2015-10-30 07:27:34 13.2 69 13.0 98 0.0 ---
2015-10-30 06:57:34 13.2 69 13.0 97 0.0 ---
2015-10-30 06:27:34 13.2 68 12.4 99 0.0 ---
2015-10-30 05:57:34 13.2 68 11.8 98 0.0 ---
2015-10-30 05:27:34 13.3 68 11.9 97 0.0 ---
2015-10-30 04:57:34 13.4 68 11.9 96 0.0 ---
2015-10-30 04:27:34 13.6 68 11.7 95 0.0 ---
2015-10-30 03:57:34 13.7 68 11.7 94 0.0 ---
2015-10-30 03:27:34 13.8 68 11.7 93 0.0 ---
2015-10-30 02:57:34 14.0 69 11.7 93 0.0 ---
2015-10-30 02:27:34 14.1 69 11.7 92 0.0 ---
2015-10-30 01:57:34 14.3 69 11.7 93 0.0 ---
2015-10-30 01:27:34 14.4 69 12.0 95 0.0 ---
2015-10-30 00:57:34 14.5 69 12.4 95 0.0 ---
2015-10-30 00:27:34 14.6 69 13.4 89 0.0 ---
2015-10-29 23:57:34 14.6 70 13.6 88 0.0 ---
2015-10-29 23:27:34 14.7 70 13.6 88 0.0 ---
2015-10-29 22:57:34 14.7 69 13.6 89 0.0 ---
2015-10-29 22:27:34 14.8 69 13.6 89 0.0 ---
2015-10-29 21:57:34 14.9 69 13.6 89 0.0 ---
2015-10-29 21:27:34 15.0 69 13.8 89 0.0 ---
2015-10-29 20:57:34 15.1 69 13.6 89 0.0 ---
2015-10-29 20:27:34 15.2 69 13.6 90 0.0 ---
2015-10-29 19:57:34 15.4 68 13.6 89 0.0 ---
2015-10-29 19:27:34 15.5 68 13.7 87 0.0 ---
2015-10-29 18:57:34 15.6 68 13.8 88 0.0 ---
2015-10-29 18:27:34 15.9 68 13.6 88 0.0 ---
2015-10-29 17:57:34 16.0 68 13.7 86 0.0 ---
2015-10-29 17:27:34 16.2 68 13.7 87 0.0 ---
2015-10-29 16:57:34 16.5 68 13.8 88 0.0 ---
2015-10-29 16:27:34 16.8 68 13.8 87 0.0 ---
2015-10-29 15:57:34 17.0 67 13.9 85 0.0 ---
2015-10-29 15:27:34 17.4 67 13.9 86 0.0 ---
2015-10-29 14:57:34 17.7 65 13.9 83 0.0 ---
2015-10-29 14:27:34 18.0 65 14.6 80 0.4 ---
2015-10-29 13:57:34 18.3 64 14.3 80 0.0 ---
2015-10-29 13:27:34 18.7 64 14.1 81 0.0 ---
2015-10-29 12:57:34 19.1 64 14.1 80 0.0 ---
2015-10-29 12:27:34 19.5 64 13.9 81 0.4 ---
2015-10-29 11:57:34 20.0 64 13.6 80 0.0 ---
2015-10-29 11:27:34 21.0 62 13.7 78 0.0 ---
2015-10-29 10:57:34 21.0 61 13.8 82 0.0 ---
2015-10-29 10:27:34 18.3 64 12.4 94 0.0 ---
2015-10-29 09:57:34 18.0 65 12.2 99 0.0 ---
2015-10-29 09:27:34 16.3 67 11.7 99 0.0 ---
2015-10-29 08:57:34 14.1 67 11.2 99 0.0 ---
2015-10-29 08:27:34 12.0 68 11.2 99 0.0 ---
2015-10-29 07:57:34 10.4 68 10.0 99 0.0 ---
2015-10-29 07:27:34 10.1 67 10.0 99 0.0 ---
2015-10-29 06:57:34 10.0 67 9.7 99 0.0 ---
2015-10-29 06:27:34 10.0 67 9.7 99 0.0 ---
2015-10-29 05:57:34 10.0 67 9.8 99 0.0 ---
2015-10-29 05:27:34 10.0 67 9.5 99 0.0 ---
2015-10-29 04:57:34 10.0 67 9.1 99 0.0 ---
2015-10-29 04:27:34 10.0 66 9.1 99 0.0 ---
2015-10-29 03:57:34 10.1 66 8.6 99 0.0 ---
2015-10-29 03:27:34 10.2 66 8.5 99 0.0 ---
2015-10-29 02:57:34 10.3 66 8.1 99 0.0 ---
2015-10-29 02:27:34 10.5 66 8.0 99 0.0 ---
2015-10-29 01:57:34 10.6 66 8.0 99 0.0 ---
2015-10-29 01:27:34 10.8 66 8.0 99 0.0 ---
2015-10-29 00:57:34 10.9 66 7.8 99 0.0 ---
2015-10-29 00:27:34 11.1 66 8.0 99 0.0 ---
2015-10-28 23:57:34 11.3 66 8.0 99 0.0 ---
2015-10-28 23:27:34 11.5 67 8.1 99 0.0 ---
2015-10-28 22:57:34 11.7 67 8.1 99 0.0 ---
2015-10-28 22:27:34 11.9 67 8.6 99 0.0 ---
2015-10-28 21:57:34 12.0 67 8.5 99 0.0 ---
2015-10-28 21:27:34 12.4 67 8.6 99 0.0 ---
2015-10-28 20:57:34 12.6 65 9.1 99 0.0 ---
2015-10-28 20:27:34 12.8 65 9.7 99 0.0 ---
2015-10-28 19:57:34 12.9 65 9.7 99 0.0 ---
2015-10-28 19:27:34 13.1 65 9.9 99 0.0 ---
2015-10-28 18:57:34 13.3 65 10.2 99 0.0 ---
2015-10-28 18:27:34 13.4 65 10.2 99 0.0 ---
2015-10-28 17:57:34 13.6 66 11.0 99 0.0 ---
2015-10-28 17:27:34 13.8 65 11.7 99 0.0 ---
2015-10-28 16:57:34 13.8 65 12.0 99 0.0 ---
2015-10-28 16:27:34 13.8 65 12.5 99 0.0 ---
2015-10-28 15:57:34 13.7 65 13.2 99 0.0 ---
2015-10-28 15:27:34 13.5 65 13.4 99 0.0 ---
2015-10-28 14:57:34 13.3 65 13.2 99 0.0 ---
2015-10-28 14:27:34 13.1 65 13.2 99 0.0 ---
2015-10-28 13:57:34 12.9 65 13.2 99 0.0 ---
2015-10-28 13:27:34 12.7 66 13.0 99 0.0 ---
2015-10-28 12:57:34 12.6 66 13.2 99 0.0 ---
2015-10-28 12:27:34 12.5 65 13.4 99 0.0 ---
2015-10-28 11:57:34 12.1 68 13.4 99 0.0 ---
2015-10-28 11:27:34 11.9 67 12.5 99 0.0 ---
2015-10-28 10:57:34 11.6 67 12.4 99 0.0 ---
2015-10-28 10:27:34 11.3 66 12.5 99 0.0 ---
2015-10-28 09:57:34 11.1 66 12.4 99 0.0 ---
2015-10-28 09:27:34 10.9 65 12.2 99 0.0 ---
2015-10-28 08:57:34 10.8 65 11.2 99 0.0 ---
2015-10-28 08:27:34 10.8 65 10.2 99 0.0 ---
2015-10-28 07:57:34 10.7 65 9.8 99 0.0 ---
2015-10-28 07:27:34 10.7 65 9.9 99 0.0 ---
2015-10-28 06:57:34 10.7 65 9.8 99 0.0 ---
2015-10-28 06:27:34 10.7 65 9.7 99 0.0 ---
2015-10-28 05:57:34 10.7 65 9.5 99 0.0 ---
2015-10-28 05:27:34 10.8 65 9.5 99 0.0 ---
2015-10-28 04:57:34 10.8 65 9.1 99 0.0 ---
2015-10-28 04:27:34 10.9 65 9.0 99 0.0 ---
2015-10-28 03:57:34 11.0 65 8.8 99 0.0 ---
2015-10-28 03:27:34 11.1 65 8.6 99 0.0 ---
2015-10-28 02:57:34 11.2 65 8.5 99 0.0 ---
2015-10-28 02:27:34 11.4 65 8.3 99 0.0 ---
2015-10-28 01:57:34 11.5 65 8.3 99 0.0 ---
2015-10-28 01:27:34 11.6 66 8.3 99 0.0 ---
2015-10-28 00:57:34 11.8 66 8.5 99 0.0 ---
2015-10-28 00:27:34 12.0 66 8.1 99 0.0 ---
2015-10-27 23:57:34 12.2 66 9.5 99 0.0 ---
2015-10-27 23:27:34 12.3 66 9.5 99 0.0 ---
2015-10-27 22:57:34 12.5 64 9.7 99 0.0 ---
2015-10-27 22:27:34 12.7 64 9.8 99 0.0 ---
2015-10-27 21:57:34 12.9 64 9.8 99 0.0 ---
2015-10-27 21:27:34 13.1 64 9.9 99 0.0 ---
2015-10-27 20:57:34 13.3 64 10.4 99 0.0 ---
2015-10-27 20:27:34 13.5 65 10.5 99 0.0 ---
2015-10-27 19:57:34 13.6 65 10.7 99 0.0 ---
2015-10-27 19:27:34 13.8 65 11.0 98 0.0 ---
2015-10-27 18:57:34 14.0 65 11.4 98 0.0 ---
2015-10-27 18:27:34 14.1 65 11.7 96 0.0 ---
2015-10-27 17:57:34 14.3 65 11.6 94 0.0 ---
2015-10-27 17:27:34 14.4 65 12.4 91 0.0 ---
2015-10-27 16:57:34 14.5 66 13.4 87 0.0 ---
2015-10-27 16:27:34 14.5 66 13.5 87 0.0 ---
2015-10-27 15:57:34 14.4 66 13.7 86 0.0 ---
2015-10-27 15:27:34 14.3 66 14.1 87 0.0 ---
2015-10-27 14:57:34 14.1 65 14.1 90 0.0 ---
2015-10-27 14:27:34 13.9 65 13.9 94 0.0 ---
2015-10-27 13:57:34 13.6 65 13.8 98 0.0 ---
2015-10-27 13:27:34 13.4 65 13.6 99 0.0 ---
2015-10-27 12:57:34 13.0 65 13.5 99 0.0 ---
2015-10-27 12:27:34 12.6 65 13.8 99 0.0 ---
2015-10-27 11:57:34 12.1 67 12.4 99 0.0 ---
2015-10-27 11:27:34 11.7 66 12.4 99 0.0 ---
2015-10-27 10:57:34 11.5 66 12.2 99 0.0 ---
2015-10-27 10:27:34 11.2 65 12.0 99 0.0 ---
2015-10-27 09:57:34 11.0 64 11.6 99 0.0 ---
2015-10-27 09:27:34 10.7 64 11.7 99 0.0 ---
2015-10-27 08:57:34 10.7 64 11.2 99 0.0 ---
2015-10-27 08:27:34 10.5 63 10.7 99 0.0 ---
2015-10-27 07:57:34 10.5 63 10.4 99 0.0 ---
2015-10-27 07:27:34 10.4 63 9.7 99 0.0 ---
2015-10-27 06:57:34 10.4 63 8.5 99 0.0 ---
2015-10-27 06:27:34 10.5 63 8.0 99 0.0 ---
2015-10-27 05:57:34 10.5 63 8.3 99 0.0 ---
2015-10-27 05:27:34 10.6 63 7.5 99 0.0 ---
2015-10-27 04:57:34 10.8 63 8.0 99 0.0 ---
2015-10-27 04:27:34 11.0 63 6.8 99 0.0 ---
2015-10-27 03:57:34 11.3 63 6.0 99 0.0 ---
2015-10-27 03:27:34 11.6 63 6.3 99 0.0 ---
2015-10-27 02:57:34 11.9 64 6.3 99 0.0 ---
2015-10-27 02:27:34 12.2 64 7.7 99 0.0 ---
2015-10-27 01:57:34 12.5 62 8.3 99 0.0 ---
2015-10-27 01:27:34 12.7 62 7.8 99 0.0 ---
2015-10-27 00:57:34 13.0 62 8.5 99 0.0 ---
2015-10-27 00:27:34 13.3 62 7.8 99 0.0 ---
2015-10-26 23:57:34 13.6 62 8.5 99 0.0 ---
2015-10-26 23:27:34 14.0 63 8.5 99 0.0 ---
2015-10-26 22:57:34 14.5 63 9.3 98 0.0 ---
2015-10-26 22:27:34 14.8 63 9.5 95 0.0 ---
2015-10-26 21:57:34 15.3 63 10.0 94 0.0 ---
2015-10-26 21:27:34 15.6 63 10.7 93 0.0 ---
2015-10-26 20:57:34 16.0 63 11.6 95 0.0 ---
2015-10-26 20:27:34 16.5 63 11.4 95 0.0 ---
2015-10-26 19:57:34 17.0 63 11.0 95 0.0 ---
2015-10-26 19:27:34 17.7 61 11.0 94 0.0 ---
2015-10-26 18:57:34 18.3 61 11.2 94 0.0 ---
2015-10-26 18:27:34 18.9 62 11.4 92 0.0 ---
2015-10-26 17:57:34 19.7 62 11.7 91 0.0 ---
2015-10-26 17:27:34 20.6 62 11.6 88 0.0 ---
2015-10-26 16:57:34 21.6 62 12.2 83 0.0 ---
2015-10-26 16:27:34 22.4 62 13.2 75 0.0 ---
2015-10-26 15:57:34 23.1 60 13.7 72 0.0 ---
2015-10-26 15:27:34 23.2 60 14.6 68 0.0 ---
2015-10-26 14:57:34 23.2 60 14.6 68 0.0 ---
2015-10-26 14:27:34 22.7 60 14.3 67 0.0 ---
2015-10-26 13:57:34 22.0 62 14.1 65 0.0 ---
2015-10-26 13:27:34 20.7 62 13.7 66 0.0 ---
2015-10-26 12:57:34 19.3 61 13.9 66 0.0 ---
2015-10-26 12:27:34 17.2 63 14.1 69 0.0 ---
2015-10-26 11:57:34 15.7 63 13.4 71 0.0 ---
2015-10-26 11:27:34 14.8 62 13.4 71 0.0 ---
2015-10-26 10:57:34 13.0 62 13.4 74 0.0 ---
2015-10-26 10:27:34 11.0 64 12.4 88 0.0 ---
2015-10-26 09:57:34 9.1 63 11.6 99 0.0 ---
2015-10-26 09:27:34 8.4 63 10.7 99 0.0 ---
2015-10-26 08:57:34 8.2 62 9.7 99 0.0 ---
2015-10-26 08:27:34 7.9 61 9.0 99 0.0 ---
2015-10-26 07:57:34 7.8 61 8.0 99 0.0 ---
2015-10-26 07:27:34 7.7 61 7.0 99 0.0 ---
2015-10-26 06:57:34 7.8 61 6.3 99 0.0 ---
2015-10-26 06:27:34 7.9 61 5.6 99 0.0 ---
2015-10-26 05:57:34 8.0 61 4.7 99 0.0 ---
2015-10-26 05:27:34 8.2 61 5.0 99 0.0 ---
2015-10-26 04:57:34 8.3 61 4.6 99 0.0 ---
2015-10-26 04:27:34 8.5 61 4.9 99 0.0 ---
2015-10-26 03:57:34 8.8 61 5.0 99 0.0 ---
2015-10-26 03:27:34 9.0 61 4.6 99 0.0 ---
2015-10-26 02:57:34 9.2 61 4.9 98 0.0 ---
2015-10-26 02:27:34 9.5 62 4.6 96 0.0 ---
2015-10-26 01:57:34 9.8 62 3.9 94 0.0 ---
2015-10-26 01:27:34 10.0 62 4.8 94 0.0 ---
2015-10-26 00:57:34 10.3 62 4.9 93 0.0 ---
2015-10-26 00:27:34 10.6 62 5.6 93 0.0 ---
2015-10-25 23:57:34 11.0 62 6.0 92 0.0 ---
2015-10-25 23:27:34 11.3 63 6.1 89 0.0 ---
2015-10-25 22:57:34 11.6 63 6.3 87 0.0 ---
2015-10-25 22:27:34 12.0 63 7.2 86 0.0 ---
2015-10-25 21:57:34 12.4 63 7.4 87 0.0 ---
2015-10-25 21:27:34 12.8 61 7.2 88 0.0 ---
2015-10-25 20:57:34 13.1 61 7.0 88 0.0 ---
2015-10-25 20:27:34 13.7 61 7.1 86 0.0 ---
2015-10-25 19:57:34 14.1 62 7.5 81 0.0 ---
2015-10-25 19:27:34 14.6 62 8.0 81 0.0 ---
2015-10-25 18:57:34 15.2 62 8.0 83 0.0 ---
2015-10-25 18:27:34 15.8 62 8.0 83 0.0 ---
2015-10-25 17:57:34 16.5 62 8.3 84 0.0 ---
2015-10-25 17:27:34 17.1 63 8.8 82 0.0 ---
2015-10-25 16:57:34 17.9 60 9.3 78 0.0 ---
2015-10-25 16:27:34 18.7 61 9.9 76 0.0 ---
2015-10-25 15:57:34 19.4 61 10.5 75 0.0 ---
2015-10-25 15:27:34 20.1 61 11.0 71 0.0 ---
2015-10-25 14:57:34 20.8 61 11.7 68 0.0 ---
2015-10-25 14:27:34 21.1 61 12.0 65 0.0 ---
2015-10-25 13:57:34 20.6 60 12.2 65 0.0 ---
2015-10-25 13:27:34 19.9 60 11.6 67 0.0 ---
2015-10-25 12:57:34 19.1 59 11.4 69 0.0 ---
2015-10-25 12:27:34 18.2 59 10.9 69 0.0 ---
2015-10-25 11:57:34 17.8 59 10.5 70 0.0 ---
2015-10-25 11:27:34 17.2 60 10.2 71 0.0 ---
2015-10-25 10:57:34 16.9 60 9.3 73 0.0 ---
2015-10-25 10:27:34 15.5 61 8.8 74 0.0 ---
2015-10-25 09:57:34 13.3 61 7.7 78 0.0 ---
2015-10-25 09:27:34 10.7 63 6.3 83 0.0 ---
2015-10-25 08:57:34 8.8 62 6.0 83 0.0 ---
2015-10-25 08:27:34 7.5 61 5.5 85 0.0 ---
2015-10-25 07:57:34 7.1 64 5.3 87 0.0 ---
2015-10-25 07:27:34 7.0 64 4.6 89 0.0 ---
2015-10-25 06:57:34 7.1 64 5.1 89 0.0 ---
2015-10-25 06:27:34 7.2 64 5.1 85 0.0 ---
2015-10-25 05:57:34 7.4 64 5.6 86 0.0 ---
2015-10-25 05:27:34 7.5 62 4.7 86 0.0 ---
2015-10-25 04:57:34 7.6 62 5.4 85 0.0 ---
2015-10-25 04:27:34 7.8 62 6.3 83 0.0 ---
2015-10-25 03:57:34 7.9 62 6.3 81 0.4 ---
2015-10-25 03:27:34 8.1 62 6.3 81 0.4 ---
2015-10-25 02:57:34 8.3 62 6.3 80 1.3 ---
2015-10-25 02:27:34 8.4 62 6.7 79 1.3 ---
2015-10-25 01:57:34 8.6 62 6.3 79 0.9 ---
2015-10-25 01:27:34 8.9 62 5.5 84 0.0 ---
2015-10-25 01:57:34 9.1 63 6.1 83 0.0 ---
2015-10-25 01:27:34 9.3 63 6.3 83 0.4 ---
2015-10-25 00:57:34 9.5 63 6.3 82 0.4 ---
2015-10-25 00:27:34 9.8 63 7.0 81 0.0 ---
2015-10-24 23:57:34 10.1 63 7.2 81 0.9 ---
2015-10-24 23:27:34 10.3 64 7.0 84 0.9 ---
2015-10-24 22:57:34 10.6 64 7.1 83 0.0 ---
2015-10-24 22:27:34 10.9 64 7.0 85 0.0 ---
2015-10-24 21:57:34 11.3 64 7.2 84 0.0 ---
2015-10-24 21:27:34 11.6 64 8.0 80 0.4 ---
2015-10-24 20:57:34 11.9 65 8.2 80 0.9 ---
2015-10-24 20:27:34 12.2 65 8.5 79 0.4 ---
2015-10-24 19:57:34 12.5 63 9.3 78 0.4 ---
2015-10-24 19:27:34 12.7 63 10.0 80 0.9 ---
2015-10-24 18:57:34 13.0 63 10.1 79 0.9 ---
2015-10-24 18:27:34 13.3 63 10.1 80 0.9 ---
2015-10-24 17:57:34 13.4 64 10.4 78 1.8 ---
2015-10-24 17:27:34 13.6 64 10.5 81 1.3 ---
2015-10-24 16:57:34 13.8 64 10.9 79 0.9 ---
2015-10-24 16:27:34 14.0 64 11.0 80 1.3 ---
2015-10-24 15:57:34 14.1 64 11.2 81 0.9 ---
2015-10-24 15:27:34 14.2 64 11.0 83 0.9 ---
2015-10-24 14:57:34 14.3 64 12.4 91 0.0 ---
2015-10-24 14:27:34 14.3 64 12.4 91 0.0 ---
2015-10-24 13:57:34 14.4 64 12.4 91 0.0 ---
2015-10-24 13:27:34 14.5 64 12.4 91 0.0 ---
2015-10-24 12:57:34 14.4 64 12.2 90 0.0 ---
2015-10-24 12:27:34 14.3 63 12.4 87 0.0 ---
2015-10-24 11:57:34 14.2 63 12.4 81 0.0 ---
2015-10-24 11:27:34 13.8 63 12.5 75 0.0 ---
2015-10-24 10:57:34 12.6 62 12.0 80 0.0 ---
2015-10-24 10:27:34 12.3 64 11.6 82 0.0 ---
2015-10-24 09:57:34 11.9 64 11.4 82 0.0 ---
2015-10-24 09:27:34 11.6 64 10.9 85 0.0 ---
2015-10-24 08:57:34 11.4 64 10.1 84 0.0 ---
2015-10-24 08:27:34 11.4 63 9.7 82 0.0 ---
2015-10-24 07:57:34 11.5 63 9.8 82 0.0 ---
2015-10-24 07:27:34 11.5 63 9.3 83 0.0 ---
2015-10-24 06:57:34 11.6 63 9.5 82 0.0 ---
2015-10-24 06:27:34 11.7 63 9.7 82 0.0 ---
2015-10-24 05:57:34 11.7 63 9.8 82 0.0 ---
2015-10-24 05:27:34 11.8 63 9.8 82 0.0 ---
2015-10-24 04:57:34 11.9 63 9.7 83 0.0 ---
2015-10-24 04:27:34 12.0 63 9.5 84 0.0 ---
2015-10-24 03:57:34 12.1 64 9.5 84 0.0 ---
2015-10-24 03:27:34 12.2 64 9.8 83 0.0 ---
2015-10-24 02:57:34 12.3 64 9.8 83 0.0 ---
2015-10-24 02:27:34 12.4 64 9.9 80 0.0 ---
2015-10-24 01:57:34 12.4 64 10.1 79 0.0 ---
2015-10-24 01:27:34 12.5 61 10.2 79 0.0 ---
2015-10-24 00:57:34 12.6 61 10.1 78 0.0 ---
2015-10-24 00:27:34 12.7 61 10.4 77 0.0 ---
2015-10-23 23:57:34 12.8 61 10.7 76 0.0 ---
2015-10-23 23:27:34 12.8 61 10.7 76 0.0 ---
2015-10-23 22:57:34 12.9 61 10.7 75 0.0 ---
2015-10-23 22:27:34 13.0 61 10.5 75 0.0 ---
2015-10-23 21:57:34 13.2 61 10.5 74 0.0 ---
2015-10-23 21:27:34 13.3 61 10.7 72 0.0 ---
2015-10-23 20:57:34 13.4 61 10.7 71 0.0 ---
2015-10-23 20:27:34 13.6 61 10.5 70 0.0 ---
2015-10-23 19:57:34 13.8 61 10.5 70 0.0 ---
2015-10-23 19:27:34 14.0 62 10.5 70 0.0 ---
2015-10-23 18:57:34 14.1 62 10.9 69 0.0 ---
2015-10-23 18:27:34 14.3 62 11.2 66 0.0 ---
2015-10-23 17:57:34 14.6 62 11.6 65 0.0 ---
2015-10-23 17:27:34 14.6 62 11.8 67 0.0 ---
2015-10-23 16:57:34 14.8 62 12.2 63 0.0 ---
2015-10-23 16:27:34 14.9 62 12.4 64 0.0 ---
2015-10-23 15:57:34 14.9 62 12.5 63 0.0 ---
2015-10-23 15:27:34 14.8 62 12.5 63 0.0 ---
2015-10-23 14:57:34 14.6 62 12.5 64 0.0 ---
2015-10-23 14:27:34 14.6 61 12.5 63 0.0 ---
2015-10-23 13:57:34 14.3 61 13.0 63 0.0 ---
2015-10-23 13:27:34 14.0 61 13.0 64 0.0 ---
2015-10-23 12:57:34 13.6 61 12.5 66 0.0 ---
2015-10-23 12:27:34 12.8 60 12.2 67 0.0 ---
2015-10-23 11:57:34 11.8 62 11.8 68 0.0 ---
2015-10-23 11:27:34 10.6 62 11.2 72 0.0 ---
2015-10-23 10:57:34 9.9 62 10.5 76 0.0 ---
2015-10-23 10:27:34 9.2 61 8.8 82 0.0 ---
2015-10-23 09:57:34 8.9 61 7.7 88 0.0 ---
2015-10-23 09:27:34 8.8 61 6.7 96 0.0 ---
2015-10-23 08:57:34 8.7 61 6.1 99 0.0 ---
2015-10-23 08:27:34 8.8 61 5.3 99 0.0 ---
2015-10-23 07:57:34 8.9 61 4.6 99 0.0 ---
2015-10-23 07:27:34 9.1 61 4.7 99 0.0 ---
2015-10-23 06:57:34 9.3 61 4.8 99 0.0 ---
2015-10-23 06:27:34 9.4 61 5.1 99 0.0 ---
2015-10-23 05:57:34 9.6 61 4.7 99 0.0 ---
2015-10-23 05:27:34 9.7 61 5.0 99 0.0 ---
2015-10-23 04:57:34 10.2 62 4.7 99 0.0 ---
2015-10-23 04:27:34 10.4 62 5.0 98 0.0 ---
2015-10-23 03:57:34 10.7 62 5.1 97 0.0 ---
2015-10-23 03:27:34 11.0 62 5.0 95 0.0 ---
2015-10-23 02:57:34 11.3 62 4.5 93 0.0 ---
2015-10-23 02:27:34 11.7 63 4.9 92 0.0 ---
2015-10-23 01:57:34 12.1 63 4.9 90 0.0 ---
2015-10-23 01:27:34 12.5 61 5.1 89 0.0 ---
2015-10-23 00:57:34 12.9 61 5.6 88 0.0 ---
2015-10-23 00:27:34 13.3 61 6.0 87 0.0 ---
2015-10-22 23:57:34 13.8 62 6.4 86 0.0 ---
2015-10-22 23:27:34 14.1 62 6.3 84 0.0 ---
2015-10-22 22:57:34 14.7 62 6.8 83 0.0 ---
2015-10-22 22:27:34 15.2 63 7.2 83 0.4 ---
2015-10-22 21:57:34 15.8 63 8.0 74 0.0 ---
2015-10-22 21:27:34 16.4 63 8.6 71 0.9 ---
2015-10-22 20:57:34 17.0 64 9.0 70 0.0 ---
2015-10-22 20:27:34 17.8 62 9.3 69 0.0 ---
2015-10-22 19:57:34 18.5 62 10.0 68 0.0 ---
2015-10-22 19:27:34 19.3 62 10.2 68 0.4 ---
2015-10-22 18:57:34 20.2 62 10.9 66 1.3 ---
2015-10-22 18:27:34 21.1 62 11.2 66 1.3 ---
2015-10-22 17:57:34 21.9 62 12.2 62 1.3 ---
2015-10-22 17:27:34 22.7 61 13.2 59 1.8 ---
2015-10-22 16:57:34 23.6 61 13.8 59 2.2 ---
2015-10-22 16:27:34 23.9 61 13.7 58 2.6 ---
2015-10-22 15:57:34 24.0 61 14.1 58 1.8 ---
2015-10-22 15:27:34 24.0 62 13.7 60 0.9 ---
2015-10-22 14:57:34 24.0 62 13.9 59 1.3 ---
2015-10-22 14:27:34 24.0 62 13.9 58 2.2 ---
2015-10-22 13:57:34 24.3 62 14.1 57 2.2 ---
2015-10-22 13:27:34 23.4 62 14.8 60 1.3 ---
2015-10-22 12:57:34 22.8 64 13.9 60 1.8 ---
2015-10-22 12:27:34 21.8 68 13.6 60 2.2 ---
2015-10-22 11:57:34 20.7 67 13.6 60 2.6 ---
2015-10-22 11:27:34 20.4 66 13.6 60 2.6 ---
2015-10-22 10:57:34 19.5 67 13.2 60 1.8 ---
2015-10-22 10:27:34 18.6 67 12.5 60 1.8 ---
2015-10-22 09:57:34 16.2 70 12.5 61 2.6 ---
2015-10-22 09:27:34 14.0 66 12.4 65 2.2 ---
2015-10-22 08:57:34 14.1 66 12.5 63 1.8 ---
2015-10-22 08:27:34 14.1 66 13.0 68 1.8 ---
2015-10-22 07:57:34 14.2 66 13.0 77 1.8 ---
2015-10-22 07:27:34 14.3 66 12.4 87 0.0 ---
2015-10-22 06:57:34 14.5 66 12.4 87 0.0 ---
2015-10-22 06:27:34 14.6 66 12.5 79 0.0 ---
2015-10-22 05:57:34 14.7 66 13.4 78 0.0 ---
2015-10-22 05:27:34 14.8 66 14.0 79 0.4 ---
2015-10-22 04:57:34 15.0 67 13.6 83 0.0 ---
2015-10-22 04:27:34 15.1 67 13.6 82 0.0 ---
2015-10-22 03:57:34 15.2 67 13.8 82 0.0 ---
2015-10-22 03:27:34 15.3 67 13.9 84 0.4 ---
2015-10-22 02:57:34 15.4 67 14.3 84 0.0 ---
2015-10-22 02:27:34 15.4 67 14.3 83 0.4 ---
2015-10-22 01:57:34 15.5 67 14.6 83 0.4 ---
2015-10-22 01:27:34 15.6 67 14.6 86 0.0 ---
2015-10-22 00:57:34 15.7 67 14.3 86 0.0 ---
2015-10-22 00:27:34 15.8 68 14.3 86 0.0 ---
2015-10-21 23:57:34 15.9 68 14.3 86 0.0 ---
2015-10-21 23:27:34 16.0 68 14.1 86 0.0 ---
2015-10-21 22:57:34 16.2 68 13.9 86 0.0 ---
2015-10-21 22:27:34 16.3 68 14.1 86 0.4 ---
2015-10-21 21:57:34 16.6 69 14.3 85 0.0 ---
2015-10-21 21:27:34 16.7 69 14.3 86 0.0 ---
2015-10-21 20:57:34 16.9 69 14.6 87 0.9 ---
2015-10-21 20:27:34 17.2 69 14.8 85 0.0 ---
2015-10-21 19:57:34 17.5 67 14.3 86 0.0 ---
2015-10-21 19:27:34 17.9 68 14.1 84 0.0 ---
2015-10-21 18:57:34 18.2 68 14.6 82 0.0 ---
2015-10-21 18:27:34 18.7 68 15.0 80 0.9 ---
2015-10-21 17:57:34 18.9 69 16.0 76 0.4 ---
2015-10-21 17:27:34 19.2 70 16.2 76 1.3 ---
2015-10-21 16:57:34 19.2 71 16.2 78 1.3 ---
2015-10-21 16:27:34 19.0 72 16.4 76 1.3 ---
2015-10-21 15:57:34 18.4 73 16.7 79 1.3 ---
2015-10-21 15:27:34 17.4 76 16.2 80 0.9 ---
2015-10-21 14:57:34 16.1 77 16.0 81 0.4 ---
2015-10-21 14:27:34 15.1 76 15.6 85 0.0 ---
2015-10-21 13:57:34 14.5 75 15.0 86 0.0 ---
2015-10-21 13:27:34 13.9 74 14.3 88 0.0 ---
2015-10-21 12:57:34 13.4 73 13.9 91 0.0 ---
2015-10-21 12:27:34 12.4 69 13.2 96 0.4 ---
2015-10-21 11:57:34 11.9 63 12.5 99 0.0 ---
2015-10-21 11:27:34 11.5 63 11.8 99 0.0 ---
2015-10-21 10:57:34 11.2 63 11.2 99 0.0 ---
2015-10-21 10:27:34 11.0 62 10.7 99 0.0 ---
2015-10-21 09:57:34 10.8 62 10.4 99 0.0 ---
2015-10-21 09:27:34 10.8 62 9.9 99 0.0 ---
2015-10-21 08:57:34 10.8 62 10.0 99 0.0 ---
2015-10-21 08:27:34 10.7 61 9.7 99 0.0 ---
2015-10-21 07:57:34 10.8 61 9.7 99 0.0 ---
2015-10-21 07:27:34 10.8 60 9.7 99 0.0 ---
2015-10-21 06:57:34 10.8 60 9.5 97 0.0 ---
2015-10-21 06:27:34 10.8 60 9.3 96 0.0 ---
2015-10-21 05:57:34 10.8 60 9.1 94 0.0 ---
2015-10-21 05:27:34 10.9 59 9.0 92 0.0 ---
2015-10-21 04:57:34 11.0 59 9.0 89 0.0 ---
2015-10-21 04:27:34 11.1 59 8.8 87 0.0 ---
2015-10-21 03:57:34 11.3 59 8.6 87 0.0 ---
2015-10-21 03:27:34 11.4 59 8.5 87 0.0 ---
2015-10-21 02:57:34 11.6 59 8.5 86 0.0 ---
2015-10-21 02:27:34 11.8 59 8.3 85 0.0 ---
2015-10-21 01:57:34 11.9 59 8.1 84 0.0 ---
2015-10-21 01:27:34 12.2 59 8.1 84 0.0 ---
2015-10-21 00:57:34 12.6 56 7.8 85 0.0 ---
2015-10-21 00:27:34 12.9 57 7.7 84 0.0 ---
2015-10-20 23:57:34 13.3 57 7.7 83 0.0 ---
2015-10-20 23:27:34 13.7 57 7.4 88 0.0 ---
2015-10-20 22:57:34 14.2 57 7.1 90 0.0 ---
2015-10-20 22:27:34 14.7 57 7.0 90 0.0 ---
2015-10-20 21:57:34 15.3 58 6.8 90 0.0 ---
2015-10-20 21:27:34 15.9 58 7.0 88 0.0 ---
2015-10-20 20:57:34 16.6 58 7.4 86 0.0 ---
2015-10-20 20:27:34 17.2 58 8.1 79 0.0 ---
2015-10-20 19:57:34 17.9 56 8.8 78 0.0 ---
2015-10-20 19:27:34 18.6 56 9.8 75 0.0 ---
2015-10-20 18:57:34 19.3 56 9.7 76 0.4 ---
2015-10-20 18:27:34 20.1 56 10.7 74 0.0 ---
2015-10-20 17:57:34 20.8 56 12.0 69 0.0 ---
2015-10-20 17:27:34 21.3 56 13.4 61 0.0 ---
2015-10-20 16:57:34 21.7 55 13.9 60 0.9 ---
2015-10-20 16:27:34 21.7 55 14.1 61 0.9 ---
2015-10-20 15:57:34 21.1 54 14.3 58 0.0 ---
2015-10-20 15:27:34 20.2 52 13.9 61 0.4 ---
2015-10-20 14:57:34 21.3 52 14.3 62 1.3 ---
2015-10-20 14:27:34 22.2 52 13.9 64 1.3 ---
2015-10-20 13:57:34 23.7 49 13.6 68 0.9 ---
2015-10-20 13:27:34 25.2 52 13.8 67 0.9 ---
2015-10-20 12:57:34 25.9 54 13.8 67 1.3 ---
2015-10-20 12:27:34 25.5 58 13.6 66 1.3 ---
2015-10-20 11:57:34 24.4 59 12.5 68 0.9 ---
2015-10-20 11:27:34 22.6 60 11.8 73 1.3 ---
2015-10-20 10:57:34 20.4 64 11.4 73 0.9 ---
2015-10-20 10:27:34 17.7 66 10.7 78 0.4 ---
2015-10-20 09:57:34 13.0 68 10.1 78 0.0 ---
2015-10-20 09:27:34 10.0 61 9.7 82 0.4 ---
2015-10-20 08:57:34 9.6 60 9.1 83 0.4 ---
2015-10-20 08:27:34 9.5 60 9.0 84 0.4 ---
2015-10-20 07:57:34 9.5 60 8.3 88 0.4 ---
2015-10-20 07:27:34 9.6 60 8.1 91 0.0 ---
2015-10-20 06:57:34 9.7 60 7.5 94 0.0 ---
2015-10-20 06:27:34 9.8 60 7.2 99 0.0 ---
2015-10-20 05:57:34 10.0 60 6.4 99 0.0 ---
2015-10-20 05:27:34 10.2 60 6.3 99 0.0 ---
2015-10-20 04:57:34 10.4 61 6.3 99 0.0 ---
2015-10-20 04:27:34 10.5 61 6.8 99 0.0 ---
2015-10-20 03:57:34 10.7 61 7.7 98 0.0 ---
2015-10-20 03:27:34 10.9 61 6.3 99 0.0 ---
2015-10-20 02:57:34 11.2 61 6.3 99 0.0 ---
2015-10-20 02:27:34 11.6 61 5.8 99 0.0 ---
2015-10-20 01:57:34 12.0 61 6.0 98 0.0 ---
2015-10-20 01:27:34 12.3 61 6.4 98 0.0 ---
2015-10-20 00:57:34 12.6 59 6.8 98 0.0 ---
2015-10-20 00:27:34 13.0 59 7.4 98 0.0 ---
2015-10-19 23:57:34 13.5 60 7.2 97 0.0 ---
2015-10-19 23:27:34 14.0 60 7.5 92 0.0 ---
2015-10-19 22:57:34 14.5 60 8.0 91 0.0 ---
2015-10-19 22:27:34 15.0 60 8.0 89 0.0 ---
2015-10-19 21:57:34 15.4 61 8.3 87 0.0 ---
2015-10-19 21:27:34 16.0 61 8.8 85 0.0 ---
2015-10-19 20:57:34 16.5 61 9.5 85 0.0 ---
2015-10-19 20:27:34 17.0 61 10.2 80 0.0 ---
2015-10-19 19:57:34 17.6 59 10.7 79 0.0 ---
2015-10-19 19:27:34 18.1 59 11.0 79 0.0 ---
2015-10-19 18:57:34 18.8 59 11.2 78 0.0 ---
2015-10-19 18:27:34 19.4 58 11.7 77 0.0 ---
2015-10-19 17:57:34 20.1 58 11.8 75 0.4 ---
2015-10-19 17:27:34 20.7 58 12.2 74 0.9 ---
2015-10-19 16:57:34 21.4 58 12.4 74 0.9 ---
2015-10-19 16:27:34 22.0 57 13.0 66 0.9 ---
2015-10-19 15:57:34 22.6 54 13.4 65 0.9 ---
2015-10-19 15:27:34 23.6 54 13.6 62 0.9 ---
2015-10-19 14:57:34 23.9 56 13.8 65 0.9 ---
2015-10-19 14:27:34 23.5 52 13.6 66 0.9 ---
2015-10-19 13:57:34 25.3 57 13.7 60 1.3 ---
2015-10-19 13:27:34 24.6 61 13.9 65 0.9 ---
2015-10-19 12:57:34 23.0 62 13.9 66 0.9 ---
2015-10-19 12:27:34 21.2 64 13.6 68 1.3 ---
2015-10-19 11:57:34 20.8 64 13.4 69 1.8 ---
2015-10-19 11:27:34 19.6 64 13.4 73 0.9 ---
2015-10-19 10:57:34 17.5 65 13.2 74 1.3 ---
2015-10-19 10:27:34 16.7 67 11.6 85 0.4 ---
2015-10-19 09:57:34 15.4 67 11.2 84 0.4 ---
2015-10-19 09:27:34 12.6 63 10.4 90 0.4 ---
2015-10-19 08:57:34 11.3 64 8.2 92 0.0 ---
2015-10-19 08:27:34 11.3 64 8.1 91 0.0 ---
2015-10-19 07:57:34 11.5 64 8.3 90 0.0 ---
2015-10-19 07:27:34 11.6 65 8.3 89 0.0 ---
2015-10-19 06:57:34 11.8 65 8.3 89 0.0 ---
2015-10-19 06:27:34 12.0 65 9.0 87 0.0 ---
2015-10-19 05:57:34 12.1 65 9.5 87 0.0 ---
2015-10-19 05:27:34 12.2 65 10.2 85 0.0 ---
2015-10-19 04:57:34 12.3 65 11.0 85 0.4 ---
2015-10-19 04:27:34 12.4 65 11.4 87 0.4 ---
2015-10-19 03:57:34 12.4 65 11.4 89 0.4 ---
2015-10-19 03:27:34 12.4 65 11.4 94 0.4 ---
2015-10-19 02:57:34 12.5 63 11.2 96 0.0 ---
2015-10-19 02:27:34 12.6 63 11.2 95 0.0 ---
2015-10-19 01:57:34 12.6 63 11.4 97 0.4 ---
2015-10-19 01:27:34 12.7 63 11.2 99 0.0 ---
2015-10-19 00:57:34 12.7 63 11.0 99 0.0 ---
2015-10-19 00:27:34 12.8 63 11.0 99 0.4 ---
2015-10-18 23:57:34 12.9 63 11.0 99 0.0 ---
2015-10-18 23:27:34 13.0 63 11.2 99 0.4 ---
2015-10-18 22:57:34 13.1 63 11.4 99 1.3 ---
2015-10-18 22:27:34 13.2 64 11.2 99 0.4 ---
2015-10-18 21:57:34 13.4 64 11.2 98 0.4 ---
2015-10-18 21:27:34 13.5 64 11.2 96 0.4 ---
2015-10-18 20:57:34 13.6 64 11.4 91 0.4 ---
2015-10-18 20:27:34 13.7 64 11.7 89 0.9 ---
2015-10-18 19:57:34 13.9 64 11.6 86 0.0 ---
2015-10-18 19:27:34 14.0 64 11.6 84 0.0 ---
2015-10-18 18:57:34 14.1 64 11.7 82 0.0 ---
2015-10-18 18:27:34 14.3 64 11.8 81 0.4 ---
2015-10-18 17:57:34 14.4 65 12.2 82 0.4 ---
2015-10-18 17:27:34 14.5 65 12.4 84 0.9 ---
2015-10-18 16:57:34 14.6 64 12.4 84 0.9 ---
2015-10-18 16:27:34 14.6 64 12.5 76 0.9 ---
2015-10-18 15:57:34 14.6 64 12.5 71 0.9 ---
2015-10-18 15:27:34 14.5 64 12.5 73 0.4 ---
2015-10-18 14:57:34 14.4 64 12.5 73 0.9 ---
2015-10-18 14:27:34 14.4 64 12.4 89 0.9 ---
2015-10-18 13:57:34 14.3 64 12.2 91 0.4 ---
2015-10-18 13:27:34 14.2 64 12.2 90 1.3 ---
2015-10-18 12:57:34 14.1 64 13.2 81 0.9 ---
2015-10-18 12:27:34 13.7 64 13.2 81 0.9 ---
2015-10-18 11:57:34 13.4 63 13.4 81 0.9 ---
2015-10-18 11:27:34 13.0 63 13.0 84 0.9 ---
2015-10-18 10:57:34 12.7 63 12.4 94 0.9 ---
2015-10-18 10:27:34 12.5 62 12.2 99 0.4 ---
2015-10-18 09:57:34 12.3 65 11.8 99 0.4 ---
2015-10-18 09:27:34 12.2 65 11.6 99 0.0 ---
2015-10-18 08:57:34 12.2 65 11.4 99 0.0 ---
2015-10-18 08:27:34 12.2 65 11.2 99 0.0 ---
2015-10-18 07:57:34 12.2 65 11.2 99 0.0 ---
2015-10-18 07:27:34 12.2 65 11.2 99 0.0 ---
2015-10-18 06:57:34 12.3 65 11.0 99 0.4 ---
2015-10-18 06:27:34 12.3 65 11.0 99 0.0 ---
2015-10-18 05:57:34 12.4 65 11.2 99 0.0 ---
2015-10-18 05:27:34 12.4 65 11.4 99 0.4 ---
2015-10-18 04:57:34 12.4 65 11.2 99 0.0 ---
2015-10-18 04:27:34 12.5 63 11.2 98 0.0 ---
2015-10-18 03:57:34 12.5 63 11.2 97 0.0 ---
2015-10-18 03:27:34 12.6 63 11.4 98 0.4 ---
2015-10-18 02:57:34 12.6 63 11.6 96 0.4 ---
2015-10-18 02:27:34 12.6 63 11.6 95 0.4 ---
2015-10-18 01:57:34 12.7 63 11.6 94 0.4 ---
2015-10-18 01:27:34 12.7 63 11.7 93 0.9 ---
2015-10-18 00:57:34 12.7 63 11.6 93 0.4 ---
2015-10-18 00:27:34 12.8 63 11.6 94 0.4 ---
2015-10-17 23:57:34 12.8 63 11.6 96 0.9 ---
2015-10-17 23:27:34 12.9 63 11.6 97 1.8 ---
2015-10-17 22:57:34 13.0 63 11.6 98 1.3 ---
2015-10-17 22:27:34 13.1 63 11.6 94 1.8 ---
2015-10-17 21:57:34 13.1 63 11.6 96 1.3 ---
2015-10-17 21:27:34 13.2 63 11.4 96 1.3 ---
2015-10-17 20:57:34 13.4 63 11.2 96 1.3 ---
2015-10-17 20:27:34 13.5 63 11.2 93 1.3 ---
2015-10-17 19:57:34 13.7 63 11.6 86 1.3 ---
2015-10-17 19:27:34 13.9 63 11.2 88 1.3 ---
2015-10-17 18:57:34 14.1 63 11.0 88 1.3 ---
2015-10-17 18:27:34 14.4 63 11.2 83 1.3 ---
2015-10-17 17:57:34 14.6 63 11.4 82 0.9 ---
2015-10-17 17:27:34 14.8 63 11.4 80 1.3 ---
2015-10-17 16:57:34 15.1 63 11.6 79 1.8 ---
2015-10-17 16:27:34 15.3 63 12.0 74 2.2 ---
2015-10-17 15:57:34 15.3 63 12.4 71 1.8 ---
2015-10-17 15:27:34 15.2 63 13.0 65 2.2 ---
2015-10-17 14:57:34 15.0 63 12.0 73 1.8 ---
2015-10-17 14:27:34 15.2 63 12.2 74 1.8 ---
2015-10-17 13:57:34 15.3 63 12.4 71 1.8 ---
2015-10-17 13:27:34 15.3 63 12.4 70 2.2 ---
2015-10-17 12:57:34 15.5 63 11.8 70 1.8 ---
2015-10-17 12:27:34 15.6 63 12.4 70 1.8 ---
2015-10-17 11:57:34 15.3 63 13.0 65 2.2 ---
2015-10-17 11:27:34 13.6 63 13.0 65 2.2 ---
2015-10-17 10:57:34 12.7 63 12.2 71 1.8 ---
2015-10-17 10:27:34 12.0 65 11.6 70 2.2 ---
2015-10-17 09:57:34 11.7 64 11.7 72 1.8 ---
2015-10-17 09:27:34 11.7 64 11.0 77 0.9 ---
2015-10-17 08:57:34 11.7 64 10.1 74 0.4 ---
2015-10-17 08:27:34 11.7 64 10.1 69 0.9 ---
2015-10-17 07:57:34 11.7 64 10.5 68 1.3 ---
2015-10-17 07:27:34 11.8 64 10.9 70 1.8 ---
2015-10-17 06:57:34 11.9 64 11.0 69 1.8 ---
2015-10-17 06:27:34 11.9 64 10.9 73 0.9 ---
2015-10-17 05:57:34 12.0 64 10.9 70 1.8 ---
2015-10-17 05:27:34 12.1 64 10.9 68 1.3 ---
2015-10-17 04:57:34 12.1 64 10.9 69 0.9 ---
2015-10-17 04:27:34 12.2 64 11.0 72 1.3 ---
2015-10-17 03:57:34 12.3 65 11.0 72 0.9 ---
2015-10-17 03:27:34 12.3 64 10.9 76 0.9 ---
2015-10-17 02:57:34 12.4 65 10.9 72 0.9 ---
2015-10-17 02:27:34 12.6 62 11.2 73 1.8 ---
2015-10-17 01:57:34 12.7 62 11.0 75 1.3 ---
2015-10-17 01:27:34 12.7 62 11.0 75 0.9 ---
2015-10-17 00:57:34 12.8 63 11.2 75 1.8 ---
2015-10-17 00:27:34 12.9 62 11.4 77 0.9 ---
2015-10-16 23:57:34 13.1 63 11.4 76 1.3 ---
2015-10-16 23:27:34 13.2 63 11.6 74 1.8 ---
2015-10-16 22:57:34 13.3 63 11.6 75 1.3 ---
2015-10-16 22:27:34 13.5 63 11.6 78 1.3 ---
2015-10-16 21:57:34 13.4 63 11.6 78 1.3 ---
2015-10-16 21:27:34 13.7 63 11.6 77 1.3 ---
2015-10-16 20:57:34 14.0 63 11.6 79 0.9 ---
2015-10-16 20:27:34 14.1 63 11.7 78 1.3 ---
2015-10-16 19:57:34 14.2 63 11.7 78 1.8 ---
2015-10-16 19:27:34 14.5 63 11.7 78 1.3 ---
2015-10-16 18:57:34 14.8 63 11.6 75 0.9 ---
2015-10-16 18:27:34 15.1 64 11.7 72 1.3 ---
2015-10-16 17:57:34 15.4 64 11.9 74 1.8 ---
2015-10-16 17:27:34 15.7 64 11.8 73 1.3 ---
2015-10-16 16:57:34 16.0 64 12.0 76 1.8 ---
2015-10-16 16:27:34 16.3 65 12.2 76 2.2 ---
2015-10-16 15:57:34 16.5 65 12.2 80 1.8 ---
2015-10-16 15:27:34 16.7 65 12.5 77 1.8 ---
2015-10-16 14:57:34 16.7 65 13.0 75 2.2 ---
2015-10-16 14:27:34 16.8 65 12.5 72 2.2 ---
2015-10-16 13:57:34 16.8 66 13.8 67 2.2 ---
2015-10-16 13:27:34 15.6 66 13.0 68 2.2 ---
2015-10-16 12:57:34 15.2 65 12.2 76 1.3 ---
2015-10-16 12:27:34 15.4 65 12.4 71 2.2 ---
2015-10-16 11:57:34 15.2 66 13.0 68 1.8 ---
2015-10-16 11:27:34 14.9 67 12.2 74 1.3 ---
2015-10-16 10:57:34 14.2 68 12.2 71 1.8 ---
2015-10-16 10:27:34 13.5 66 12.0 74 1.8 ---
2015-10-16 09:57:34 13.0 65 12.0 78 1.3 ---
2015-10-16 09:27:34 12.4 65 11.8 78 1.8 ---
2015-10-16 08:57:34 12.3 65 11.6 78 1.8 ---
2015-10-16 08:27:34 12.3 64 11.8 80 1.8 ---
2015-10-16 07:57:34 12.3 64 11.8 80 1.8 ---
2015-10-16 07:27:34 12.2 64 11.9 81 1.3 ---
2015-10-16 06:57:34 12.2 64 11.6 82 1.3 ---
2015-10-16 06:27:34 12.2 64 11.7 82 0.9 ---
2015-10-16 05:57:34 12.2 64 11.7 80 1.3 ---
2015-10-16 05:27:34 12.3 64 11.7 79 1.3 ---
2015-10-16 04:57:34 12.3 64 11.7 79 1.3 ---
2015-10-16 04:27:34 12.3 64 11.7 79 1.3 ---
2015-10-16 03:57:34 12.3 64 11.7 78 1.8 ---
2015-10-16 03:27:34 12.4 64 11.9 78 2.2 ---
2015-10-16 02:57:34 12.4 64 11.6 78 0.4 ---
2015-10-16 02:27:34 12.4 63 11.6 77 0.9 ---
2015-10-16 01:57:34 12.5 61 11.6 77 0.9 ---
2015-10-16 01:27:34 12.6 61 11.6 78 0.9 ---
2015-10-16 00:57:34 12.8 61 11.7 78 1.3 ---
2015-10-16 00:27:34 12.7 61 11.7 78 1.3 ---
2015-10-15 23:57:34 12.8 61 11.7 81 2.2 ---
2015-10-15 23:27:34 12.9 61 11.6 83 1.3 ---
2015-10-15 22:57:34 13.1 61 11.2 85 0.9 ---
2015-10-15 22:27:34 13.2 61 11.6 85 1.3 ---
2015-10-15 21:57:34 13.4 61 11.4 85 0.9 ---
2015-10-15 21:27:34 13.6 61 11.4 83 0.9 ---
2015-10-15 20:57:34 13.8 61 11.2 81 0.9 ---
2015-10-15 20:27:34 14.1 61 11.0 82 0.9 ---
2015-10-15 19:57:34 14.4 61 11.2 80 0.9 ---
2015-10-15 19:27:34 14.7 61 11.2 79 0.9 ---
2015-10-15 18:57:34 15.1 62 11.6 82 1.3 ---
2015-10-15 18:27:34 15.5 62 11.4 83 0.9 ---
2015-10-15 17:57:34 15.8 62 11.7 79 0.9 ---
2015-10-15 17:27:34 16.1 63 11.6 80 1.3 ---
2015-10-15 16:57:34 16.4 63 11.8 80 0.9 ---
2015-10-15 16:27:34 16.4 64 11.8 81 1.3 ---
2015-10-15 15:57:34 16.8 63 12.2 81 1.3 ---
2015-10-15 15:27:34 17.5 60 12.4 79 1.3 ---
2015-10-15 14:57:34 18.0 59 12.4 79 1.3 ---
2015-10-15 14:27:34 18.8 58 12.4 77 1.3 ---
2015-10-15 13:57:34 19.5 59 12.4 77 2.2 ---
2015-10-15 13:27:34 19.0 64 12.4 77 1.8 ---
2015-10-15 12:57:34 15.9 61 12.4 79 1.3 ---
2015-10-15 12:27:34 15.4 61 12.4 74 1.8 ---
2015-10-15 11:57:34 15.0 61 12.4 77 1.3 ---
2015-10-15 11:27:34 14.6 61 12.2 79 0.9 ---
2015-10-15 10:57:34 14.4 62 12.0 80 0.9 ---
2015-10-15 10:27:34 14.2 63 11.6 82 0.9 ---
2015-10-15 09:57:34 14.0 65 11.4 83 0.9 ---
2015-10-15 09:27:34 12.4 67 10.9 86 0.0 ---
2015-10-15 08:57:34 12.3 61 10.4 84 0.0 ---
2015-10-15 08:27:34 12.0 57 10.2 81 0.4 ---
2015-10-15 07:57:34 12.0 57 10.1 85 0.0 ---
2015-10-15 07:27:34 12.0 57 10.2 88 0.4 ---
2015-10-15 06:57:34 12.1 57 10.2 87 0.4 ---
2015-10-15 06:27:34 12.2 57 10.1 90 0.4 ---
2015-10-15 05:57:34 12.2 57 10.2 91 0.4 ---
2015-10-15 05:27:34 12.2 57 10.7 84 0.9 ---
2015-10-15 04:57:34 12.3 57 10.4 89 0.4 ---
2015-10-15 04:27:34 12.3 57 9.8 88 0.0 ---
2015-10-15 03:57:34 12.4 57 10.0 85 0.0 ---
2015-10-15 03:27:34 12.5 55 10.1 85 0.0 ---
2015-10-15 02:57:34 12.6 55 10.5 81 0.4 ---
2015-10-15 02:27:34 12.8 55 11.2 77 0.9 ---
2015-10-15 01:57:34 12.7 55 10.9 79 0.9 ---
2015-10-15 01:27:34 12.8 55 11.2 77 0.9 ---
2015-10-15 00:57:34 12.9 56 11.4 80 0.9 ---
2015-10-15 00:27:34 13.0 56 11.4 78 0.9 ---
2015-10-14 23:57:34 13.1 56 11.4 80 0.9 ---
2015-10-14 23:27:34 13.2 56 11.2 78 1.8 ---
2015-10-14 22:57:34 13.4 56 10.7 79 0.4 ---
2015-10-14 22:27:34 13.6 56 11.0 78 0.9 ---
2015-10-14 21:57:34 13.8 56 11.6 77 1.3 ---
2015-10-14 21:27:34 13.9 56 10.9 87 0.9 ---
2015-10-14 20:57:34 14.2 56 10.4 87 1.3 ---
2015-10-14 20:27:34 14.5 56 9.9 82 0.9 ---
2015-10-14 19:57:34 14.8 57 10.4 82 0.9 ---
2015-10-14 19:27:34 15.1 57 10.1 81 0.4 ---
2015-10-14 18:57:34 15.5 57 10.9 78 1.3 ---
2015-10-14 18:27:34 15.9 57 10.7 82 1.3 ---
2015-10-14 17:57:34 16.3 58 10.7 83 1.3 ---
2015-10-14 17:27:34 16.7 58 10.7 80 1.8 ---
2015-10-14 16:57:34 16.9 59 11.2 80 1.3 ---
2015-10-14 16:27:34 17.0 59 11.7 77 1.3 ---
2015-10-14 15:57:34 17.8 55 11.6 78 1.3 ---
2015-10-14 15:27:34 17.8 56 11.4 80 0.9 ---
2015-10-14 14:57:34 17.7 56 10.9 77 1.8 ---
2015-10-14 14:27:34 18.0 56 11.4 82 0.9 ---
2015-10-14 13:57:34 19.0 55 10.7 84 2.2 ---
2015-10-14 13:27:34 19.4 53 12.0 75 2.2 ---
2015-10-14 12:57:34 20.6 52 11.7 80 1.3 ---
2015-10-14 12:27:34 21.8 52 12.4 69 2.2 ---
2015-10-14 11:57:34 21.2 54 12.4 71 2.2 ---
2015-10-14 11:27:34 18.9 56 12.4 74 2.2 ---
2015-10-14 10:57:34 17.7 57 12.0 71 2.2 ---
2015-10-14 10:27:34 15.7 57 11.8 77 0.0 ---
2015-10-14 09:57:34 12.6 54 11.2 78 0.0 ---
2015-10-14 09:27:34 11.3 55 10.9 75 0.0 ---
2015-10-14 08:57:34 11.1 55 10.1 76 0.0 ---
2015-10-14 08:27:34 11.0 55 9.3 78 0.0 ---
2015-10-14 07:57:34 10.9 55 9.5 74 0.0 ---
2015-10-14 07:27:34 10.9 54 9.1 71 0.0 ---
2015-10-14 06:57:34 10.9 54 9.7 69 0.0 ---
2015-10-14 06:27:34 10.9 54 9.5 74 0.0 ---
2015-10-14 05:57:34 11.0 54 8.5 76 0.0 ---
2015-10-14 05:27:34 11.1 54 9.1 73 0.0 ---
2015-10-14 04:57:34 11.2 54 8.5 77 0.0 ---
2015-10-14 04:27:34 11.3 54 8.2 76 0.0 ---
2015-10-14 03:57:34 11.5 54 8.0 78 0.0 ---
2015-10-14 03:27:34 11.6 54 8.2 78 0.0 ---
2015-10-14 02:57:34 11.8 54 7.8 76 0.0 ---
2015-10-14 02:27:34 12.0 54 8.6 74 0.0 ---
2015-10-14 01:57:34 12.2 55 7.8 75 0.0 ---
2015-10-14 01:27:34 12.4 55 9.0 77 0.0 ---
2015-10-14 00:57:34 12.7 53 8.0 78 0.0 ---
2015-10-14 00:27:34 12.9 53 8.3 75 0.0 ---
2015-10-13 23:57:34 13.2 53 8.6 71 0.0 ---
2015-10-13 23:27:34 13.4 53 9.5 72 0.0 ---
2015-10-13 22:57:34 13.6 53 9.1 69 0.0 ---
2015-10-13 22:27:34 14.0 53 9.3 68 0.0 ---
2015-10-13 21:57:34 14.4 53 9.3 65 0.0 ---
2015-10-13 21:27:34 14.8 54 9.8 70 0.0 ---
2015-10-13 20:57:34 15.2 54 9.5 73 0.0 ---
2015-10-13 20:27:34 15.5 54 9.9 67 0.0 ---
2015-10-13 19:57:34 16.0 54 9.9 66 0.0 ---
2015-10-13 19:27:34 16.6 54 10.0 70 0.0 ---
2015-10-13 18:57:34 17.1 54 10.1 71 0.0 ---
2015-10-13 18:27:34 17.7 52 10.2 68 0.0 ---
2015-10-13 17:57:34 18.2 52 10.5 67 0.0 ---
2015-10-13 17:27:34 18.8 52 11.0 66 0.0 ---
2015-10-13 16:57:34 19.3 52 11.4 65 0.0 ---
2015-10-13 16:27:34 19.9 52 11.4 66 0.0 ---
2015-10-13 15:57:34 20.3 51 11.6 66 0.0 ---
2015-10-13 15:27:34 21.2 53 11.8 61 0.0 ---
2015-10-13 14:57:34 21.4 53 12.0 64 0.0 ---
2015-10-13 14:27:34 21.6 52 12.0 66 0.0 ---
2015-10-13 13:57:34 21.8 50 11.6 71 0.0 ---
2015-10-13 13:27:34 23.2 50 10.9 69 0.0 ---
2015-10-13 12:57:34 24.3 51 12.0 65 0.0 ---
2015-10-13 12:27:34 24.6 53 12.0 69 0.0 ---
2015-10-13 11:57:34 22.7 53 11.6 68 0.9 ---
2015-10-13 11:27:34 19.7 55 11.7 63 0.9 ---
2015-11-11 06:05:20 16.3 66 14.0 80 0.0 ---
2015-11-11 05:35:20 16.3 66 13.9 78 0.0 ---
2015-11-11 05:05:20 16.5 66 14.3 76 0.0 ---
2015-11-11 04:35:20 16.5 66 14.1 79 0.0 ---
2015-11-11 04:05:20 16.5 66 13.9 80 0.0 ---
2015-11-11 03:35:20 16.8 66 13.8 82 0.0 ---
2015-11-11 03:05:20 16.8 66 13.9 80 0.0 ---
2015-11-11 02:35:20 17.0 66 14.1 80 0.0 ---
2015-11-11 02:05:20 17.1 66 14.1 80 0.0 ---
2015-11-11 01:35:20 17.3 66 14.3 80 0.0 ---
2015-11-11 01:05:20 17.3 66 14.3 80 0.0 ---
2015-11-11 00:35:20 17.5 63 14.3 80 0.0 ---
2015-11-11 00:05:20 17.7 63 14.6 78 0.0 ---
2015-11-10 23:35:20 17.9 63 15.0 78 0.0 ---
2015-11-10 23:05:20 18.1 63 15.0 78 0.0 ---
2015-11-10 22:35:20 18.2 63 15.0 78 0.0 ---
2015-11-10 22:05:20 18.4 63 15.0 78 0.0 ---
2015-11-10 21:35:20 18.6 63 15.2 79 0.0 ---
2015-11-10 21:05:20 18.8 63 15.4 79 0.0 ---
2015-11-10 20:35:20 18.9 63 15.4 80 0.0 ---
2015-11-10 20:05:20 19.2 63 15.4 79 0.0 ---
2015-11-10 19:35:20 19.5 63 15.6 80 0.0 ---
2015-11-10 19:05:20 19.8 63 15.4 81 0.0 ---
2015-11-10 18:35:20 20.2 63 15.6 80 0.0 ---
2015-11-10 18:05:20 20.6 63 15.9 79 0.0 ---
2015-11-10 17:35:20 21.0 63 15.9 78 0.0 ---
2015-11-10 17:05:20 21.5 63 15.9 78 0.0 ---
2015-11-10 16:35:20 21.9 63 16.0 75 0.0 ---
2015-11-10 16:05:20 22.6 60 16.4 74 0.0 ---
2015-11-10 15:35:20 23.1 60 16.9 73 0.0 ---
2015-11-10 15:05:20 24.0 61 17.1 73 0.0 ---
2015-11-10 14:35:20 24.3 60 17.4 73 0.0 ---
2015-11-10 14:05:20 24.5 57 17.1 73 0.0 ---
2015-11-10 13:35:20 25.9 60 17.6 69 0.0 ---
2015-11-10 13:05:20 25.8 62 17.1 73 0.0 ---
2015-11-10 12:35:20 25.4 62 17.9 68 0.0 ---
2015-11-10 12:05:20 25.0 62 17.4 73 0.0 ---
2015-11-10 11:35:20 25.1 61 17.4 74 0.0 ---
2015-11-10 11:05:20 25.8 61 17.4 73 0.0 ---
2015-11-10 10:35:20 25.5 59 16.9 74 0.0 ---
2015-11-10 10:05:20 24.3 68 17.1 75 0.0 ---
2015-11-10 09:35:20 19.0 71 15.8 78 0.0 ---
2015-11-10 09:05:20 16.4 68 16.1 79 0.0 ---
2015-11-10 08:35:20 16.1 68 15.6 81 0.0 ---
2015-11-10 08:05:20 16.0 67 15.4 80 0.0 ---
2015-11-10 07:35:20 16.1 67 15.4 80 0.0 ---
2015-11-10 07:05:20 16.0 67 15.6 78 0.0 ---
2015-11-10 06:35:20 16.1 67 15.9 77 0.4 ---
2015-11-10 06:05:20 16.1 67 15.9 77 0.4 ---
2015-11-10 05:35:20 16.0 67 15.9 76 0.4 ---
2015-11-10 05:05:20 16.2 67 15.9 76 0.0 ---
2015-11-10 04:35:20 16.2 66 15.9 76 1.3 ---
2015-11-10 04:05:20 16.2 66 15.9 75 0.4 ---
2015-11-10 03:35:20 16.2 66 15.8 74 0.4 ---
2015-11-10 03:05:20 16.3 66 16.0 74 1.3 ---
2015-11-10 02:35:20 16.2 66 16.0 74 1.3 ---
2015-11-10 02:05:20 16.2 66 16.2 73 0.9 ---
2015-11-10 01:35:20 16.1 66 16.2 73 0.0 ---
2015-11-10 01:05:20 16.1 66 16.2 73 0.0 ---
2015-11-10 00:35:20 16.1 66 16.0 73 0.0 ---
2015-11-10 00:05:20 16.1 65 15.9 74 0.0 ---
2015-11-09 23:35:20 16.1 65 15.8 73 0.0 ---
2015-11-09 23:05:20 16.1 65 15.9 74 0.0 ---
2015-11-09 22:35:20 16.1 65 15.6 74 0.0 ---
2015-11-09 22:05:20 16.1 65 15.4 73 0.0 ---
2015-11-09 21:35:20 16.2 64 15.4 73 0.0 ---
2015-11-09 21:05:20 16.3 64 15.0 74 0.0 ---
2015-11-09 20:35:20 16.5 64 14.8 74 0.0 ---
2015-11-09 20:05:20 16.6 64 14.8 73 0.0 ---
2015-11-09 19:35:20 16.7 64 14.8 74 0.0 ---
2015-11-09 19:05:20 16.9 63 14.6 74 0.0 ---
2015-11-09 18:35:20 17.2 63 14.6 74 0.0 ---
2015-11-09 18:05:20 17.4 62 14.3 74 0.0 ---
2015-11-09 17:35:20 17.9 60 14.3 74 0.0 ---
2015-11-09 17:05:20 18.3 60 13.9 74 0.0 ---
2015-11-09 16:35:20 18.9 59 13.9 74 0.0 ---
2015-11-09 16:05:20 19.6 59 13.7 74 0.0 ---
2015-11-09 15:35:20 20.4 59 13.9 73 0.0 ---
2015-11-09 15:05:20 21.0 60 13.9 73 0.0 ---
2015-11-09 14:35:20 20.7 59 13.9 73 0.0 ---
2015-11-09 14:05:20 21.3 59 13.8 74 0.0 ---
2015-11-09 13:35:20 21.8 59 13.6 73 0.0 ---
2015-11-09 13:05:20 20.1 60 13.4 73 0.0 ---
2015-11-09 12:35:20 17.7 57 13.4 71 0.0 ---
2015-11-09 12:05:20 17.8 56 13.4 69 0.0 ---
2015-11-09 11:35:20 18.4 56 13.0 69 0.0 ---
2015-11-09 11:05:20 19.2 55 12.4 73 0.0 ---
2015-11-09 10:35:20 20.4 54 11.6 73 0.0 ---
2015-11-09 10:05:20 20.4 56 11.6 73 0.0 ---
2015-11-09 09:35:20 19.5 56 10.7 75 0.4 ---
2015-11-09 09:05:20 18.9 55 9.9 78 0.4 ---
2015-11-09 08:35:20 18.9 55 9.8 77 0.4 ---
2015-11-09 08:05:20 19.0 55 9.3 77 0.4 ---
2015-11-09 07:35:20 19.2 55 9.1 75 0.4 ---
2015-11-09 07:05:20 19.2 55 8.8 75 0.4 ---
2015-11-09 06:35:20 19.3 56 8.6 76 0.0 ---
2015-11-09 06:05:20 19.2 56 8.5 77 0.0 ---
2015-11-09 05:35:20 19.2 56 8.3 77 0.0 ---
2015-11-09 05:05:20 19.3 57 8.0 79 0.4 ---
2015-11-09 04:35:20 19.4 57 7.8 78 0.0 ---
2015-11-09 04:05:20 19.5 58 8.0 78 0.0 ---
2015-11-09 03:35:20 19.5 59 8.1 76 0.0 ---
2015-11-09 03:05:20 19.5 59 8.0 78 0.0 ---
2015-11-09 02:35:20 19.5 60 7.8 79 0.0 ---
2015-11-09 02:05:20 19.4 60 8.1 80 0.0 ---
2015-11-09 01:35:20 19.4 61 8.1 81 0.0 ---
2015-11-09 01:05:20 19.2 61 8.3 77 0.0 ---
2015-11-09 00:35:20 19.1 62 8.8 75 0.4 ---
2015-11-09 00:05:20 18.9 62 9.5 74 0.4 ---
2015-11-08 23:35:20 19.0 62 10.7 67 1.8 ---
2015-11-08 23:05:20 19.2 63 11.2 77 1.3 ---
2015-11-08 22:35:20 19.5 64 11.8 74 1.3 ---
2015-11-08 22:05:20 19.5 64 12.5 73 1.8 ---
2015-11-08 21:35:20 19.5 64 13.7 74 1.8 ---
2015-11-08 21:05:20 19.5 64 13.8 74 1.8 ---
2015-11-08 20:35:20 19.5 65 13.9 73 0.4 ---
2015-11-08 20:05:20 19.5 65 14.1 84 0.4 ---
2015-11-08 19:35:20 19.5 65 15.2 85 0.9 ---
2015-11-08 19:05:20 19.5 65 15.2 83 0.4 ---
2015-11-08 18:35:20 19.5 65 15.2 85 0.0 ---
2015-11-08 18:05:20 19.4 65 14.8 87 0.4 ---
2015-11-08 17:35:20 19.3 64 14.8 86 0.0 ---
2015-11-08 17:05:20 19.2 64 14.6 87 0.0 ---
2015-11-08 16:35:20 19.2 64 14.3 87 0.0 ---
2015-11-08 16:05:20 19.1 63 14.3 85 0.0 ---
2015-11-08 15:35:20 18.9 63 13.9 85 0.0 ---
2015-11-08 15:05:20 18.9 62 13.8 84 0.0 ---
2015-11-08 14:35:20 18.9 62 13.8 83 0.0 ---
2015-11-08 14:05:20 18.9 62 13.6 82 0.4 ---
2015-11-08 13:35:20 18.9 61 13.2 83 0.0 ---
2015-11-08 13:05:20 18.9 61 12.5 85 0.0 ---
2015-11-08 12:35:20 18.9 60 12.4 93 0.4 ---
2015-11-08 12:05:20 19.0 60 12.0 97 0.0 ---
2015-11-08 11:35:20 19.2 59 11.6 99 0.0 ---
2015-11-08 11:05:20 19.3 59 10.9 99 0.0 ---
2015-11-08 10:35:20 19.5 59 10.4 99 0.0 ---
2015-11-08 10:05:20 19.8 59 10.5 99 0.0 ---
2015-11-08 09:35:20 20.2 59 10.2 99 0.0 ---
2015-11-08 09:05:20 19.9 59 9.7 99 0.0 ---
2015-11-08 08:35:20 20.1 59 9.0 99 0.0 ---
2015-11-08 08:05:20 20.0 59 8.6 99 0.0 ---
2015-11-08 07:35:20 19.7 59 8.1 99 0.0 ---
2015-11-08 07:05:20 19.6 59 7.5 99 0.0 ---
2015-11-08 06:35:20 19.7 59 7.7 99 0.0 ---
2015-11-08 06:05:20 19.8 60 7.0 99 0.0 ---
2015-11-08 05:35:20 19.7 60 7.0 99 0.0 ---
2015-11-08 05:05:20 19.5 60 6.0 99 0.0 ---
2015-11-08 04:35:20 19.5 61 6.4 99 0.0 ---
2015-11-08 04:05:20 19.5 61 6.3 99 0.0 ---
2015-11-08 03:35:20 19.5 61 7.2 99 0.0 ---
2015-11-08 03:05:20 19.5 61 7.5 95 0.0 ---
2015-11-08 02:35:20 19.5 62 7.4 96 0.0 ---
2015-11-08 02:05:20 19.4 62 7.7 91 0.0 ---
2015-11-08 01:35:20 19.2 62 7.4 93 0.0 ---
2015-11-08 01:05:20 19.2 63 7.2 91 0.0 ---
2015-11-08 00:35:20 19.1 63 8.2 87 0.0 ---
2015-11-08 00:05:20 19.0 63 8.3 88 0.0 ---
2015-11-07 23:35:20 18.9 64 8.3 82 0.0 ---
2015-11-07 23:05:20 18.8 64 9.5 78 0.0 ---
2015-11-07 22:35:20 18.8 64 10.1 78 0.0 ---
2015-11-07 22:05:20 18.8 65 10.9 75 0.9 ---
2015-11-07 21:35:20 18.8 65 11.2 74 1.3 ---
2015-11-07 21:05:20 19.0 65 11.9 72 1.8 ---
2015-11-07 20:35:20 18.9 65 12.4 73 1.8 ---
2015-11-07 20:05:20 18.9 65 13.4 70 2.2 ---
2015-11-07 19:35:20 18.9 65 13.8 67 2.2 ---
2015-11-07 19:05:20 18.9 66 13.7 66 1.8 ---
2015-11-07 18:35:20 18.9 66 14.1 66 1.8 ---
2015-11-07 18:05:20 19.0 66 13.8 69 0.4 ---
2015-11-07 17:35:20 19.2 67 14.0 69 0.4 ---
2015-11-07 17:05:20 19.4 67 14.1 67 0.4 ---
2015-11-07 16:35:20 19.9 68 14.8 65 1.3 ---
2015-11-07 16:05:20 20.4 68 15.6 64 1.3 ---
2015-11-07 15:35:20 20.9 69 16.2 68 1.8 ---
2015-11-07 15:05:20 20.9 70 16.4 68 3.1 ---
2015-11-07 14:35:20 20.6 70 16.9 81 0.4 ---
2015-11-07 14:05:20 19.9 70 16.7 89 0.4 ---
2015-11-07 13:35:20 19.5 70 16.2 90 0.4 ---
2015-11-07 13:05:20 19.5 70 16.4 86 0.9 ---
2015-11-07 12:35:20 19.5 69 16.7 84 0.9 ---
2015-11-07 12:05:20 19.5 69 16.4 86 0.4 ---
2015-11-07 11:35:20 19.5 69 16.2 89 0.4 ---
2015-11-07 11:05:20 19.5 69 15.8 99 0.4 ---
2015-11-07 10:35:20 19.4 69 15.6 99 0.4 ---
2015-11-07 10:05:20 19.2 68 15.4 99 0.4 ---
2015-11-07 09:35:20 18.9 67 14.8 99 0.0 ---
2015-11-07 09:05:20 19.0 67 14.1 99 0.0 ---
2015-11-07 08:35:20 18.9 66 13.8 99 0.0 ---
2015-11-07 08:05:20 18.9 66 13.2 99 0.4 ---
2015-11-07 07:35:20 18.8 66 12.0 99 0.0 ---
2015-11-07 07:05:20 19.0 65 11.7 99 0.0 ---
2015-11-07 06:35:20 18.9 65 11.6 99 0.0 ---
2015-11-07 06:05:20 18.9 65 11.4 99 0.0 ---
2015-11-07 05:35:20 18.9 65 11.0 99 0.0 ---
2015-11-07 05:05:20 18.8 66 10.7 99 0.0 ---
2015-11-07 04:35:20 18.8 66 10.4 99 0.0 ---
2015-11-07 04:05:20 18.8 66 10.2 99 0.0 ---
2015-11-07 03:35:20 18.9 66 10.5 99 0.0 ---
2015-11-07 03:05:20 19.0 66 11.2 99 0.0 ---
2015-11-07 02:35:20 19.1 66 11.4 99 0.0 ---
2015-11-07 02:05:20 19.2 66 11.6 99 0.0 ---
2015-11-07 01:35:20 19.3 67 11.9 98 0.0 ---
2015-11-07 01:05:20 19.3 67 12.0 98 0.0 ---
2015-11-07 00:35:20 19.4 67 11.9 97 0.0 ---
2015-11-07 00:05:20 19.4 67 12.4 96 0.0 ---
2015-11-06 23:35:20 19.4 68 12.4 96 0.0 ---
2015-11-06 23:05:20 19.5 68 12.5 92 0.0 ---
2015-11-06 22:35:20 19.5 68 13.2 92 0.0 ---
2015-11-06 22:05:20 19.5 68 13.6 93 0.0 ---
2015-11-06 21:35:20 19.5 69 13.7 93 0.0 ---
2015-11-06 21:05:20 19.5 69 14.1 95 0.0 ---
2015-11-06 20:35:20 19.5 69 14.6 95 0.0 ---
2015-11-06 20:05:20 19.4 69 15.0 95 0.0 ---
2015-11-06 19:35:20 19.4 69 15.2 95 0.0 ---
2015-11-06 19:05:20 19.4 69 15.6 95 0.0 ---
2015-11-06 18:35:20 19.4 69 15.9 98 0.0 ---
2015-11-06 18:05:20 19.4 68 15.6 99 0.0 ---
2015-11-06 17:35:20 19.4 68 15.4 99 0.0 ---
2015-11-06 17:05:20 19.4 68 15.4 99 0.0 ---
2015-11-06 16:35:20 19.4 68 15.4 99 0.0 ---
2015-11-06 16:05:20 19.4 68 15.2 99 0.0 ---
2015-11-06 15:35:20 19.4 68 15.0 97 0.0 ---
2015-11-06 15:05:20 19.4 67 14.6 95 0.0 ---
2015-11-06 14:35:20 19.4 67 14.6 92 0.0 ---
2015-11-06 14:05:20 19.5 67 14.6 89 0.4 ---
2015-11-06 13:35:20 19.6 67 15.2 87 0.0 ---
2015-11-06 13:05:20 19.6 67 14.6 88 0.0 ---
2015-11-06 12:35:20 19.5 67 13.9 89 0.0 ---
2015-11-06 12:05:20 19.6 67 13.7 88 0.0 ---
2015-11-06 11:35:20 19.6 67 13.9 85 0.0 ---
2015-11-06 11:05:20 19.6 67 14.1 83 0.0 ---
2015-11-06 10:35:20 19.6 67 13.9 82 0.0 ---
2015-11-06 10:05:20 19.6 67 13.9 81 0.0 ---
2015-11-06 09:35:20 19.4 67 13.8 82 0.0 ---
2015-11-06 09:05:20 19.4 67 13.4 82 0.0 ---
2015-11-06 08:35:20 19.3 67 13.2 82 0.0 ---
2015-11-06 08:05:20 19.3 67 13.0 80 0.0 ---
2015-11-06 07:35:20 19.3 67 13.2 81 0.0 ---
2015-11-06 07:05:20 19.2 67 13.2 81 0.0 ---
2015-11-06 06:35:20 19.3 67 13.4 84 0.0 ---
2015-11-06 06:05:20 19.3 67 13.6 83 0.0 ---
2015-11-06 05:35:20 19.3 67 13.8 83 0.0 ---
2015-11-06 05:05:20 19.3 67 14.0 82 0.0 ---
2015-11-06 04:35:20 19.3 67 13.7 90 0.0 ---
2015-11-06 04:05:20 19.3 68 13.7 95 0.0 ---
2015-11-06 03:35:20 19.3 68 14.0 97 0.0 ---
2015-11-06 03:05:20 19.4 68 13.8 97 0.0 ---
2015-11-06 02:35:20 19.3 68 13.8 98 0.0 ---
2015-11-06 02:05:20 19.3 68 13.7 98 0.0 ---
2015-11-06 01:35:20 19.3 68 14.0 99 0.0 ---
2015-11-06 01:05:20 19.3 68 13.6 98 0.0 ---
2015-11-06 00:35:20 19.3 68 13.2 97 0.0 ---
2015-11-06 00:05:20 19.3 68 13.4 97 0.0 ---
2015-11-05 23:35:20 19.4 68 13.6 97 0.0 ---
2015-11-05 23:05:20 19.4 68 13.8 98 0.0 ---
2015-11-05 22:35:20 19.4 68 13.6 98 0.0 ---
2015-11-05 22:05:20 19.4 68 13.4 98 0.0 ---
2015-11-05 21:35:20 19.4 68 13.4 98 0.0 ---
2015-11-05 21:05:20 19.2 68 13.4 98 0.0 ---
2015-11-05 20:35:20 19.2 68 13.2 97 0.0 ---
2015-11-05 20:05:20 19.2 68 13.2 97 0.0 ---
2015-11-05 19:35:20 19.2 68 13.2 96 0.0 ---
2015-11-05 19:05:20 19.2 68 13.2 95 0.0 ---
2015-11-05 18:35:20 19.3 68 13.2 93 0.0 ---
2015-11-05 18:05:20 19.3 68 13.4 92 0.0 ---
2015-11-05 17:35:20 19.4 68 13.6 89 0.0 ---
2015-11-05 17:05:20 19.5 68 13.7 85 0.0 ---
2015-11-05 16:35:20 19.6 68 14.3 84 0.0 ---
2015-11-05 16:05:20 19.6 68 14.6 89 0.0 ---
2015-11-05 15:35:20 19.7 68 14.8 92 0.0 ---
2015-11-05 15:05:20 19.9 68 14.6 93 0.0 ---
2015-11-05 14:35:20 20.2 68 14.6 93 0.0 ---
2015-11-05 14:05:20 20.6 68 14.6 95 0.0 ---
2015-11-05 13:35:20 21.0 69 14.8 97 0.0 ---
2015-11-05 13:05:20 21.6 69 14.8 99 0.0 ---
2015-11-05 12:35:20 21.7 68 14.3 99 0.0 ---
2015-11-05 12:05:20 22.6 66 14.1 99 0.0 ---
2015-11-05 11:35:20 23.7 68 13.9 99 0.0 ---
2015-11-05 11:05:20 24.2 71 13.7 99 0.0 ---
2015-11-05 10:35:20 22.7 72 13.8 99 0.0 ---
2015-11-05 10:05:20 20.6 75 13.6 99 0.0 ---
2015-11-05 09:35:20 17.8 75 13.6 99 0.0 ---
2015-11-05 09:05:20 14.2 72 13.4 99 0.0 ---
2015-11-05 08:35:20 13.6 68 12.5 99 0.0 ---
2015-11-05 08:05:20 13.5 68 12.0 99 0.0 ---
2015-11-05 07:35:20 13.5 68 11.7 99 0.0 ---
2015-11-05 07:05:20 13.5 68 11.6 99 0.0 ---
2015-11-05 06:35:20 13.5 68 11.4 99 0.0 ---
2015-11-05 06:05:20 13.5 68 11.4 99 0.0 ---
2015-11-05 05:35:20 13.5 68 11.4 99 0.0 ---
2015-11-05 05:05:20 13.5 68 11.4 99 0.0 ---
2015-11-05 04:35:20 13.5 68 11.2 99 0.0 ---
2015-11-05 04:05:20 13.6 68 11.2 99 0.0 ---
2015-11-05 03:35:20 13.6 68 10.9 99 0.0 ---
2015-11-05 03:05:20 13.6 68 11.2 99 0.0 ---
2015-11-05 02:35:20 13.6 68 11.4 99 0.0 ---
2015-11-05 02:05:20 13.7 68 11.4 99 0.0 ---
2015-11-05 01:35:20 13.7 68 11.6 99 0.0 ---
2015-11-05 01:05:20 13.7 68 11.4 99 0.0 ---
2015-11-05 00:35:20 13.7 68 11.6 99 0.0 ---
2015-11-05 00:05:20 13.8 68 11.6 99 0.0 ---
2015-11-04 23:35:20 13.8 68 11.6 99 0.0 ---
2015-11-04 23:05:20 13.9 68 11.4 99 0.0 ---
2015-11-04 22:35:20 14.0 68 11.4 99 0.0 ---
2015-11-04 22:05:20 14.0 68 11.2 99 0.0 ---
2015-11-04 21:35:20 14.1 69 11.2 99 0.0 ---
2015-11-04 21:05:20 14.3 69 10.9 99 0.0 ---
2015-11-04 20:35:20 14.3 69 11.0 99 0.0 ---
2015-11-04 20:05:20 14.6 69 11.0 99 0.0 ---
2015-11-04 19:35:20 14.8 69 10.9 99 0.0 ---
2015-11-04 19:05:20 14.9 69 10.5 99 0.0 ---
2015-11-04 18:35:20 15.2 70 10.7 99 0.0 ---
2015-11-04 18:05:20 15.4 70 10.7 99 0.0 ---
2015-11-04 17:35:20 15.6 70 10.7 99 0.0 ---
2015-11-04 17:05:20 15.9 71 10.9 99 0.0 ---
2015-11-04 16:35:20 16.2 71 11.0 99 0.0 ---
2015-11-04 16:05:20 16.5 72 11.4 99 0.0 ---
2015-11-04 15:35:20 16.8 72 11.7 99 0.0 ---
2015-11-04 15:05:20 17.7 72 11.6 99 0.9 ---
2015-11-04 14:35:20 16.8 71 11.6 99 0.0 ---
2015-11-04 14:05:20 16.9 68 11.2 99 0.0 ---
2015-11-04 13:35:20 17.3 68 11.2 99 0.0 ---
2015-11-04 13:05:20 17.8 66 11.0 99 0.0 ---
2015-11-04 12:35:20 18.4 67 10.7 99 0.0 ---
2015-11-04 12:05:20 19.2 67 10.7 99 0.0 ---
2015-11-04 11:35:20 19.6 67 10.4 99 0.0 ---
2015-11-04 11:05:20 20.2 67 10.1 99 0.0 ---
2015-11-04 10:35:20 21.0 69 10.1 99 0.0 ---
2015-11-04 10:05:20 19.1 71 9.9 99 0.0 ---
2015-11-04 09:35:20 15.7 73 9.8 99 0.0 ---
2015-11-04 09:05:20 12.1 68 9.5 99 0.0 ---
2015-11-04 08:35:20 11.7 67 9.3 99 0.0 ---
2015-11-04 08:05:20 11.7 67 9.7 99 0.0 ---
2015-11-04 07:35:20 11.7 67 9.7 99 0.0 ---
2015-11-04 07:05:20 11.7 67 9.8 99 0.0 ---
2015-11-04 06:35:20 11.8 67 9.9 99 0.0 ---
2015-11-04 06:05:20 11.8 67 10.1 99 0.0 ---
2015-11-04 05:35:20 11.8 67 10.4 99 0.0 ---
2015-11-04 05:05:20 11.8 67 10.4 99 0.0 ---
2015-11-04 04:35:20 11.8 67 10.4 99 0.0 ---
2015-11-04 04:05:20 11.8 67 10.5 99 0.0 ---
2015-11-04 03:35:20 11.9 67 10.4 99 0.0 ---
2015-11-04 03:05:20 11.9 67 10.4 99 0.0 ---
2015-11-04 02:35:20 12.0 67 10.2 99 0.0 ---
2015-11-04 02:05:20 11.9 67 10.1 99 0.0 ---
2015-11-04 01:35:20 12.2 67 10.4 99 0.0 ---
2015-11-04 01:05:20 12.2 67 10.1 99 0.0 ---
2015-11-04 00:35:20 12.3 67 10.1 99 0.0 ---
2015-11-04 00:05:20 12.4 67 10.0 99 0.0 ---
2015-11-03 23:35:20 12.6 65 9.3 99 0.0 ---
2015-11-03 23:05:20 12.8 65 9.3 99 0.0 ---
2015-11-03 22:35:20 13.0 65 9.0 99 0.0 ---
2015-11-03 22:05:20 13.2 65 9.8 99 0.0 ---
2015-11-03 21:35:20 13.4 65 9.8 99 0.0 ---
2015-11-03 21:05:20 13.6 65 9.8 99 0.0 ---
2015-11-03 20:35:20 13.8 66 9.8 99 0.0 ---
2015-11-03 20:05:20 14.0 66 9.8 99 0.0 ---
2015-11-03 19:35:20 14.2 66 9.8 98 0.0 ---
2015-11-03 19:05:20 14.6 66 9.7 97 0.0 ---
2015-11-03 18:35:20 15.0 66 9.7 96 0.0 ---
2015-11-03 18:05:20 15.4 66 10.1 95 0.0 ---
2015-11-03 17:35:20 15.9 66 10.1 93 0.0 ---
2015-11-03 17:05:20 16.4 66 9.9 91 0.0 ---
2015-11-03 16:35:20 17.1 65 10.1 90 0.0 ---
2015-11-03 16:05:20 17.9 63 10.1 87 0.0 ---
2015-11-03 15:35:20 18.5 63 10.5 86 0.0 ---
2015-11-03 15:05:20 18.7 67 10.7 85 0.0 ---
2015-11-03 14:35:20 16.9 66 11.0 83 0.0 ---
2015-11-03 14:05:20 16.7 66 11.6 83 0.0 ---
2015-11-03 13:35:20 16.3 65 10.9 84 0.0 ---
2015-11-03 13:05:20 17.7 60 10.5 84 0.0 ---
2015-11-03 12:35:20 20.8 66 10.5 84 0.0 ---
2015-11-03 12:05:20 19.7 68 10.5 85 0.0 ---
2015-11-03 11:35:20 17.4 70 10.5 90 0.0 ---
2015-11-03 11:05:20 15.2 67 --- --- --- ---
2015-11-03 10:35:20 16.1 71 --- --- --- ---
2015-11-03 10:05:20 12.9 71 --- --- --- ---
2015-11-03 09:35:20 11.1 69 --- --- --- ---
2015-11-03 09:05:20 10.4 66 8.6 99 0.0 ---
2015-11-03 08:35:20 10.4 66 8.3 99 0.0 ---
2015-11-03 08:05:20 10.6 66 8.3 99 0.0 ---
2015-11-03 07:35:20 10.5 66 8.2 99 0.0 ---
2015-11-03 07:05:20 10.6 66 8.2 99 0.0 ---
2015-11-03 06:35:20 10.7 66 8.2 99 0.0 ---
2015-11-03 06:05:20 10.8 66 8.2 99 0.0 ---
2015-11-03 05:35:20 10.9 66 8.3 99 0.0 ---
2015-11-03 05:05:20 11.0 66 8.6 99 0.0 ---
2015-11-03 04:35:20 11.0 67 8.6 99 0.0 ---
2015-11-03 04:05:20 11.1 67 9.0 99 0.0 ---
2015-11-03 03:35:20 11.1 67 9.1 99 0.0 ---
2015-11-03 03:05:20 11.2 67 9.0 99 0.0 ---
2015-11-03 02:35:20 11.3 67 8.8 99 0.0 ---
2015-11-03 02:05:20 11.4 67 8.6 99 0.0 ---
2015-11-03 01:35:20 11.6 67 8.5 99 0.0 ---
2015-11-03 01:05:20 11.8 67 8.5 99 0.0 ---
2015-11-03 00:35:20 11.9 67 8.6 99 0.0 ---
2015-11-03 00:05:20 12.1 67 8.8 99 0.0 ---
2015-11-02 23:35:20 12.3 67 9.1 99 0.0 ---
2015-11-02 23:05:20 12.4 68 9.3 99 0.0 ---
2015-11-02 22:35:20 12.6 65 9.7 99 0.0 ---
2015-11-02 22:05:20 12.7 65 9.8 99 0.0 ---
2015-11-02 21:35:20 12.9 65 9.9 99 0.0 ---
2015-11-02 21:05:20 13.0 66 9.9 99 0.0 ---
2015-11-02 20:35:20 13.2 66 10.1 99 0.0 ---
2015-11-02 20:05:20 13.4 66 10.1 99 0.0 ---
2015-11-02 19:35:20 13.7 66 9.9 99 0.0 ---
2015-11-02 19:05:20 14.0 66 9.9 99 0.0 ---
2015-11-02 18:35:20 14.3 66 10.0 99 0.0 ---
2015-11-02 18:05:20 14.5 67 9.8 99 0.0 ---
2015-11-02 17:35:20 15.2 67 9.5 99 0.0 ---
2015-11-02 17:05:20 15.7 67 9.0 99 0.0 ---
2015-11-02 16:35:20 16.3 67 8.8 99 0.0 ---
2015-11-02 16:05:20 17.1 66 8.8 99 0.0 ---
2015-11-02 15:35:20 18.0 64 9.0 99 0.0 ---
2015-11-02 15:05:20 19.5 67 9.5 99 0.0 ---
2015-11-02 14:35:20 20.3 68 9.7 99 0.0 ---
2015-11-02 14:05:20 20.2 71 9.8 99 0.0 ---
2015-11-02 13:35:20 17.6 70 9.9 99 0.0 ---
2015-11-02 13:05:20 15.2 71 10.1 99 0.0 ---
2015-11-02 12:35:20 12.3 71 9.7 99 0.0 ---
2015-11-02 12:05:20 11.5 69 9.5 99 0.0 ---
2015-11-02 11:35:20 11.2 69 9.1 99 0.0 ---
2015-11-02 11:05:20 11.0 70 8.5 99 0.0 ---
2015-11-02 10:35:20 10.7 70 8.2 99 0.0 ---
2015-11-02 10:05:20 10.4 69 7.7 99 0.0 ---
2015-11-02 09:35:20 10.0 66 7.8 99 0.0 ---
2015-11-02 09:05:20 9.9 66 7.4 99 0.0 ---
2015-11-02 08:35:20 9.8 66 7.1 99 0.0 ---
2015-11-02 08:05:20 9.8 66 6.7 99 0.0 ---
2015-11-02 07:35:20 9.9 66 6.3 99 0.0 ---
2015-11-02 07:05:20 10.0 66 6.1 99 0.0 ---
2015-11-02 06:35:20 10.2 66 6.3 99 0.0 ---
2015-11-02 06:05:20 10.4 66 6.3 99 0.0 ---
2015-11-02 05:35:20 10.6 66 6.3 99 0.0 ---
2015-11-02 05:05:20 10.9 66 6.3 99 0.0 ---
2015-11-02 04:35:20 11.1 67 6.3 99 0.0 ---
2015-11-02 04:05:20 11.3 67 6.3 99 0.0 ---
2015-11-02 03:35:20 11.6 67 6.3 99 0.0 ---
2015-11-02 03:05:20 11.9 67 6.1 99 0.0 ---
2015-11-02 02:35:20 12.2 67 6.7 99 0.0 ---
2015-11-02 02:05:20 12.6 65 6.3 99 0.0 ---
2015-11-02 01:35:20 13.1 65 6.0 99 0.0 ---
2015-11-02 01:05:20 13.6 66 6.1 99 0.0 ---
2015-11-02 00:35:20 14.0 66 6.1 99 0.0 ---
2015-11-02 00:05:20 14.5 66 6.4 99 0.0 ---
2015-11-01 23:35:20 15.0 66 6.8 99 0.0 ---
2015-11-01 23:05:20 15.7 67 7.2 99 0.0 ---
2015-11-01 22:35:20 16.2 67 7.4 99 0.0 ---
2015-11-01 22:05:20 16.8 67 8.5 98 0.0 ---
2015-11-01 21:35:20 17.5 66 8.5 96 0.0 ---
2015-11-01 21:05:20 18.1 66 8.5 95 0.0 ---
2015-11-01 20:35:20 18.9 66 9.5 94 0.0 ---
2015-11-01 20:05:20 19.6 67 10.1 93 0.0 ---
2015-11-01 19:35:20 20.3 67 10.1 91 0.0 ---
2015-11-01 19:05:20 21.0 67 10.9 91 0.0 ---
2015-11-01 18:35:20 21.8 68 11.6 93 0.0 ---
2015-11-01 18:05:20 22.8 66 11.6 92 0.0 ---
2015-11-01 17:35:20 23.8 66 11.9 90 0.0 ---
2015-11-01 17:05:20 24.9 66 12.4 87 0.0 ---
2015-11-01 16:35:20 26.1 66 13.4 80 0.0 ---
2015-11-01 16:05:20 27.2 67 14.8 77 0.0 ---
2015-11-01 15:35:20 28.2 65 15.6 72 0.0 ---
2015-11-01 15:05:20 28.6 65 16.0 67 0.0 ---
2015-11-01 14:35:20 28.7 64 16.0 69 0.0 ---
2015-11-01 14:05:20 28.6 64 16.0 70 0.0 ---
2015-11-01 13:35:20 28.4 64 16.9 67 0.0 ---
2015-11-01 13:05:20 28.0 63 16.4 69 0.0 ---
2015-11-01 12:35:20 27.2 65 17.6 69 0.0 ---
2015-11-01 12:05:20 26.3 64 16.2 99 0.0 ---
2015-11-01 11:35:20 25.6 62 14.6 99 0.0 ---
2015-11-01 11:05:20 25.6 58 13.7 99 0.0 ---
2015-11-01 10:35:20 27.4 53 13.4 99 0.0 ---
2015-11-01 10:05:20 19.6 66 12.0 99 0.0 ---
2015-11-01 09:35:20 16.6 68 11.0 99 0.0 ---
2015-11-01 09:05:20 14.3 67 9.9 99 0.0 ---
2015-11-01 08:35:20 12.1 69 9.3 99 0.0 ---
2015-11-01 08:05:20 10.5 69 8.1 99 0.0 ---
2015-11-01 07:35:20 9.7 69 7.0 99 0.0 ---
2015-11-01 07:05:20 9.6 69 7.4 99 0.0 ---
2015-11-01 06:35:20 9.7 69 6.3 99 0.0 ---
2015-11-01 06:05:20 9.8 69 6.8 99 0.0 ---
2015-11-01 05:35:20 10.0 69 7.0 99 0.0 ---
2015-11-01 05:05:20 10.2 69 7.1 99 0.0 ---
2015-11-01 04:35:20 10.4 69 6.7 99 0.0 ---
2015-11-01 04:05:20 10.5 69 6.3 99 0.0 ---
2015-11-01 03:35:20 10.7 69 6.3 99 0.0 ---
2015-11-01 03:05:20 10.9 70 7.8 99 0.0 ---
2015-11-01 02:35:20 11.0 70 7.8 99 0.0 ---
2015-11-01 02:05:20 11.0 70 8.0 99 0.0 ---
2015-11-01 01:35:20 11.2 70 8.6 99 0.0 ---
2015-11-01 01:05:20 11.2 70 9.1 99 0.0 ---
2015-11-01 00:35:20 11.3 70 8.6 99 0.0 ---
2015-11-01 00:05:20 11.5 70 9.0 99 0.0 ---
2015-10-31 23:35:20 11.6 70 9.0 99 0.0 ---
2015-10-31 23:05:20 11.8 70 9.0 99 0.0 ---
2015-10-31 22:35:20 12.0 70 8.6 99 0.0 ---
2015-10-31 22:05:20 12.2 70 8.8 99 0.0 ---
2015-10-31 21:35:20 12.4 71 8.5 99 0.0 ---
2015-10-31 21:05:20 12.7 68 8.3 99 0.0 ---
2015-10-31 20:35:20 13.0 68 8.6 98 0.0 ---
2015-10-31 20:05:20 13.2 69 8.6 97 0.0 ---
2015-10-31 19:35:20 13.6 69 8.8 97 0.0 ---
2015-10-31 19:05:20 13.8 69 9.3 96 0.0 ---
2015-10-31 18:35:20 14.0 69 10.2 95 0.0 ---
2015-10-31 18:05:20 14.3 69 10.1 94 0.0 ---
2015-10-31 17:35:20 14.6 70 10.2 93 0.0 ---
2015-10-31 17:05:20 14.9 70 10.9 91 0.0 ---
2015-10-31 16:35:20 15.2 70 11.4 86 0.0 ---
2015-10-31 16:05:20 15.5 70 12.4 85 0.0 ---
2015-10-31 15:35:20 15.5 70 13.2 79 0.0 ---
2015-10-31 15:05:20 15.3 70 13.7 75 0.0 ---
2015-10-31 14:35:20 15.0 70 14.1 75 0.0 ---
2015-10-31 14:05:20 14.8 70 13.5 75 0.0 ---
2015-10-31 13:35:20 14.4 70 13.9 75 0.0 ---
2015-10-31 13:05:20 14.0 70 13.5 76 0.0 ---
2015-10-31 12:35:20 13.6 69 13.2 77 0.0 ---
2015-10-31 12:05:20 13.2 70 13.2 78 0.0 ---
2015-10-31 11:35:20 12.7 70 12.4 85 0.0 ---
2015-10-31 11:05:20 12.3 72 11.8 90 0.0 ---
2015-10-31 10:35:20 12.1 71 11.6 97 0.0 ---
2015-10-31 10:05:20 11.9 71 11.6 99 0.0 ---
2015-10-31 09:35:20 11.8 71 11.6 99 0.0 ---
2015-10-31 09:05:20 11.7 71 11.4 99 0.0 ---
2015-10-31 08:35:20 11.6 71 11.2 99 0.0 ---
2015-10-31 08:05:20 11.6 70 10.7 99 0.0 ---
2015-10-31 07:35:20 11.5 70 9.9 99 0.0 ---
2015-10-31 07:05:20 11.8 71 8.5 99 0.0 ---
2015-10-31 06:35:20 11.9 71 8.5 99 0.0 ---
2015-10-31 06:05:20 12.1 71 8.5 99 0.0 ---
2015-10-31 05:35:20 12.3 71 8.8 99 0.0 ---
2015-10-31 05:05:20 12.5 69 9.0 99 0.0 ---
2015-10-31 04:35:20 12.7 69 9.3 98 0.0 ---
2015-10-31 04:05:20 12.9 69 9.5 97 0.0 ---
2015-10-31 03:35:20 13.2 69 9.8 95 0.0 ---
2015-10-31 03:05:20 13.3 70 10.1 93 0.0 ---
2015-10-31 02:35:20 13.5 70 10.7 92 0.0 ---
2015-10-31 02:05:20 13.4 70 11.4 91 0.0 ---
2015-10-31 01:35:20 13.7 70 11.8 90 0.0 ---
2015-10-31 01:05:20 13.8 70 12.2 90 0.0 ---
2015-10-31 00:35:20 13.8 70 12.4 89 0.0 ---
2015-10-31 00:05:20 14.0 70 12.4 88 0.0 ---
2015-10-30 23:35:20 14.1 70 12.4 88 0.0 ---
2015-10-30 23:05:20 14.1 70 12.4 84 0.0 ---
2015-10-30 22:35:20 14.2 71 13.0 78 0.0 ---
2015-10-30 22:05:20 14.3 71 13.4 76 0.0 ---
2015-10-30 21:35:20 14.4 71 13.4 74 0.0 ---
2015-10-30 21:05:20 14.4 71 13.4 75 0.0 ---
2015-10-30 20:35:20 14.6 71 13.4 77 0.0 ---
2015-10-30 20:05:20 14.6 71 13.2 79 0.0 ---
2015-10-30 19:35:20 14.7 71 13.2 80 0.0 ---
2015-10-30 19:05:20 14.8 71 13.4 83 0.0 ---
2015-10-30 18:35:20 14.9 72 13.2 84 0.0 ---
2015-10-30 18:05:20 15.0 72 13.2 85 0.0 ---
2015-10-30 17:35:20 15.1 72 13.6 84 0.0 ---
2015-10-30 17:05:20 15.1 72 13.9 84 0.0 ---
2015-10-30 16:35:20 15.2 72 14.3 85 0.0 ---
2015-10-30 16:05:20 15.1 72 14.8 85 0.0 ---
2015-10-30 15:35:20 15.1 72 15.0 85 0.0 ---
2015-10-30 15:05:20 15.1 72 15.2 86 0.0 ---
2015-10-30 14:35:20 14.9 72 15.0 87 0.0 ---
2015-10-30 14:05:20 14.8 72 15.0 88 0.0 ---
2015-10-30 13:35:20 14.6 72 14.8 88 0.0 ---
2015-10-30 13:05:20 14.5 72 14.6 88 0.0 ---
2015-10-30 12:35:20 14.4 72 14.3 91 0.0 ---
2015-10-30 12:05:20 14.2 72 14.1 94 0.0 ---
2015-10-30 11:35:20 14.1 72 13.9 97 0.0 ---
2015-10-30 11:05:20 14.0 72 13.5 98 0.0 ---
2015-10-30 10:35:20 13.8 71 13.6 99 0.0 ---
2015-10-30 10:05:20 13.7 71 13.4 98 0.0 ---
2015-10-30 09:35:20 13.6 71 13.2 98 0.0 ---
2015-10-30 09:05:20 13.5 70 13.2 98 0.0 ---
2015-10-30 08:35:20 13.4 69 13.0 97 0.0 ---
2015-10-30 08:05:20 13.3 69 13.0 97 0.0 ---
2015-10-30 07:35:20 13.3 69 13.0 97 0.0 ---
2015-10-30 07:05:20 13.2 69 13.0 98 0.0 ---
2015-10-30 06:35:20 13.2 69 13.0 97 0.0 ---
2015-10-30 06:05:20 13.2 68 12.4 99 0.0 ---
2015-10-30 05:35:20 13.2 68 11.8 98 0.0 ---
2015-10-30 05:05:20 13.3 68 11.9 97 0.0 ---
2015-10-30 04:35:20 13.4 68 11.9 96 0.0 ---
2015-10-30 04:05:20 13.6 68 11.7 95 0.0 ---
2015-10-30 03:35:20 13.7 68 11.7 94 0.0 ---
2015-10-30 03:05:20 13.8 68 11.7 93 0.0 ---
2015-10-30 02:35:20 14.0 69 11.7 93 0.0 ---
2015-10-30 02:05:20 14.1 69 11.7 92 0.0 ---
2015-10-30 01:35:20 14.3 69 11.7 93 0.0 ---
2015-10-30 01:05:20 14.4 69 12.0 95 0.0 ---
2015-10-30 00:35:20 14.5 69 12.4 95 0.0 ---
2015-10-30 00:05:20 14.6 69 13.4 89 0.0 ---
2015-10-29 23:35:20 14.6 70 13.6 88 0.0 ---
2015-10-29 23:05:20 14.7 70 13.6 88 0.0 ---
2015-10-29 22:35:20 14.7 69 13.6 89 0.0 ---
2015-10-29 22:05:20 14.8 69 13.6 89 0.0 ---
2015-10-29 21:35:20 14.9 69 13.6 89 0.0 ---
2015-10-29 21:05:20 15.0 69 13.8 89 0.0 ---
2015-10-29 20:35:20 15.1 69 13.6 89 0.0 ---
2015-10-29 20:05:20 15.2 69 13.6 90 0.0 ---
2015-10-29 19:35:20 15.4 68 13.6 89 0.0 ---
2015-10-29 19:05:20 15.5 68 13.7 87 0.0 ---
2015-10-29 18:35:20 15.6 68 13.8 88 0.0 ---
2015-10-29 18:05:20 15.9 68 13.6 88 0.0 ---
2015-10-29 17:35:20 16.0 68 13.7 86 0.0 ---
2015-10-29 17:05:20 16.2 68 13.7 87 0.0 ---
2015-10-29 16:35:20 16.5 68 13.8 88 0.0 ---
2015-10-29 16:05:20 16.8 68 13.8 87 0.0 ---
2015-10-29 15:35:20 17.0 67 13.9 85 0.0 ---
2015-10-29 15:05:20 17.4 67 13.9 86 0.0 ---
2015-10-29 14:35:20 17.7 65 13.9 83 0.0 ---
2015-10-29 14:05:20 18.0 65 14.6 80 0.4 ---
2015-10-29 13:35:20 18.3 64 14.3 80 0.0 ---
2015-10-29 13:05:20 18.7 64 14.1 81 0.0 ---
2015-10-29 12:35:20 19.1 64 14.1 80 0.0 ---
2015-10-29 12:05:20 19.5 64 13.9 81 0.4 ---
2015-10-29 11:35:20 20.0 64 13.6 80 0.0 ---
2015-10-29 11:05:20 21.0 62 13.7 78 0.0 ---
2015-10-29 10:35:20 21.0 61 13.8 82 0.0 ---
2015-10-29 10:05:20 18.3 64 12.4 94 0.0 ---
2015-10-29 09:35:20 18.0 65 12.2 99 0.0 ---
2015-10-29 09:05:20 16.3 67 11.7 99 0.0 ---
2015-10-29 08:35:20 14.1 67 11.2 99 0.0 ---
2015-10-29 08:05:20 12.0 68 11.2 99 0.0 ---
2015-10-29 07:35:20 10.4 68 10.0 99 0.0 ---
2015-10-29 07:05:20 10.1 67 10.0 99 0.0 ---
2015-10-29 06:35:20 10.0 67 9.7 99 0.0 ---
2015-10-29 06:05:20 10.0 67 9.7 99 0.0 ---
2015-10-29 05:35:20 10.0 67 9.8 99 0.0 ---
2015-10-29 05:05:20 10.0 67 9.5 99 0.0 ---
2015-10-29 04:35:20 10.0 67 9.1 99 0.0 ---
2015-10-29 04:05:20 10.0 66 9.1 99 0.0 ---
2015-10-29 03:35:20 10.1 66 8.6 99 0.0 ---
2015-10-29 03:05:20 10.2 66 8.5 99 0.0 ---
2015-10-29 02:35:20 10.3 66 8.1 99 0.0 ---
2015-10-29 02:05:20 10.5 66 8.0 99 0.0 ---
2015-10-29 01:35:20 10.6 66 8.0 99 0.0 ---
2015-10-29 01:05:20 10.8 66 8.0 99 0.0 ---
2015-10-29 00:35:20 10.9 66 7.8 99 0.0 ---
2015-10-29 00:05:20 11.1 66 8.0 99 0.0 ---
2015-10-28 23:35:20 11.3 66 8.0 99 0.0 ---
2015-10-28 23:05:20 11.5 67 8.1 99 0.0 ---
2015-10-28 22:35:20 11.7 67 8.1 99 0.0 ---
2015-10-28 22:05:20 11.9 67 8.6 99 0.0 ---
2015-10-28 21:35:20 12.0 67 8.5 99 0.0 ---
2015-10-28 21:05:20 12.4 67 8.6 99 0.0 ---
2015-10-28 20:35:20 12.6 65 9.1 99 0.0 ---
2015-10-28 20:05:20 12.8 65 9.7 99 0.0 ---
2015-10-28 19:35:20 12.9 65 9.7 99 0.0 ---
2015-10-28 19:05:20 13.1 65 9.9 99 0.0 ---
2015-10-28 18:35:20 13.3 65 10.2 99 0.0 ---
2015-10-28 18:05:20 13.4 65 10.2 99 0.0 ---
2015-10-28 17:35:20 13.6 66 11.0 99 0.0 ---
2015-10-28 17:05:20 13.8 65 11.7 99 0.0 ---
2015-10-28 16:35:20 13.8 65 12.0 99 0.0 ---
2015-10-28 16:05:20 13.8 65 12.5 99 0.0 ---
2015-10-28 15:35:20 13.7 65 13.2 99 0.0 ---
2015-10-28 15:05:20 13.5 65 13.4 99 0.0 ---
2015-10-28 14:35:20 13.3 65 13.2 99 0.0 ---
2015-10-28 14:05:20 13.1 65 13.2 99 0.0 ---
2015-10-28 13:35:20 12.9 65 13.2 99 0.0 ---
2015-10-28 13:05:20 12.7 66 13.0 99 0.0 ---
2015-10-28 12:35:20 12.6 66 13.2 99 0.0 ---
2015-10-28 12:05:20 12.5 65 13.4 99 0.0 ---
2015-10-28 11:35:20 12.1 68 13.4 99 0.0 ---
2015-10-28 11:05:20 11.9 67 12.5 99 0.0 ---
2015-10-28 10:35:20 11.6 67 12.4 99 0.0 ---
2015-10-28 10:05:20 11.3 66 12.5 99 0.0 ---
2015-10-28 09:35:20 11.1 66 12.4 99 0.0 ---
2015-10-28 09:05:20 10.9 65 12.2 99 0.0 ---
2015-10-28 08:35:20 10.8 65 11.2 99 0.0 ---
2015-10-28 08:05:20 10.8 65 10.2 99 0.0 ---
2015-10-28 07:35:20 10.7 65 9.8 99 0.0 ---
2015-10-28 07:05:20 10.7 65 9.9 99 0.0 ---
2015-10-28 06:35:20 10.7 65 9.8 99 0.0 ---
2015-10-28 06:05:20 10.7 65 9.7 99 0.0 ---
2015-10-28 05:35:20 10.7 65 9.5 99 0.0 ---
2015-10-28 05:05:20 10.8 65 9.5 99 0.0 ---
2015-10-28 04:35:20 10.8 65 9.1 99 0.0 ---
2015-10-28 04:05:20 10.9 65 9.0 99 0.0 ---
2015-10-28 03:35:20 11.0 65 8.8 99 0.0 ---
2015-10-28 03:05:20 11.1 65 8.6 99 0.0 ---
2015-10-28 02:35:20 11.2 65 8.5 99 0.0 ---
2015-10-28 02:05:20 11.4 65 8.3 99 0.0 ---
2015-10-28 01:35:20 11.5 65 8.3 99 0.0 ---
2015-10-28 01:05:20 11.6 66 8.3 99 0.0 ---
2015-10-28 00:35:20 11.8 66 8.5 99 0.0 ---
2015-10-28 00:05:20 12.0 66 8.1 99 0.0 ---
2015-10-27 23:35:20 12.2 66 9.5 99 0.0 ---
2015-10-27 23:05:20 12.3 66 9.5 99 0.0 ---
2015-10-27 22:35:20 12.5 64 9.7 99 0.0 ---
2015-10-27 22:05:20 12.7 64 9.8 99 0.0 ---
2015-10-27 21:35:20 12.9 64 9.8 99 0.0 ---
2015-10-27 21:05:20 13.1 64 9.9 99 0.0 ---
2015-10-27 20:35:20 13.3 64 10.4 99 0.0 ---
2015-10-27 20:05:20 13.5 65 10.5 99 0.0 ---
2015-10-27 19:35:20 13.6 65 10.7 99 0.0 ---
2015-10-27 19:05:20 13.8 65 11.0 98 0.0 ---
2015-10-27 18:35:20 14.0 65 11.4 98 0.0 ---
2015-10-27 18:05:20 14.1 65 11.7 96 0.0 ---
2015-10-27 17:35:20 14.3 65 11.6 94 0.0 ---
2015-10-27 17:05:20 14.4 65 12.4 91 0.0 ---
2015-10-27 16:35:20 14.5 66 13.4 87 0.0 ---
2015-10-27 16:05:20 14.5 66 13.5 87 0.0 ---
2015-10-27 15:35:20 14.4 66 13.7 86 0.0 ---
2015-10-27 15:05:20 14.3 66 14.1 87 0.0 ---
2015-10-27 14:35:20 14.1 65 14.1 90 0.0 ---
2015-10-27 14:05:20 13.9 65 13.9 94 0.0 ---
2015-10-27 13:35:20 13.6 65 13.8 98 0.0 ---
2015-10-27 13:05:20 13.4 65 13.6 99 0.0 ---
2015-10-27 12:35:20 13.0 65 13.5 99 0.0 ---
2015-10-27 12:05:20 12.6 65 13.8 99 0.0 ---
2015-10-27 11:35:20 12.1 67 12.4 99 0.0 ---
2015-10-27 11:05:20 11.7 66 12.4 99 0.0 ---
2015-10-27 10:35:20 11.5 66 12.2 99 0.0 ---
2015-10-27 10:05:20 11.2 65 12.0 99 0.0 ---
2015-10-27 09:35:20 11.0 64 11.6 99 0.0 ---
2015-10-27 09:05:20 10.7 64 11.7 99 0.0 ---
2015-10-27 08:35:20 10.7 64 11.2 99 0.0 ---
2015-10-27 08:05:20 10.5 63 10.7 99 0.0 ---
2015-10-27 07:35:20 10.5 63 10.4 99 0.0 ---
2015-10-27 07:05:20 10.4 63 9.7 99 0.0 ---
2015-10-27 06:35:20 10.4 63 8.5 99 0.0 ---
2015-10-27 06:05:20 10.5 63 8.0 99 0.0 ---
2015-10-27 05:35:20 10.5 63 8.3 99 0.0 ---
2015-10-27 05:05:20 10.6 63 7.5 99 0.0 ---
2015-10-27 04:35:20 10.8 63 8.0 99 0.0 ---
2015-10-27 04:05:20 11.0 63 6.8 99 0.0 ---
2015-10-27 03:35:20 11.3 63 6.0 99 0.0 ---
2015-10-27 03:05:20 11.6 63 6.3 99 0.0 ---
2015-10-27 02:35:20 11.9 64 6.3 99 0.0 ---
2015-10-27 02:05:20 12.2 64 7.7 99 0.0 ---
2015-10-27 01:35:20 12.5 62 8.3 99 0.0 ---
2015-10-27 01:05:20 12.7 62 7.8 99 0.0 ---
2015-10-27 00:35:20 13.0 62 8.5 99 0.0 ---
2015-10-27 00:05:20 13.3 62 7.8 99 0.0 ---
2015-10-26 23:35:20 13.6 62 8.5 99 0.0 ---
2015-10-26 23:05:20 14.0 63 8.5 99 0.0 ---
2015-10-26 22:35:20 14.5 63 9.3 98 0.0 ---
2015-10-26 22:05:20 14.8 63 9.5 95 0.0 ---
2015-10-26 21:35:20 15.3 63 10.0 94 0.0 ---
2015-10-26 21:05:20 15.6 63 10.7 93 0.0 ---
2015-10-26 20:35:20 16.0 63 11.6 95 0.0 ---
2015-10-26 20:05:20 16.5 63 11.4 95 0.0 ---
2015-10-26 19:35:20 17.0 63 11.0 95 0.0 ---
2015-10-26 19:05:20 17.7 61 11.0 94 0.0 ---
2015-10-26 18:35:20 18.3 61 11.2 94 0.0 ---
2015-10-26 18:05:20 18.9 62 11.4 92 0.0 ---
2015-10-26 17:35:20 19.7 62 11.7 91 0.0 ---
2015-10-26 17:05:20 20.6 62 11.6 88 0.0 ---
2015-10-26 16:35:20 21.6 62 12.2 83 0.0 ---
2015-10-26 16:05:20 22.4 62 13.2 75 0.0 ---
2015-10-26 15:35:20 23.1 60 13.7 72 0.0 ---
2015-10-26 15:05:20 23.2 60 14.6 68 0.0 ---
2015-10-26 14:35:20 23.2 60 14.6 68 0.0 ---
2015-10-26 14:05:20 22.7 60 14.3 67 0.0 ---
2015-10-26 13:35:20 22.0 62 14.1 65 0.0 ---
2015-10-26 13:05:20 20.7 62 13.7 66 0.0 ---
2015-10-26 12:35:20 19.3 61 13.9 66 0.0 ---
2015-10-26 12:05:20 17.2 63 14.1 69 0.0 ---
2015-10-26 11:35:20 15.7 63 13.4 71 0.0 ---
2015-10-26 11:05:20 14.8 62 13.4 71 0.0 ---
2015-10-26 10:35:20 13.0 62 13.4 74 0.0 ---
2015-10-26 10:05:20 11.0 64 12.4 88 0.0 ---
2015-10-26 09:35:20 9.1 63 11.6 99 0.0 ---
2015-10-26 09:05:20 8.4 63 10.7 99 0.0 ---
2015-10-26 08:35:20 8.2 62 9.7 99 0.0 ---
2015-10-26 08:05:20 7.9 61 9.0 99 0.0 ---
2015-10-26 07:35:20 7.8 61 8.0 99 0.0 ---
2015-10-26 07:05:20 7.7 61 7.0 99 0.0 ---
2015-10-26 06:35:20 7.8 61 6.3 99 0.0 ---
2015-10-26 06:05:20 7.9 61 5.6 99 0.0 ---
2015-10-26 05:35:20 8.0 61 4.7 99 0.0 ---
2015-10-26 05:05:20 8.2 61 5.0 99 0.0 ---
2015-10-26 04:35:20 8.3 61 4.6 99 0.0 ---
2015-10-26 04:05:20 8.5 61 4.9 99 0.0 ---
2015-10-26 03:35:20 8.8 61 5.0 99 0.0 ---
2015-10-26 03:05:20 9.0 61 4.6 99 0.0 ---
2015-10-26 02:35:20 9.2 61 4.9 98 0.0 ---
2015-10-26 02:05:20 9.5 62 4.6 96 0.0 ---
2015-10-26 01:35:20 9.8 62 3.9 94 0.0 ---
2015-10-26 01:05:20 10.0 62 4.8 94 0.0 ---
2015-10-26 00:35:20 10.3 62 4.9 93 0.0 ---
2015-10-26 00:05:20 10.6 62 5.6 93 0.0 ---
2015-10-25 23:35:20 11.0 62 6.0 92 0.0 ---
2015-10-25 23:05:20 11.3 63 6.1 89 0.0 ---
2015-10-25 22:35:20 11.6 63 6.3 87 0.0 ---
2015-10-25 22:05:20 12.0 63 7.2 86 0.0 ---
2015-10-25 21:35:20 12.4 63 7.4 87 0.0 ---
2015-10-25 21:05:20 12.8 61 7.2 88 0.0 ---
2015-10-25 20:35:20 13.1 61 7.0 88 0.0 ---
2015-10-25 20:05:20 13.7 61 7.1 86 0.0 ---
2015-10-25 19:35:20 14.1 62 7.5 81 0.0 ---
2015-10-25 19:05:20 14.6 62 8.0 81 0.0 ---
2015-10-25 18:35:20 15.2 62 8.0 83 0.0 ---
2015-10-25 18:05:20 15.8 62 8.0 83 0.0 ---
2015-10-25 17:35:20 16.5 62 8.3 84 0.0 ---
2015-10-25 17:05:20 17.1 63 8.8 82 0.0 ---
2015-10-25 16:35:20 17.9 60 9.3 78 0.0 ---
2015-10-25 16:05:20 18.7 61 9.9 76 0.0 ---
2015-10-25 15:35:20 19.4 61 10.5 75 0.0 ---
2015-10-25 15:05:20 20.1 61 11.0 71 0.0 ---
2015-10-25 14:35:20 20.8 61 11.7 68 0.0 ---
2015-10-25 14:05:20 21.1 61 12.0 65 0.0 ---
2015-10-25 13:35:20 20.6 60 12.2 65 0.0 ---
2015-10-25 13:05:20 19.9 60 11.6 67 0.0 ---
2015-10-25 12:35:20 19.1 59 11.4 69 0.0 ---
2015-10-25 12:05:20 18.2 59 10.9 69 0.0 ---
2015-10-25 11:35:20 17.8 59 10.5 70 0.0 ---
2015-10-25 11:05:20 17.2 60 10.2 71 0.0 ---
2015-10-25 10:35:20 16.9 60 9.3 73 0.0 ---
2015-10-25 10:05:20 15.5 61 8.8 74 0.0 ---
2015-10-25 09:35:20 13.3 61 7.7 78 0.0 ---
2015-10-25 09:05:20 10.7 63 6.3 83 0.0 ---
2015-10-25 08:35:20 8.8 62 6.0 83 0.0 ---
2015-10-25 08:05:20 7.5 61 5.5 85 0.0 ---
2015-10-25 07:35:20 7.1 64 5.3 87 0.0 ---
2015-10-25 07:05:20 7.0 64 4.6 89 0.0 ---
2015-10-25 06:35:20 7.1 64 5.1 89 0.0 ---
2015-10-25 06:05:20 7.2 64 5.1 85 0.0 ---
2015-10-25 05:35:20 7.4 64 5.6 86 0.0 ---
2015-10-25 05:05:20 7.5 62 4.7 86 0.0 ---
2015-10-25 04:35:20 7.6 62 5.4 85 0.0 ---
2015-10-25 04:05:20 7.8 62 6.3 83 0.0 ---
2015-10-25 03:35:20 7.9 62 6.3 81 0.4 ---
2015-10-25 03:05:20 8.1 62 6.3 81 0.4 ---
2015-10-25 02:35:20 8.3 62 6.3 80 1.3 ---
2015-10-25 02:05:20 8.4 62 6.7 79 1.3 ---
2015-10-25 01:35:20 8.6 62 6.3 79 0.9 ---
2015-10-25 01:05:20 8.9 62 5.5 84 0.0 ---
2015-10-25 01:35:20 9.1 63 6.1 83 0.0 ---
2015-10-25 01:05:20 9.3 63 6.3 83 0.4 ---
2015-10-25 00:35:20 9.5 63 6.3 82 0.4 ---
2015-10-25 00:05:20 9.8 63 7.0 81 0.0 ---
2015-10-24 23:35:20 10.1 63 7.2 81 0.9 ---
2015-10-24 23:05:20 10.3 64 7.0 84 0.9 ---
2015-10-24 22:35:20 10.6 64 7.1 83 0.0 ---
2015-10-24 22:05:20 10.9 64 7.0 85 0.0 ---
2015-10-24 21:35:20 11.3 64 7.2 84 0.0 ---
2015-10-24 21:05:20 11.6 64 8.0 80 0.4 ---
2015-10-24 20:35:20 11.9 65 8.2 80 0.9 ---
2015-10-24 20:05:20 12.2 65 8.5 79 0.4 ---
2015-10-24 19:35:20 12.5 63 9.3 78 0.4 ---
2015-10-24 19:05:20 12.7 63 10.0 80 0.9 ---
2015-10-24 18:35:20 13.0 63 10.1 79 0.9 ---
2015-10-24 18:05:20 13.3 63 10.1 80 0.9 ---
2015-10-24 17:35:20 13.4 64 10.4 78 1.8 ---
2015-10-24 17:05:20 13.6 64 10.5 81 1.3 ---
2015-10-24 16:35:20 13.8 64 10.9 79 0.9 ---
2015-10-24 16:05:20 14.0 64 11.0 80 1.3 ---
2015-10-24 15:35:20 14.1 64 11.2 81 0.9 ---
2015-10-24 15:05:20 14.2 64 11.0 83 0.9 ---
2015-10-24 14:35:20 14.3 64 12.4 91 0.0 ---
2015-10-24 14:05:20 14.3 64 12.4 91 0.0 ---
2015-10-24 13:35:20 14.4 64 12.4 91 0.0 ---
2015-10-24 13:05:20 14.5 64 12.4 91 0.0 ---
2015-10-24 12:35:20 14.4 64 12.2 90 0.0 ---
2015-10-24 12:05:20 14.3 63 12.4 87 0.0 ---
2015-10-24 11:35:20 14.2 63 12.4 81 0.0 ---
2015-10-24 11:05:20 13.8 63 12.5 75 0.0 ---
2015-10-24 10:35:20 12.6 62 12.0 80 0.0 ---
2015-10-24 10:05:20 12.3 64 11.6 82 0.0 ---
2015-10-24 09:35:20 11.9 64 11.4 82 0.0 ---
2015-10-24 09:05:20 11.6 64 10.9 85 0.0 ---
2015-10-24 08:35:20 11.4 64 10.1 84 0.0 ---
2015-10-24 08:05:20 11.4 63 9.7 82 0.0 ---
2015-10-24 07:35:20 11.5 63 9.8 82 0.0 ---
2015-10-24 07:05:20 11.5 63 9.3 83 0.0 ---
2015-10-24 06:35:20 11.6 63 9.5 82 0.0 ---
2015-10-24 06:05:20 11.7 63 9.7 82 0.0 ---
2015-10-24 05:35:20 11.7 63 9.8 82 0.0 ---
2015-10-24 05:05:20 11.8 63 9.8 82 0.0 ---
2015-10-24 04:35:20 11.9 63 9.7 83 0.0 ---
2015-10-24 04:05:20 12.0 63 9.5 84 0.0 ---
2015-10-24 03:35:20 12.1 64 9.5 84 0.0 ---
2015-10-24 03:05:20 12.2 64 9.8 83 0.0 ---
2015-10-24 02:35:20 12.3 64 9.8 83 0.0 ---
2015-10-24 02:05:20 12.4 64 9.9 80 0.0 ---
2015-10-24 01:35:20 12.4 64 10.1 79 0.0 ---
2015-10-24 01:05:20 12.5 61 10.2 79 0.0 ---
2015-10-24 00:35:20 12.6 61 10.1 78 0.0 ---
2015-10-24 00:05:20 12.7 61 10.4 77 0.0 ---
2015-10-23 23:35:20 12.8 61 10.7 76 0.0 ---
2015-10-23 23:05:20 12.8 61 10.7 76 0.0 ---
2015-10-23 22:35:20 12.9 61 10.7 75 0.0 ---
2015-10-23 22:05:20 13.0 61 10.5 75 0.0 ---
2015-10-23 21:35:20 13.2 61 10.5 74 0.0 ---
2015-10-23 21:05:20 13.3 61 10.7 72 0.0 ---
2015-10-23 20:35:20 13.4 61 10.7 71 0.0 ---
2015-10-23 20:05:20 13.6 61 10.5 70 0.0 ---
2015-10-23 19:35:20 13.8 61 10.5 70 0.0 ---
2015-10-23 19:05:20 14.0 62 10.5 70 0.0 ---
2015-10-23 18:35:20 14.1 62 10.9 69 0.0 ---
2015-10-23 18:05:20 14.3 62 11.2 66 0.0 ---
2015-10-23 17:35:20 14.6 62 11.6 65 0.0 ---
2015-10-23 17:05:20 14.6 62 11.8 67 0.0 ---
2015-10-23 16:35:20 14.8 62 12.2 63 0.0 ---
2015-10-23 16:05:20 14.9 62 12.4 64 0.0 ---
2015-10-23 15:35:20 14.9 62 12.5 63 0.0 ---
2015-10-23 15:05:20 14.8 62 12.5 63 0.0 ---
2015-10-23 14:35:20 14.6 62 12.5 64 0.0 ---
2015-10-23 14:05:20 14.6 61 12.5 63 0.0 ---
2015-10-23 13:35:20 14.3 61 13.0 63 0.0 ---
2015-10-23 13:05:20 14.0 61 13.0 64 0.0 ---
2015-10-23 12:35:20 13.6 61 12.5 66 0.0 ---
2015-10-23 12:05:20 12.8 60 12.2 67 0.0 ---
2015-10-23 11:35:20 11.8 62 11.8 68 0.0 ---
2015-10-23 11:05:20 10.6 62 11.2 72 0.0 ---
2015-10-23 10:35:20 9.9 62 10.5 76 0.0 ---
2015-10-23 10:05:20 9.2 61 8.8 82 0.0 ---
2015-10-23 09:35:20 8.9 61 7.7 88 0.0 ---
2015-10-23 09:05:20 8.8 61 6.7 96 0.0 ---
2015-10-23 08:35:20 8.7 61 6.1 99 0.0 ---
2015-10-23 08:05:20 8.8 61 5.3 99 0.0 ---
2015-10-23 07:35:20 8.9 61 4.6 99 0.0 ---
2015-10-23 07:05:20 9.1 61 4.7 99 0.0 ---
2015-10-23 06:35:20 9.3 61 4.8 99 0.0 ---
2015-10-23 06:05:20 9.4 61 5.1 99 0.0 ---
2015-10-23 05:35:20 9.6 61 4.7 99 0.0 ---
2015-10-23 05:05:20 9.7 61 5.0 99 0.0 ---
2015-10-23 04:35:20 10.2 62 4.7 99 0.0 ---
2015-10-23 04:05:20 10.4 62 5.0 98 0.0 ---
2015-10-23 03:35:20 10.7 62 5.1 97 0.0 ---
2015-10-23 03:05:20 11.0 62 5.0 95 0.0 ---
2015-10-23 02:35:20 11.3 62 4.5 93 0.0 ---
2015-10-23 02:05:20 11.7 63 4.9 92 0.0 ---
2015-10-23 01:35:20 12.1 63 4.9 90 0.0 ---
2015-10-23 01:05:20 12.5 61 5.1 89 0.0 ---
2015-10-23 00:35:20 12.9 61 5.6 88 0.0 ---
2015-10-23 00:05:20 13.3 61 6.0 87 0.0 ---
2015-10-22 23:35:20 13.8 62 6.4 86 0.0 ---
2015-10-22 23:05:20 14.1 62 6.3 84 0.0 ---
2015-10-22 22:35:20 14.7 62 6.8 83 0.0 ---
2015-10-22 22:05:20 15.2 63 7.2 83 0.4 ---
2015-10-22 21:35:20 15.8 63 8.0 74 0.0 ---
2015-10-22 21:05:20 16.4 63 8.6 71 0.9 ---
2015-10-22 20:35:20 17.0 64 9.0 70 0.0 ---
2015-10-22 20:05:20 17.8 62 9.3 69 0.0 ---
2015-10-22 19:35:20 18.5 62 10.0 68 0.0 ---
2015-10-22 19:05:20 19.3 62 10.2 68 0.4 ---
2015-10-22 18:35:20 20.2 62 10.9 66 1.3 ---
2015-10-22 18:05:20 21.1 62 11.2 66 1.3 ---
2015-10-22 17:35:20 21.9 62 12.2 62 1.3 ---
2015-10-22 17:05:20 22.7 61 13.2 59 1.8 ---
2015-10-22 16:35:20 23.6 61 13.8 59 2.2 ---
2015-10-22 16:05:20 23.9 61 13.7 58 2.6 ---
2015-10-22 15:35:20 24.0 61 14.1 58 1.8 ---
2015-10-22 15:05:20 24.0 62 13.7 60 0.9 ---
2015-10-22 14:35:20 24.0 62 13.9 59 1.3 ---
2015-10-22 14:05:20 24.0 62 13.9 58 2.2 ---
2015-10-22 13:35:20 24.3 62 14.1 57 2.2 ---
2015-10-22 13:05:20 23.4 62 14.8 60 1.3 ---
2015-10-22 12:35:20 22.8 64 13.9 60 1.8 ---
2015-10-22 12:05:20 21.8 68 13.6 60 2.2 ---
2015-10-22 11:35:20 20.7 67 13.6 60 2.6 ---
2015-10-22 11:05:20 20.4 66 13.6 60 2.6 ---
2015-10-22 10:35:20 19.5 67 13.2 60 1.8 ---
2015-10-22 10:05:20 18.6 67 12.5 60 1.8 ---
2015-10-22 09:35:20 16.2 70 12.5 61 2.6 ---
2015-10-22 09:05:20 14.0 66 12.4 65 2.2 ---
2015-10-22 08:35:20 14.1 66 12.5 63 1.8 ---
2015-10-22 08:05:20 14.1 66 13.0 68 1.8 ---
2015-10-22 07:35:20 14.2 66 13.0 77 1.8 ---
2015-10-22 07:05:20 14.3 66 12.4 87 0.0 ---
2015-10-22 06:35:20 14.5 66 12.4 87 0.0 ---
2015-10-22 06:05:20 14.6 66 12.5 79 0.0 ---
2015-10-22 05:35:20 14.7 66 13.4 78 0.0 ---
2015-10-22 05:05:20 14.8 66 14.0 79 0.4 ---
2015-10-22 04:35:20 15.0 67 13.6 83 0.0 ---
2015-10-22 04:05:20 15.1 67 13.6 82 0.0 ---
2015-10-22 03:35:20 15.2 67 13.8 82 0.0 ---
2015-10-22 03:05:20 15.3 67 13.9 84 0.4 ---
2015-10-22 02:35:20 15.4 67 14.3 84 0.0 ---
2015-10-22 02:05:20 15.4 67 14.3 83 0.4 ---
2015-10-22 01:35:20 15.5 67 14.6 83 0.4 ---
2015-10-22 01:05:20 15.6 67 14.6 86 0.0 ---
2015-10-22 00:35:20 15.7 67 14.3 86 0.0 ---
2015-10-22 00:05:20 15.8 68 14.3 86 0.0 ---
2015-10-21 23:35:20 15.9 68 14.3 86 0.0 ---
2015-10-21 23:05:20 16.0 68 14.1 86 0.0 ---
2015-10-21 22:35:20 16.2 68 13.9 86 0.0 ---
2015-10-21 22:05:20 16.3 68 14.1 86 0.4 ---
2015-10-21 21:35:20 16.6 69 14.3 85 0.0 ---
2015-10-21 21:05:20 16.7 69 14.3 86 0.0 ---
2015-10-21 20:35:20 16.9 69 14.6 87 0.9 ---
2015-10-21 20:05:20 17.2 69 14.8 85 0.0 ---
2015-10-21 19:35:20 17.5 67 14.3 86 0.0 ---
2015-10-21 19:05:20 17.9 68 14.1 84 0.0 ---
2015-10-21 18:35:20 18.2 68 14.6 82 0.0 ---
2015-10-21 18:05:20 18.7 68 15.0 80 0.9 ---
2015-10-21 17:35:20 18.9 69 16.0 76 0.4 ---
2015-10-21 17:05:20 19.2 70 16.2 76 1.3 ---
2015-10-21 16:35:20 19.2 71 16.2 78 1.3 ---
2015-10-21 16:05:20 19.0 72 16.4 76 1.3 ---
2015-10-21 15:35:20 18.4 73 16.7 79 1.3 ---
2015-10-21 15:05:20 17.4 76 16.2 80 0.9 ---
2015-10-21 14:35:20 16.1 77 16.0 81 0.4 ---
2015-10-21 14:05:20 15.1 76 15.6 85 0.0 ---
2015-10-21 13:35:20 14.5 75 15.0 86 0.0 ---
2015-10-21 13:05:20 13.9 74 14.3 88 0.0 ---
2015-10-21 12:35:20 13.4 73 13.9 91 0.0 ---
2015-10-21 12:05:20 12.4 69 13.2 96 0.4 ---
2015-10-21 11:35:20 11.9 63 12.5 99 0.0 ---
2015-10-21 11:05:20 11.5 63 11.8 99 0.0 ---
2015-10-21 10:35:20 11.2 63 11.2 99 0.0 ---
2015-10-21 10:05:20 11.0 62 10.7 99 0.0 ---
2015-10-21 09:35:20 10.8 62 10.4 99 0.0 ---
2015-10-21 09:05:20 10.8 62 9.9 99 0.0 ---
2015-10-21 08:35:20 10.8 62 10.0 99 0.0 ---
2015-10-21 08:05:20 10.7 61 9.7 99 0.0 ---
2015-10-21 07:35:20 10.8 61 9.7 99 0.0 ---
2015-10-21 07:05:20 10.8 60 9.7 99 0.0 ---
2015-10-21 06:35:20 10.8 60 9.5 97 0.0 ---
2015-10-21 06:05:20 10.8 60 9.3 96 0.0 ---
2015-10-21 05:35:20 10.8 60 9.1 94 0.0 ---
2015-10-21 05:05:20 10.9 59 9.0 92 0.0 ---
2015-10-21 04:35:20 11.0 59 9.0 89 0.0 ---
2015-10-21 04:05:20 11.1 59 8.8 87 0.0 ---
2015-10-21 03:35:20 11.3 59 8.6 87 0.0 ---
2015-10-21 03:05:20 11.4 59 8.5 87 0.0 ---
2015-10-21 02:35:20 11.6 59 8.5 86 0.0 ---
2015-10-21 02:05:20 11.8 59 8.3 85 0.0 ---
2015-10-21 01:35:20 11.9 59 8.1 84 0.0 ---
2015-10-21 01:05:20 12.2 59 8.1 84 0.0 ---
2015-10-21 00:35:20 12.6 56 7.8 85 0.0 ---
2015-10-21 00:05:20 12.9 57 7.7 84 0.0 ---
2015-10-20 23:35:20 13.3 57 7.7 83 0.0 ---
2015-10-20 23:05:20 13.7 57 7.4 88 0.0 ---
2015-10-20 22:35:20 14.2 57 7.1 90 0.0 ---
2015-10-20 22:05:20 14.7 57 7.0 90 0.0 ---
2015-10-20 21:35:20 15.3 58 6.8 90 0.0 ---
2015-10-20 21:05:20 15.9 58 7.0 88 0.0 ---
2015-10-20 20:35:20 16.6 58 7.4 86 0.0 ---
2015-10-20 20:05:20 17.2 58 8.1 79 0.0 ---
2015-10-20 19:35:20 17.9 56 8.8 78 0.0 ---
2015-10-20 19:05:20 18.6 56 9.8 75 0.0 ---
2015-10-20 18:35:20 19.3 56 9.7 76 0.4 ---
2015-10-20 18:05:20 20.1 56 10.7 74 0.0 ---
2015-10-20 17:35:20 20.8 56 12.0 69 0.0 ---
2015-10-20 17:05:20 21.3 56 13.4 61 0.0 ---
2015-10-20 16:35:20 21.7 55 13.9 60 0.9 ---
2015-10-20 16:05:20 21.7 55 14.1 61 0.9 ---
2015-10-20 15:35:20 21.1 54 14.3 58 0.0 ---
2015-10-20 15:05:20 20.2 52 13.9 61 0.4 ---
2015-10-20 14:35:20 21.3 52 14.3 62 1.3 ---
2015-10-20 14:05:20 22.2 52 13.9 64 1.3 ---
2015-10-20 13:35:20 23.7 49 13.6 68 0.9 ---
2015-10-20 13:05:20 25.2 52 13.8 67 0.9 ---
2015-10-20 12:35:20 25.9 54 13.8 67 1.3 ---
2015-10-20 12:05:20 25.5 58 13.6 66 1.3 ---
2015-10-20 11:35:20 24.4 59 12.5 68 0.9 ---
2015-10-20 11:05:20 22.6 60 11.8 73 1.3 ---
2015-10-20 10:35:20 20.4 64 11.4 73 0.9 ---
2015-10-20 10:05:20 17.7 66 10.7 78 0.4 ---
2015-10-20 09:35:20 13.0 68 10.1 78 0.0 ---
2015-10-20 09:05:20 10.0 61 9.7 82 0.4 ---
2015-10-20 08:35:20 9.6 60 9.1 83 0.4 ---
2015-10-20 08:05:20 9.5 60 9.0 84 0.4 ---
2015-10-20 07:35:20 9.5 60 8.3 88 0.4 ---
2015-10-20 07:05:20 9.6 60 8.1 91 0.0 ---
2015-10-20 06:35:20 9.7 60 7.5 94 0.0 ---
2015-10-20 06:05:20 9.8 60 7.2 99 0.0 ---
2015-10-20 05:35:20 10.0 60 6.4 99 0.0 ---
2015-10-20 05:05:20 10.2 60 6.3 99 0.0 ---
2015-10-20 04:35:20 10.4 61 6.3 99 0.0 ---
2015-10-20 04:05:20 10.5 61 6.8 99 0.0 ---
2015-10-20 03:35:20 10.7 61 7.7 98 0.0 ---
2015-10-20 03:05:20 10.9 61 6.3 99 0.0 ---
2015-10-20 02:35:20 11.2 61 6.3 99 0.0 ---
2015-10-20 02:05:20 11.6 61 5.8 99 0.0 ---
2015-10-20 01:35:20 12.0 61 6.0 98 0.0 ---
2015-10-20 01:05:20 12.3 61 6.4 98 0.0 ---
2015-10-20 00:35:20 12.6 59 6.8 98 0.0 ---
2015-10-20 00:05:20 13.0 59 7.4 98 0.0 ---
2015-10-19 23:35:20 13.5 60 7.2 97 0.0 ---
2015-10-19 23:05:20 14.0 60 7.5 92 0.0 ---
2015-10-19 22:35:20 14.5 60 8.0 91 0.0 ---
2015-10-19 22:05:20 15.0 60 8.0 89 0.0 ---
2015-10-19 21:35:20 15.4 61 8.3 87 0.0 ---
2015-10-19 21:05:20 16.0 61 8.8 85 0.0 ---
2015-10-19 20:35:20 16.5 61 9.5 85 0.0 ---
2015-10-19 20:05:20 17.0 61 10.2 80 0.0 ---
2015-10-19 19:35:20 17.6 59 10.7 79 0.0 ---
2015-10-19 19:05:20 18.1 59 11.0 79 0.0 ---
2015-10-19 18:35:20 18.8 59 11.2 78 0.0 ---
2015-10-19 18:05:20 19.4 58 11.7 77 0.0 ---
2015-10-19 17:35:20 20.1 58 11.8 75 0.4 ---
2015-10-19 17:05:20 20.7 58 12.2 74 0.9 ---
2015-10-19 16:35:20 21.4 58 12.4 74 0.9 ---
2015-10-19 16:05:20 22.0 57 13.0 66 0.9 ---
2015-10-19 15:35:20 22.6 54 13.4 65 0.9 ---
2015-10-19 15:05:20 23.6 54 13.6 62 0.9 ---
2015-10-19 14:35:20 23.9 56 13.8 65 0.9 ---
2015-10-19 14:05:20 23.5 52 13.6 66 0.9 ---
2015-10-19 13:35:20 25.3 57 13.7 60 1.3 ---
2015-10-19 13:05:20 24.6 61 13.9 65 0.9 ---
2015-10-19 12:35:20 23.0 62 13.9 66 0.9 ---
2015-10-19 12:05:20 21.2 64 13.6 68 1.3 ---
2015-10-19 11:35:20 20.8 64 13.4 69 1.8 ---
2015-10-19 11:05:20 19.6 64 13.4 73 0.9 ---
2015-10-19 10:35:20 17.5 65 13.2 74 1.3 ---
2015-10-19 10:05:20 16.7 67 11.6 85 0.4 ---
2015-10-19 09:35:20 15.4 67 11.2 84 0.4 ---
2015-10-19 09:05:20 12.6 63 10.4 90 0.4 ---
2015-10-19 08:35:20 11.3 64 8.2 92 0.0 ---
2015-10-19 08:05:20 11.3 64 8.1 91 0.0 ---
2015-10-19 07:35:20 11.5 64 8.3 90 0.0 ---
2015-10-19 07:05:20 11.6 65 8.3 89 0.0 ---
2015-10-19 06:35:20 11.8 65 8.3 89 0.0 ---
2015-10-19 06:05:20 12.0 65 9.0 87 0.0 ---
2015-10-19 05:35:20 12.1 65 9.5 87 0.0 ---
2015-10-19 05:05:20 12.2 65 10.2 85 0.0 ---
2015-10-19 04:35:20 12.3 65 11.0 85 0.4 ---
2015-10-19 04:05:20 12.4 65 11.4 87 0.4 ---
2015-10-19 03:35:20 12.4 65 11.4 89 0.4 ---
2015-10-19 03:05:20 12.4 65 11.4 94 0.4 ---
2015-10-19 02:35:20 12.5 63 11.2 96 0.0 ---
2015-10-19 02:05:20 12.6 63 11.2 95 0.0 ---
2015-10-19 01:35:20 12.6 63 11.4 97 0.4 ---
2015-10-19 01:05:20 12.7 63 11.2 99 0.0 ---
2015-10-19 00:35:20 12.7 63 11.0 99 0.0 ---
2015-10-19 00:05:20 12.8 63 11.0 99 0.4 ---
2015-10-18 23:35:20 12.9 63 11.0 99 0.0 ---
2015-10-18 23:05:20 13.0 63 11.2 99 0.4 ---
2015-10-18 22:35:20 13.1 63 11.4 99 1.3 ---
2015-10-18 22:05:20 13.2 64 11.2 99 0.4 ---
2015-10-18 21:35:20 13.4 64 11.2 98 0.4 ---
2015-10-18 21:05:20 13.5 64 11.2 96 0.4 ---
2015-10-18 20:35:20 13.6 64 11.4 91 0.4 ---
2015-10-18 20:05:20 13.7 64 11.7 89 0.9 ---
2015-10-18 19:35:20 13.9 64 11.6 86 0.0 ---
2015-10-18 19:05:20 14.0 64 11.6 84 0.0 ---
2015-10-18 18:35:20 14.1 64 11.7 82 0.0 ---
2015-10-18 18:05:20 14.3 64 11.8 81 0.4 ---
2015-10-18 17:35:20 14.4 65 12.2 82 0.4 ---
2015-10-18 17:05:20 14.5 65 12.4 84 0.9 ---
2015-10-18 16:35:20 14.6 64 12.4 84 0.9 ---
2015-10-18 16:05:20 14.6 64 12.5 76 0.9 ---
2015-10-18 15:35:20 14.6 64 12.5 71 0.9 ---
2015-10-18 15:05:20 14.5 64 12.5 73 0.4 ---
2015-10-18 14:35:20 14.4 64 12.5 73 0.9 ---
2015-10-18 14:05:20 14.4 64 12.4 89 0.9 ---
2015-10-18 13:35:20 14.3 64 12.2 91 0.4 ---
2015-10-18 13:05:20 14.2 64 12.2 90 1.3 ---
2015-10-18 12:35:20 14.1 64 13.2 81 0.9 ---
2015-10-18 12:05:20 13.7 64 13.2 81 0.9 ---
2015-10-18 11:35:20 13.4 63 13.4 81 0.9 ---
2015-10-18 11:05:20 13.0 63 13.0 84 0.9 ---
2015-10-18 10:35:20 12.7 63 12.4 94 0.9 ---
2015-10-18 10:05:20 12.5 62 12.2 99 0.4 ---
2015-10-18 09:35:20 12.3 65 11.8 99 0.4 ---
2015-10-18 09:05:20 12.2 65 11.6 99 0.0 ---
2015-10-18 08:35:20 12.2 65 11.4 99 0.0 ---
2015-10-18 08:05:20 12.2 65 11.2 99 0.0 ---
2015-10-18 07:35:20 12.2 65 11.2 99 0.0 ---
2015-10-18 07:05:20 12.2 65 11.2 99 0.0 ---
2015-10-18 06:35:20 12.3 65 11.0 99 0.4 ---
2015-10-18 06:05:20 12.3 65 11.0 99 0.0 ---
2015-10-18 05:35:20 12.4 65 11.2 99 0.0 ---
2015-10-18 05:05:20 12.4 65 11.4 99 0.4 ---
2015-10-18 04:35:20 12.4 65 11.2 99 0.0 ---
2015-10-18 04:05:20 12.5 63 11.2 98 0.0 ---
2015-10-18 03:35:20 12.5 63 11.2 97 0.0 ---
2015-10-18 03:05:20 12.6 63 11.4 98 0.4 ---
2015-10-18 02:35:20 12.6 63 11.6 96 0.4 ---
2015-10-18 02:05:20 12.6 63 11.6 95 0.4 ---
2015-10-18 01:35:20 12.7 63 11.6 94 0.4 ---
2015-10-18 01:05:20 12.7 63 11.7 93 0.9 ---
2015-10-18 00:35:20 12.7 63 11.6 93 0.4 ---
2015-10-18 00:05:20 12.8 63 11.6 94 0.4 ---
2015-10-17 23:35:20 12.8 63 11.6 96 0.9 ---
2015-10-17 23:05:20 12.9 63 11.6 97 1.8 ---
2015-10-17 22:35:20 13.0 63 11.6 98 1.3 ---
2015-10-17 22:05:20 13.1 63 11.6 94 1.8 ---
2015-10-17 21:35:20 13.1 63 11.6 96 1.3 ---
2015-10-17 21:05:20 13.2 63 11.4 96 1.3 ---
2015-10-17 20:35:20 13.4 63 11.2 96 1.3 ---
2015-10-17 20:05:20 13.5 63 11.2 93 1.3 ---
2015-10-17 19:35:20 13.7 63 11.6 86 1.3 ---
2015-10-17 19:05:20 13.9 63 11.2 88 1.3 ---
2015-10-17 18:35:20 14.1 63 11.0 88 1.3 ---
2015-10-17 18:05:20 14.4 63 11.2 83 1.3 ---
2015-10-17 17:35:20 14.6 63 11.4 82 0.9 ---
2015-10-17 17:05:20 14.8 63 11.4 80 1.3 ---
2015-10-17 16:35:20 15.1 63 11.6 79 1.8 ---
2015-10-17 16:05:20 15.3 63 12.0 74 2.2 ---
2015-10-17 15:35:20 15.3 63 12.4 71 1.8 ---
2015-10-17 15:05:20 15.2 63 13.0 65 2.2 ---
2015-10-17 14:35:20 15.0 63 12.0 73 1.8 ---
2015-10-17 14:05:20 15.2 63 12.2 74 1.8 ---
2015-10-17 13:35:20 15.3 63 12.4 71 1.8 ---
2015-10-17 13:05:20 15.3 63 12.4 70 2.2 ---
2015-10-17 12:35:20 15.5 63 11.8 70 1.8 ---
2015-10-17 12:05:20 15.6 63 12.4 70 1.8 ---
2015-10-17 11:35:20 15.3 63 13.0 65 2.2 ---
2015-10-17 11:05:20 13.6 63 13.0 65 2.2 ---
2015-10-17 10:35:20 12.7 63 12.2 71 1.8 ---
2015-10-17 10:05:20 12.0 65 11.6 70 2.2 ---
2015-10-17 09:35:20 11.7 64 11.7 72 1.8 ---
2015-10-17 09:05:20 11.7 64 11.0 77 0.9 ---
2015-10-17 08:35:20 11.7 64 10.1 74 0.4 ---
2015-10-17 08:05:20 11.7 64 10.1 69 0.9 ---
2015-10-17 07:35:20 11.7 64 10.5 68 1.3 ---
2015-10-17 07:05:20 11.8 64 10.9 70 1.8 ---
2015-10-17 06:35:20 11.9 64 11.0 69 1.8 ---
2015-10-17 06:05:20 11.9 64 10.9 73 0.9 ---
2015-10-17 05:35:20 12.0 64 10.9 70 1.8 ---
2015-10-17 05:05:20 12.1 64 10.9 68 1.3 ---
2015-10-17 04:35:20 12.1 64 10.9 69 0.9 ---
2015-10-17 04:05:20 12.2 64 11.0 72 1.3 ---
2015-10-17 03:35:20 12.3 65 11.0 72 0.9 ---
2015-10-17 03:05:20 12.3 64 10.9 76 0.9 ---
2015-10-17 02:35:20 12.4 65 10.9 72 0.9 ---
2015-10-17 02:05:20 12.6 62 11.2 73 1.8 ---
2015-10-17 01:35:20 12.7 62 11.0 75 1.3 ---
2015-10-17 01:05:20 12.7 62 11.0 75 0.9 ---
2015-10-17 00:35:20 12.8 63 11.2 75 1.8 ---
2015-10-17 00:05:20 12.9 62 11.4 77 0.9 ---
2015-10-16 23:35:20 13.1 63 11.4 76 1.3 ---
2015-10-16 23:05:20 13.2 63 11.6 74 1.8 ---
2015-10-16 22:35:20 13.3 63 11.6 75 1.3 ---
2015-10-16 22:05:20 13.5 63 11.6 78 1.3 ---
2015-10-16 21:35:20 13.4 63 11.6 78 1.3 ---
2015-10-16 21:05:20 13.7 63 11.6 77 1.3 ---
2015-10-16 20:35:20 14.0 63 11.6 79 0.9 ---
2015-10-16 20:05:20 14.1 63 11.7 78 1.3 ---
2015-10-16 19:35:20 14.2 63 11.7 78 1.8 ---
2015-10-16 19:05:20 14.5 63 11.7 78 1.3 ---
2015-10-16 18:35:20 14.8 63 11.6 75 0.9 ---
2015-10-16 18:05:20 15.1 64 11.7 72 1.3 ---
2015-10-16 17:35:20 15.4 64 11.9 74 1.8 ---
2015-10-16 17:05:20 15.7 64 11.8 73 1.3 ---
2015-10-16 16:35:20 16.0 64 12.0 76 1.8 ---
2015-10-16 16:05:20 16.3 65 12.2 76 2.2 ---
2015-10-16 15:35:20 16.5 65 12.2 80 1.8 ---
2015-10-16 15:05:20 16.7 65 12.5 77 1.8 ---
2015-10-16 14:35:20 16.7 65 13.0 75 2.2 ---
2015-10-16 14:05:20 16.8 65 12.5 72 2.2 ---
2015-10-16 13:35:20 16.8 66 13.8 67 2.2 ---
2015-10-16 13:05:20 15.6 66 13.0 68 2.2 ---
2015-10-16 12:35:20 15.2 65 12.2 76 1.3 ---
2015-10-16 12:05:20 15.4 65 12.4 71 2.2 ---
2015-10-16 11:35:20 15.2 66 13.0 68 1.8 ---
2015-10-16 11:05:20 14.9 67 12.2 74 1.3 ---
2015-10-16 10:35:20 14.2 68 12.2 71 1.8 ---
2015-10-16 10:05:20 13.5 66 12.0 74 1.8 ---
2015-10-16 09:35:20 13.0 65 12.0 78 1.3 ---
2015-10-16 09:05:20 12.4 65 11.8 78 1.8 ---
2015-10-16 08:35:20 12.3 65 11.6 78 1.8 ---
2015-10-16 08:05:20 12.3 64 11.8 80 1.8 ---
2015-10-16 07:35:20 12.3 64 11.8 80 1.8 ---
2015-10-16 07:05:20 12.2 64 11.9 81 1.3 ---
2015-10-16 06:35:20 12.2 64 11.6 82 1.3 ---
2015-10-16 06:05:20 12.2 64 11.7 82 0.9 ---
2015-10-16 05:35:20 12.2 64 11.7 80 1.3 ---
2015-10-16 05:05:20 12.3 64 11.7 79 1.3 ---
2015-10-16 04:35:20 12.3 64 11.7 79 1.3 ---
2015-10-16 04:05:20 12.3 64 11.7 79 1.3 ---
2015-10-16 03:35:20 12.3 64 11.7 78 1.8 ---
2015-10-16 03:05:20 12.4 64 11.9 78 2.2 ---
2015-10-16 02:35:20 12.4 64 11.6 78 0.4 ---
2015-10-16 02:05:20 12.4 63 11.6 77 0.9 ---
2015-10-16 01:35:20 12.5 61 11.6 77 0.9 ---
2015-10-16 01:05:20 12.6 61 11.6 78 0.9 ---
2015-10-16 00:35:20 12.8 61 11.7 78 1.3 ---
2015-10-16 00:05:20 12.7 61 11.7 78 1.3 ---
2015-10-15 23:35:20 12.8 61 11.7 81 2.2 ---
2015-10-15 23:05:20 12.9 61 11.6 83 1.3 ---
2015-10-15 22:35:20 13.1 61 11.2 85 0.9 ---
2015-10-15 22:05:20 13.2 61 11.6 85 1.3 ---
2015-10-15 21:35:20 13.4 61 11.4 85 0.9 ---
2015-10-15 21:05:20 13.6 61 11.4 83 0.9 ---
2015-10-15 20:35:20 13.8 61 11.2 81 0.9 ---
2015-10-15 20:05:20 14.1 61 11.0 82 0.9 ---
2015-10-15 19:35:20 14.4 61 11.2 80 0.9 ---
2015-10-15 19:05:20 14.7 61 11.2 79 0.9 ---
2015-10-15 18:35:20 15.1 62 11.6 82 1.3 ---
2015-10-15 18:05:20 15.5 62 11.4 83 0.9 ---
2015-10-15 17:35:20 15.8 62 11.7 79 0.9 ---
2015-10-15 17:05:20 16.1 63 11.6 80 1.3 ---
2015-10-15 16:35:20 16.4 63 11.8 80 0.9 ---
2015-10-15 16:05:20 16.4 64 11.8 81 1.3 ---
2015-10-15 15:35:20 16.8 63 12.2 81 1.3 ---
2015-10-15 15:05:20 17.5 60 12.4 79 1.3 ---
2015-10-15 14:35:20 18.0 59 12.4 79 1.3 ---
2015-10-15 14:05:20 18.8 58 12.4 77 1.3 ---
2015-10-15 13:35:20 19.5 59 12.4 77 2.2 ---
2015-10-15 13:05:20 19.0 64 12.4 77 1.8 ---
2015-10-15 12:35:20 15.9 61 12.4 79 1.3 ---
2015-10-15 12:05:20 15.4 61 12.4 74 1.8 ---
2015-10-15 11:35:20 15.0 61 12.4 77 1.3 ---
2015-10-15 11:05:20 14.6 61 12.2 79 0.9 ---
2015-10-15 10:35:20 14.4 62 12.0 80 0.9 ---
2015-10-15 10:05:20 14.2 63 11.6 82 0.9 ---
2015-10-15 09:35:20 14.0 65 11.4 83 0.9 ---
2015-10-15 09:05:20 12.4 67 10.9 86 0.0 ---
2015-10-15 08:35:20 12.3 61 10.4 84 0.0 ---
2015-10-15 08:05:20 12.0 57 10.2 81 0.4 ---
2015-10-15 07:35:20 12.0 57 10.1 85 0.0 ---
2015-10-15 07:05:20 12.0 57 10.2 88 0.4 ---
2015-10-15 06:35:20 12.1 57 10.2 87 0.4 ---
2015-10-15 06:05:20 12.2 57 10.1 90 0.4 ---
2015-10-15 05:35:20 12.2 57 10.2 91 0.4 ---
2015-10-15 05:05:20 12.2 57 10.7 84 0.9 ---
2015-10-15 04:35:20 12.3 57 10.4 89 0.4 ---
2015-10-15 04:05:20 12.3 57 9.8 88 0.0 ---
2015-10-15 03:35:20 12.4 57 10.0 85 0.0 ---
2015-10-15 03:05:20 12.5 55 10.1 85 0.0 ---
2015-10-15 02:35:20 12.6 55 10.5 81 0.4 ---
2015-10-15 02:05:20 12.8 55 11.2 77 0.9 ---
2015-10-15 01:35:20 12.7 55 10.9 79 0.9 ---
2015-10-15 01:05:20 12.8 55 11.2 77 0.9 ---
2015-10-15 00:35:20 12.9 56 11.4 80 0.9 ---
2015-10-15 00:05:20 13.0 56 11.4 78 0.9 ---
2015-10-14 23:35:20 13.1 56 11.4 80 0.9 ---
2015-10-14 23:05:20 13.2 56 11.2 78 1.8 ---
2015-10-14 22:35:20 13.4 56 10.7 79 0.4 ---
2015-10-14 22:05:20 13.6 56 11.0 78 0.9 ---
2015-10-14 21:35:20 13.8 56 11.6 77 1.3 ---
2015-10-14 21:05:20 13.9 56 10.9 87 0.9 ---
2015-10-14 20:35:20 14.2 56 10.4 87 1.3 ---
2015-10-14 20:05:20 14.5 56 9.9 82 0.9 ---
2015-10-14 19:35:20 14.8 57 10.4 82 0.9 ---
2015-10-14 19:05:20 15.1 57 10.1 81 0.4 ---
2015-10-14 18:35:20 15.5 57 10.9 78 1.3 ---
2015-10-14 18:05:20 15.9 57 10.7 82 1.3 ---
2015-10-14 17:35:20 16.3 58 10.7 83 1.3 ---
2015-10-14 17:05:20 16.7 58 10.7 80 1.8 ---
2015-10-14 16:35:20 16.9 59 11.2 80 1.3 ---
2015-10-14 16:05:20 17.0 59 11.7 77 1.3 ---
2015-10-14 15:35:20 17.8 55 11.6 78 1.3 ---
2015-10-14 15:05:20 17.8 56 11.4 80 0.9 ---
2015-10-14 14:35:20 17.7 56 10.9 77 1.8 ---
2015-10-14 14:05:20 18.0 56 11.4 82 0.9 ---
2015-10-14 13:35:20 19.0 55 10.7 84 2.2 ---
2015-10-14 13:05:20 19.4 53 12.0 75 2.2 ---
2015-10-14 12:35:20 20.6 52 11.7 80 1.3 ---
2015-10-14 12:05:20 21.8 52 12.4 69 2.2 ---
2015-10-14 11:35:20 21.2 54 12.4 71 2.2 ---
2015-10-14 11:05:20 18.9 56 12.4 74 2.2 ---
2015-10-14 10:35:20 17.7 57 12.0 71 2.2 ---
2015-10-14 10:05:20 15.7 57 11.8 77 0.0 ---
2015-10-14 09:35:20 12.6 54 11.2 78 0.0 ---
2015-10-14 09:05:20 11.3 55 10.9 75 0.0 ---
2015-10-14 08:35:20 11.1 55 10.1 76 0.0 ---
2015-10-14 08:05:20 11.0 55 9.3 78 0.0 ---
2015-10-14 07:35:20 10.9 55 9.5 74 0.0 ---
2015-10-14 07:05:20 10.9 54 9.1 71 0.0 ---
2015-10-14 06:35:20 10.9 54 9.7 69 0.0 ---
2015-10-14 06:05:20 10.9 54 9.5 74 0.0 ---
2015-10-14 05:35:20 11.0 54 8.5 76 0.0 ---
2015-10-14 05:05:20 11.1 54 9.1 73 0.0 ---
2015-10-14 04:35:20 11.2 54 8.5 77 0.0 ---
2015-10-14 04:05:20 11.3 54 8.2 76 0.0 ---
2015-10-14 03:35:20 11.5 54 8.0 78 0.0 ---
2015-10-14 03:05:20 11.6 54 8.2 78 0.0 ---
2015-10-14 02:35:20 11.8 54 7.8 76 0.0 ---
2015-10-14 02:05:20 12.0 54 8.6 74 0.0 ---
2015-10-14 01:35:20 12.2 55 7.8 75 0.0 ---
2015-10-14 01:05:20 12.4 55 9.0 77 0.0 ---
2015-10-14 00:35:20 12.7 53 8.0 78 0.0 ---
2015-10-14 00:05:20 12.9 53 8.3 75 0.0 ---
2015-10-13 23:35:20 13.2 53 8.6 71 0.0 ---
2015-10-13 23:05:20 13.4 53 9.5 72 0.0 ---
2015-10-13 22:35:20 13.6 53 9.1 69 0.0 ---
2015-10-13 22:05:20 14.0 53 9.3 68 0.0 ---
2015-10-13 21:35:20 14.4 53 9.3 65 0.0 ---
2015-10-13 21:05:20 14.8 54 9.8 70 0.0 ---
2015-10-13 20:35:20 15.2 54 9.5 73 0.0 ---
2015-10-13 20:05:20 15.5 54 9.9 67 0.0 ---
2015-10-13 19:35:20 16.0 54 9.9 66 0.0 ---
2015-10-13 19:05:20 16.6 54 10.0 70 0.0 ---
2015-10-13 18:35:20 17.1 54 10.1 71 0.0 ---
2015-10-13 18:05:20 17.7 52 10.2 68 0.0 ---
2015-10-13 17:35:20 18.2 52 10.5 67 0.0 ---
2015-10-13 17:05:20 18.8 52 11.0 66 0.0 ---
2015-10-13 16:35:20 19.3 52 11.4 65 0.0 ---
2015-10-13 16:05:20 19.9 52 11.4 66 0.0 ---
2015-10-13 15:35:20 20.3 51 11.6 66 0.0 ---
2015-10-13 15:05:20 21.2 53 11.8 61 0.0 ---
2015-10-13 14:35:20 21.4 53 12.0 64 0.0 ---
2015-10-13 14:05:20 21.6 52 12.0 66 0.0 ---
2015-10-13 13:35:20 21.8 50 11.6 71 0.0 ---
2015-10-13 13:05:20 23.2 50 10.9 69 0.0 ---
2015-10-13 12:35:20 24.3 51 12.0 65 0.0 ---
2015-10-13 12:05:20 24.6 53 12.0 69 0.0 ---
2015-10-13 11:35:20 22.7 53 11.6 68 0.9 ---
2015-10-13 11:05:20 19.7 55 11.7 63 0.9 ---
2015-10-13 10:38:36 18.1 58 11.6 63 1.3 ---
2015-10-13 10:08:36 16.1 57 11.7 61 1.3 ---
2015-10-13 09:38:36 13.0 57 11.4 62 1.8 ---
2015-10-13 09:08:36 11.8 56 11.2 59 1.3 ---
2015-10-13 08:38:36 11.5 56 11.4 61 2.2 ---
2015-10-13 08:08:36 10.7 56 10.4 62 1.8 ---
2015-10-13 07:38:36 10.7 56 10.4 61 1.8 ---
2015-10-13 07:08:36 10.7 56 10.5 63 1.8 ---
2015-10-13 06:38:36 10.7 56 11.0 65 1.3 ---
2015-10-13 06:08:36 10.7 56 10.2 74 0.9 ---
2015-10-13 05:38:36 10.7 56 10.1 72 1.3 ---
2015-10-13 05:08:36 10.9 55 9.7 77 0.4 ---
2015-10-13 04:38:36 11.0 55 9.3 78 1.3 ---
2015-10-13 04:08:36 11.2 55 8.5 78 0.4 ---
2015-10-13 03:38:36 11.4 55 8.2 80 0.9 ---
2015-10-13 03:08:36 11.6 55 8.8 79 0.4 ---
2015-10-13 02:38:36 11.8 55 8.3 82 0.9 ---
2015-10-13 02:08:36 12.1 56 8.3 80 1.8 ---
2015-10-13 01:38:36 12.4 56 8.3 76 0.4 ---
2015-10-13 01:08:36 12.7 54 8.0 76 0.4 ---
2015-10-13 00:38:36 13.1 54 8.6 78 0.0 ---
2015-10-13 00:08:36 13.4 54 8.3 78 0.0 ---
2015-10-12 23:38:36 13.9 54 8.0 78 0.0 ---
2015-10-12 23:08:36 14.3 54 8.5 80 0.0 ---
2015-10-12 22:38:36 14.7 54 9.0 80 0.4 ---
2015-10-12 22:08:36 15.1 55 9.0 85 0.4 ---
2015-10-12 21:38:36 15.7 55 8.2 90 0.0 ---
2015-10-12 21:08:36 16.2 55 8.3 87 0.0 ---
2015-10-12 20:38:36 16.9 55 8.0 80 0.0 ---
2015-10-12 20:08:36 17.6 53 9.7 79 1.3 ---
2015-10-12 19:38:36 18.3 54 9.3 78 0.0 ---
2015-10-12 19:08:36 19.1 54 9.9 77 0.0 ---
2015-10-12 18:38:36 19.9 54 10.4 73 0.0 ---
2015-10-12 18:08:36 20.8 54 10.5 71 0.0 ---
2015-10-12 17:38:36 21.9 54 10.7 70 0.4 ---
2015-10-12 17:08:36 22.8 52 11.0 68 0.9 ---
2015-10-12 16:38:36 23.8 52 11.4 67 0.4 ---
2015-10-12 16:08:36 24.9 52 11.4 64 0.9 ---
2015-10-12 15:38:36 25.9 52 11.6 64 0.9 ---
2015-10-12 15:08:36 26.7 52 12.4 62 0.9 ---
2015-10-12 14:38:36 26.1 52 12.5 59 0.9 ---
2015-10-12 14:08:36 25.0 52 12.4 61 1.3 ---
2015-10-12 13:38:36 23.4 52 12.4 59 0.4 ---
2015-10-12 13:08:36 21.5 53 12.2 61 0.9 ---
2015-10-12 12:38:36 19.2 53 11.8 60 0.4 ---
2015-10-12 12:08:36 16.4 54 11.8 62 0.9 ---
2015-10-12 11:38:36 15.6 54 11.7 62 0.9 ---
2015-10-12 11:08:36 14.8 54 11.8 64 0.4 ---
2015-10-12 10:38:36 13.6 54 11.2 74 0.4 ---
2015-10-12 10:08:36 12.9 53 10.4 77 0.0 ---
2015-10-12 09:38:36 12.5 53 9.8 80 0.0 ---
2015-10-12 09:08:36 11.5 55 8.0 79 0.0 ---
2015-10-12 08:38:36 10.9 55 7.1 86 0.0 ---
2015-10-12 08:08:36 10.8 55 6.3 86 0.0 ---
2015-10-12 07:38:36 11.0 55 6.8 86 0.0 ---
2015-10-12 07:08:36 11.2 55 6.3 89 0.0 ---
2015-10-12 06:38:36 11.4 55 6.3 90 0.0 ---
2015-10-12 06:08:36 11.6 55 6.3 91 0.0 ---
2015-10-12 05:38:36 11.8 55 6.3 91 0.4 ---
2015-10-12 05:08:36 12.1 55 6.8 90 0.0 ---
2015-10-12 04:38:36 12.3 55 7.4 89 0.0 ---
2015-10-12 04:08:36 12.5 53 7.4 89 0.0 ---
2015-10-12 03:38:36 12.9 53 7.4 90 0.0 ---
2015-10-12 03:08:36 13.2 53 7.4 89 0.0 ---
2015-10-12 02:38:36 13.5 53 7.4 88 0.0 ---
2015-10-12 02:08:36 13.7 53 7.4 87 0.0 ---
2015-10-12 01:38:36 14.0 53 7.7 81 0.0 ---
2015-10-12 01:08:36 14.3 54 9.0 74 0.0 ---
2015-10-12 00:38:36 14.7 54 9.3 73 0.0 ---
2015-10-12 00:08:36 15.0 54 9.5 72 0.0 ---
2015-10-11 23:38:36 15.4 54 10.0 70 0.0 ---
2015-10-11 23:08:36 15.8 54 10.0 71 0.0 ---
2015-10-11 22:38:36 16.3 54 9.8 70 0.0 ---
2015-10-11 22:08:36 16.8 54 10.0 69 0.0 ---
2015-10-11 21:38:36 17.4 54 9.7 69 0.0 ---
2015-10-11 21:08:36 18.1 52 9.5 68 0.0 ---
2015-10-11 20:38:36 18.9 52 9.3 68 0.0 ---
2015-10-11 20:08:36 19.7 53 9.1 68 0.0 ---
2015-10-11 19:38:36 20.7 53 9.5 66 0.0 ---
2015-10-11 19:08:36 21.8 53 9.5 65 0.0 ---
2015-10-11 18:38:36 22.9 51 9.8 66 0.0 ---
2015-10-11 18:08:36 24.1 51 10.1 65 0.0 ---
2015-10-11 17:38:36 25.6 51 11.2 63 0.0 ---
2015-10-11 17:08:36 26.9 52 11.4 61 0.4 ---
2015-10-11 16:38:36 28.2 50 11.7 61 0.0 ---
2015-10-11 16:08:36 29.1 50 12.2 58 0.0 ---
2015-10-11 15:38:36 29.7 51 12.4 56 0.4 ---
2015-10-11 15:08:36 30.0 51 12.5 55 0.4 ---
2015-10-11 14:38:36 30.1 51 13.0 56 0.9 ---
2015-10-11 14:08:36 29.9 51 13.2 57 0.9 ---
2015-10-11 13:38:36 29.7 51 13.6 60 0.0 ---
2015-10-11 13:08:36 29.1 52 13.2 59 0.0 ---
2015-10-11 12:38:36 28.1 51 13.2 56 0.9 ---
2015-10-11 12:08:36 26.3 53 13.4 58 0.4 ---
2015-10-11 11:38:36 24.5 54 13.0 58 0.4 ---
2015-10-11 11:08:36 21.8 56 13.4 58 0.0 ---
2015-10-11 10:38:36 19.0 56 12.5 57 0.9 ---
2015-10-11 10:08:36 16.7 58 12.4 65 0.4 ---
2015-10-11 09:38:36 14.1 57 11.9 68 0.4 ---
2015-10-11 09:08:36 13.2 57 11.2 70 0.4 ---
2015-10-11 08:38:36 12.9 57 11.2 71 0.0 ---
2015-10-11 08:08:36 12.8 57 10.9 72 0.0 ---
2015-10-11 07:38:36 12.8 57 10.9 72 0.0 ---
2015-10-11 07:08:36 13.0 57 11.0 72 0.0 ---
2015-10-11 06:38:36 13.1 57 11.2 73 0.0 ---
2015-10-11 06:08:36 13.2 57 11.2 73 0.0 ---
2015-10-11 05:38:36 13.3 57 11.0 74 0.0 ---
2015-10-11 05:08:36 13.5 57 11.2 74 0.0 ---
2015-10-11 04:38:36 13.6 57 11.2 77 0.0 ---
2015-10-11 04:08:36 13.8 57 11.0 77 0.0 ---
2015-10-11 03:38:36 14.0 57 11.0 76 0.0 ---
2015-10-11 03:08:36 14.2 57 11.2 76 0.0 ---
2015-10-11 02:38:36 14.4 58 11.6 75 0.0 ---
2015-10-11 02:08:36 14.6 58 11.9 75 0.0 ---
2015-10-11 01:38:36 14.8 58 12.0 78 0.0 ---
2015-10-11 01:08:36 15.0 58 11.8 78 0.0 ---
2015-10-11 00:38:36 15.2 58 12.2 78 0.0 ---
2015-10-11 00:08:36 15.4 58 12.4 80 0.0 ---
2015-10-10 23:38:36 15.6 58 13.0 83 0.0 ---
2015-10-10 23:08:36 15.9 58 12.5 86 0.4 ---
2015-10-10 22:38:36 16.2 58 11.9 91 0.4 ---
2015-10-10 22:08:36 16.6 58 11.9 91 0.4 ---
2015-10-10 21:38:36 16.9 58 12.1 90 0.4 ---
2015-10-10 21:08:36 17.4 58 12.2 88 0.4 ---
2015-10-10 20:38:36 17.8 56 12.2 86 0.4 ---
2015-10-10 20:08:36 18.2 56 12.4 84 0.4 ---
2015-10-10 19:38:36 18.8 57 12.4 84 0.4 ---
2015-10-10 19:08:36 19.2 57 12.5 80 0.4 ---
2015-10-10 18:38:36 19.7 57 13.0 79 0.4 ---
2015-10-10 18:08:36 20.3 57 13.4 77 0.4 ---
2015-10-10 17:38:36 20.9 57 13.8 76 0.0 ---
2015-10-10 17:08:36 21.5 56 13.9 76 0.0 ---
2015-10-10 16:38:36 22.1 56 13.9 75 0.4 ---
2015-10-10 16:08:36 22.7 54 14.1 73 0.4 ---
2015-10-10 15:38:36 23.1 55 14.3 72 0.9 ---
2015-10-10 15:08:36 23.5 55 14.6 72 0.9 ---
2015-10-10 14:38:36 23.9 55 14.6 71 0.4 ---
2015-10-10 14:08:36 24.1 55 14.8 70 0.4 ---
2015-10-10 13:38:36 24.4 55 15.0 70 0.0 ---
2015-10-10 13:08:36 24.6 55 14.6 73 0.9 ---
2015-10-10 12:38:36 24.3 55 14.1 73 0.9 ---
2015-10-10 12:08:36 24.1 54 13.7 73 1.3 ---
2015-10-10 11:38:36 24.0 54 14.0 73 0.4 ---
2015-10-10 11:08:36 22.8 54 14.0 73 0.9 ---
2015-10-10 10:38:36 21.2 56 13.8 75 0.4 ---
2015-10-10 10:08:36 18.6 55 12.5 99 0.4 ---
2015-10-10 09:38:36 15.7 57 11.0 99 0.0 ---
2015-10-10 09:08:36 12.8 56 10.5 99 0.0 ---
2015-10-10 08:38:36 10.6 57 7.1 99 0.0 ---
2015-10-10 08:08:36 10.3 57 6.1 99 0.0 ---
2015-10-10 07:38:36 10.4 57 5.6 99 0.0 ---
2015-10-10 07:08:36 10.5 57 5.6 99 0.0 ---
2015-10-10 06:38:36 10.8 57 5.9 99 0.0 ---
2015-10-10 06:08:36 11.0 57 6.3 99 0.0 ---
2015-10-10 05:38:36 11.2 57 6.0 99 0.0 ---
2015-10-10 05:08:36 11.6 58 6.0 99 0.0 ---
2015-10-10 04:38:36 11.9 58 6.3 99 0.0 ---
2015-10-10 04:08:36 12.2 58 6.4 99 0.0 ---
2015-10-10 03:38:36 12.6 56 6.4 99 0.0 ---
2015-10-10 03:08:36 12.9 56 6.1 99 0.0 ---
2015-10-10 02:38:36 13.4 56 6.0 99 0.0 ---
2015-10-10 02:08:36 13.9 56 6.3 99 0.0 ---
2015-10-10 01:38:36 14.2 57 6.8 99 0.0 ---
2015-10-10 01:08:36 14.8 57 6.0 99 0.0 ---
2015-10-10 00:38:36 15.3 57 7.0 99 0.0 ---
2015-10-10 00:08:36 15.8 57 7.1 99 0.0 ---
2015-10-09 23:38:36 16.3 58 6.8 99 0.0 ---
2015-10-09 23:08:36 16.9 58 7.4 99 0.0 ---
2015-10-09 22:38:36 17.4 58 8.1 98 0.0 ---
2015-10-09 22:08:36 18.1 56 8.3 97 0.0 ---
2015-10-09 21:38:36 18.9 56 8.3 95 0.0 ---
2015-10-09 21:08:36 19.6 57 8.5 94 0.0 ---
2015-10-09 20:38:36 20.4 57 9.3 92 0.0 ---
2015-10-09 20:08:36 21.3 57 9.3 90 0.0 ---
2015-10-09 19:38:36 22.3 57 9.8 85 0.0 ---
2015-10-09 19:08:36 23.4 55 11.2 84 0.0 ---
2015-10-09 18:38:36 24.4 55 12.3 80 0.0 ---
2015-10-09 18:08:36 25.6 55 13.8 73 0.0 ---
2015-10-09 17:38:36 26.7 56 15.6 67 0.0 ---
2015-10-09 17:08:36 28.0 54 15.6 68 0.0 ---
2015-10-09 16:38:36 28.8 54 16.2 65 0.0 ---
2015-10-09 16:08:36 29.3 55 16.2 62 0.0 ---
2015-10-09 15:38:36 29.6 54 16.0 63 0.0 ---
2015-10-09 15:08:36 29.8 54 16.7 61 0.0 ---
2015-10-09 14:38:36 29.6 54 16.2 63 0.0 ---
2015-10-09 14:08:36 28.8 54 16.2 62 0.0 ---
2015-10-09 13:38:36 27.5 54 16.0 65 0.0 ---
2015-10-09 13:08:36 25.8 55 15.8 69 0.0 ---
2015-10-09 12:38:36 23.7 54 16.1 69 0.0 ---
2015-10-09 12:08:36 21.3 56 15.0 71 0.0 ---
2015-10-09 11:38:36 19.9 56 15.4 70 0.0 ---
2015-10-09 11:08:36 17.9 56 14.6 73 0.0 ---
2015-10-09 10:38:36 14.7 57 13.0 89 0.0 ---
2015-10-09 10:08:36 12.0 58 11.4 98 0.0 ---
2015-10-09 09:38:36 11.3 58 11.2 99 0.0 ---
2015-10-09 09:08:36 11.0 58 10.2 99 0.0 ---
2015-10-09 08:38:36 10.9 58 9.7 99 0.0 ---
2015-10-09 08:08:36 10.8 58 9.0 99 0.0 ---
2015-10-09 07:38:36 10.8 58 8.3 99 0.0 ---
2015-10-09 07:08:36 10.9 58 8.2 99 0.0 ---
2015-10-09 06:38:36 11.1 58 8.2 99 0.0 ---
2015-10-09 06:08:36 11.1 58 8.3 99 0.0 ---
2015-10-09 05:38:36 11.2 58 8.0 99 0.0 ---
2015-10-09 05:08:36 11.3 58 7.5 99 0.0 ---
2015-10-09 04:38:36 11.6 58 7.4 99 0.0 ---
2015-10-09 04:08:36 11.8 58 7.1 99 0.0 ---
2015-10-09 03:38:36 12.0 58 7.1 99 0.0 ---
2015-10-09 03:08:36 12.3 58 7.7 99 0.0 ---
2015-10-09 02:38:36 12.6 56 7.8 99 0.0 ---
2015-10-09 02:08:36 12.9 56 7.8 99 0.0 ---
2015-10-09 01:38:36 13.1 56 8.1 99 0.0 ---
2015-10-09 01:08:36 13.4 56 8.3 99 0.0 ---
2015-10-09 00:38:36 13.7 56 8.3 99 0.0 ---
2015-10-09 00:08:36 14.0 56 8.3 99 0.0 ---
2015-10-08 23:38:36 14.4 56 7.8 99 0.0 ---
2015-10-08 23:08:36 14.8 56 8.0 99 0.0 ---
2015-10-08 22:38:36 15.2 56 8.3 99 0.0 ---
2015-10-08 22:08:36 15.6 57 8.1 98 0.0 ---
2015-10-08 21:38:36 16.1 57 8.3 97 0.0 ---
2015-10-08 21:08:36 16.6 57 8.3 95 0.0 ---
2015-10-08 20:38:36 17.1 57 8.8 94 0.0 ---
2015-10-08 20:08:36 17.6 55 9.0 92 0.0 ---
2015-10-08 19:38:36 18.2 55 9.3 89 0.0 ---
2015-10-08 19:08:36 18.8 55 10.0 87 0.0 ---
2015-10-08 18:38:36 19.3 55 10.9 83 0.0 ---
2015-10-08 18:08:36 19.8 55 12.5 73 0.0 ---
2015-10-08 17:38:36 20.1 55 14.6 68 0.0 ---
2015-10-08 17:08:36 20.2 55 15.0 64 0.0 ---
2015-10-08 16:38:36 19.9 54 15.0 62 0.0 ---
2015-10-08 16:08:36 20.5 53 15.0 64 0.0 ---
2015-10-08 15:38:36 21.3 52 15.0 63 0.0 ---
2015-10-08 15:08:36 22.1 52 15.4 61 0.4 ---
2015-10-08 14:38:36 22.4 52 15.4 62 0.4 ---
2015-10-08 14:08:36 22.4 52 15.4 62 0.4 ---
2015-10-08 13:38:36 22.4 52 14.3 62 0.4 ---
2015-10-08 13:08:36 22.8 50 14.3 61 0.9 ---
2015-10-08 12:38:36 22.7 51 13.9 62 0.4 ---
2015-10-08 12:08:36 22.3 54 14.0 65 0.9 ---
2015-10-08 11:38:36 21.5 56 13.4 63 0.9 ---
2015-10-08 11:08:36 20.3 58 12.5 67 0.9 ---
2015-10-08 10:38:36 19.0 59 12.0 71 0.9 ---
2015-10-08 10:08:36 17.8 61 11.7 74 0.9 ---
2015-10-08 09:38:36 16.1 64 10.9 75 0.4 ---
2015-10-08 09:08:36 14.2 63 11.2 74 0.4 ---
2015-10-08 08:38:36 12.2 63 12.2 96 0.0 ---
2015-10-08 08:08:36 10.7 63 7.5 92 0.0 ---
2015-10-08 07:38:36 10.7 63 6.3 94 0.0 ---
2015-10-08 07:08:36 10.9 63 6.3 94 0.0 ---
2015-10-08 06:38:36 11.1 63 6.3 93 0.0 ---
2015-10-08 06:08:36 11.4 63 6.7 92 0.0 ---
2015-10-08 05:38:36 11.6 63 6.8 91 0.0 ---
2015-10-08 05:08:36 11.9 64 7.1 90 0.0 ---
2015-10-08 04:38:36 12.2 64 7.4 88 0.0 ---
2015-10-08 04:08:36 12.4 64 8.0 85 0.0 ---
2015-10-08 03:38:36 12.7 62 8.5 85 0.0 ---
2015-10-08 03:08:36 12.8 62 9.3 87 0.0 ---
2015-10-08 02:38:36 13.1 62 9.3 85 0.0 ---
2015-10-08 02:08:36 13.3 63 9.1 83 0.0 ---
2015-10-08 01:38:36 13.4 63 9.7 79 0.0 ---
2015-10-08 01:08:36 13.6 63 10.4 79 0.0 ---
2015-10-08 00:38:36 13.8 63 11.2 79 0.0 ---
2015-10-08 00:08:36 14.0 63 11.6 78 0.0 ---
2015-10-07 23:38:36 14.1 64 11.7 78 0.0 ---
2015-10-07 23:08:36 14.4 64 11.9 78 0.0 ---
2015-10-07 22:38:36 14.5 64 12.1 77 0.0 ---
2015-10-07 22:08:36 14.7 64 12.1 77 0.0 ---
2015-10-07 21:38:36 14.9 65 12.3 76 0.0 ---
2015-10-07 21:08:36 15.2 65 12.5 72 0.0 ---
2015-10-07 20:38:36 15.4 65 12.4 75 0.0 ---
2015-10-07 20:08:36 15.7 66 12.4 75 0.0 ---
2015-10-07 19:38:36 16.0 66 13.0 72 0.0 ---
2015-10-07 19:08:36 16.3 67 13.2 72 0.0 ---
2015-10-07 18:38:36 16.6 67 13.8 71 0.0 ---
2015-10-07 18:08:36 17.0 68 14.6 71 0.0 ---
2015-10-07 17:38:36 17.3 68 15.4 70 0.0 ---
2015-10-07 17:08:36 17.4 69 16.2 72 0.0 ---
2015-10-07 16:38:36 17.6 68 16.1 74 0.0 ---
2015-10-07 16:08:36 17.6 69 16.1 73 0.0 ---
2015-10-07 15:38:36 17.8 70 17.6 69 0.0 ---
2015-10-07 15:08:36 17.7 70 17.1 73 0.0 ---
2015-10-07 14:38:36 17.5 71 17.1 74 0.0 ---
2015-10-07 14:08:36 17.8 71 17.4 74 0.0 ---
2015-10-07 13:38:36 18.0 72 17.9 74 0.0 ---
2015-10-07 13:08:36 18.0 73 17.6 76 0.0 ---
2015-10-07 12:38:36 17.9 72 17.6 75 0.0 ---
2015-10-07 12:08:36 18.0 71 17.6 74 0.0 ---
2015-10-07 11:38:36 18.1 71 17.9 74 0.0 ---
2015-10-07 11:08:36 17.9 70 17.6 74 0.0 ---
2015-10-07 10:38:36 18.2 67 17.6 75 0.0 ---
2015-10-07 10:08:36 17.8 68 20.6 68 0.0 ---
2015-10-07 09:38:36 16.7 59 19.8 81 0.0 ---
2015-10-07 09:08:36 16.4 59 18.1 90 0.0 ---
2015-10-07 08:38:36 16.3 59 15.2 93 0.0 ---
2015-10-07 08:08:36 16.2 59 14.3 93 0.0 ---
2015-10-07 07:38:36 16.2 59 14.1 92 0.0 ---
2015-10-07 07:08:36 16.3 59 14.2 93 0.0 ---
2015-10-07 06:38:36 16.3 59 14.2 93 0.0 ---
2015-10-07 06:08:36 16.4 59 14.0 92 0.0 ---
2015-10-07 05:38:36 16.4 59 14.0 92 0.0 ---
2015-10-07 05:08:36 16.5 59 13.8 92 0.0 ---
2015-10-07 04:38:36 16.6 59 13.4 90 0.0 ---
2015-10-07 04:08:36 16.7 59 13.2 90 0.0 ---
2015-10-07 03:38:36 16.9 59 13.2 90 0.0 ---
2015-10-07 03:08:36 17.1 59 13.2 89 0.0 ---
2015-10-07 02:38:36 17.3 59 --- --- --- ---
2015-10-07 02:08:36 17.5 57 13.0 88 0.0 ---
2015-10-07 01:38:36 17.8 57 13.0 88 0.0 ---
2015-10-07 01:08:36 17.9 57 13.0 87 0.0 ---
2015-10-07 00:38:36 18.1 58 13.2 87 0.0 ---
2015-10-07 00:08:36 18.4 58 13.6 87 0.0 ---
2015-10-06 23:38:36 18.7 58 13.6 86 0.0 ---
2015-10-06 23:08:36 19.0 58 13.8 85 0.0 ---
2015-10-06 22:38:36 19.3 58 13.8 85 0.0 ---
2015-10-06 22:08:36 19.6 58 14.2 85 0.0 ---
2015-10-06 21:38:36 20.0 58 14.2 83 0.0 ---
2015-10-06 21:08:36 20.3 58 14.7 82 0.0 ---
2015-10-06 20:38:36 20.8 59 15.2 82 0.0 ---
2015-10-06 20:08:36 21.2 59 16.1 83 0.0 ---
2015-10-06 19:38:36 21.6 59 16.3 81 0.0 ---
2015-10-06 19:08:36 22.1 59 16.4 80 0.0 ---
2015-10-06 18:38:36 22.5 57 17.1 77 0.0 ---
2015-10-06 18:08:36 23.1 57 18.7 71 0.0 ---
2015-10-06 17:38:36 23.5 57 20.3 68 0.0 ---
2015-10-06 17:08:36 24.1 57 22.6 61 0.0 ---
2015-10-06 16:38:36 24.6 57 25.3 66 0.0 ---
2015-10-06 16:08:36 24.3 57 19.8 69 0.0 ---
2015-10-06 15:38:36 24.4 58 22.6 59 0.0 ---
2015-10-06 15:08:36 25.5 56 25.3 58 0.0 ---
2015-10-06 14:38:36 27.0 52 23.2 60 0.0 ---
2015-10-06 14:08:36 30.1 47 24.3 60 0.0 ---
2015-10-06 13:38:36 34.2 51 23.6 64 0.0 ---
2015-10-06 13:08:36 34.0 51 22.3 63 0.0 ---
2015-10-06 12:38:36 34.0 52 24.7 59 0.0 ---
2015-10-06 12:08:36 33.1 53 21.5 65 0.0 ---
2015-10-06 11:38:36 32.2 55 22.9 65 0.0 ---
2015-10-06 11:08:36 29.9 57 21.2 68 0.0 ---
2015-10-06 10:38:36 26.3 62 23.2 72 0.0 ---
2015-10-06 10:08:36 21.3 67 18.6 83 0.0 ---
2015-10-06 09:38:36 16.8 67 17.9 86 0.0 ---
2015-10-06 09:08:36 16.3 64 17.1 93 0.0 ---
2015-10-06 08:38:36 16.2 65 16.1 94 0.0 ---
2015-10-06 08:08:36 16.2 65 15.4 94 0.0 ---
2015-10-06 07:38:36 16.3 65 15.2 93 0.0 ---
2015-10-06 07:08:36 16.4 65 15.2 93 0.0 ---
2015-10-06 06:38:36 16.3 65 15.2 93 0.0 ---
2015-10-06 06:08:36 16.4 65 15.2 92 0.0 ---
2015-10-06 05:38:36 16.5 65 15.2 92 0.0 ---
2015-10-06 05:08:36 16.6 65 15.2 92 0.0 ---
2015-10-06 04:38:36 16.6 65 15.2 92 0.0 ---
2015-10-06 04:08:36 16.7 65 15.2 92 0.0 ---
2015-10-06 03:38:36 16.7 65 15.4 92 0.0 ---
2015-10-06 03:08:36 16.8 65 15.4 92 0.0 ---
2015-10-06 02:38:36 16.9 65 15.6 92 0.0 ---
2015-10-06 02:08:36 16.9 65 15.6 91 0.0 ---
2015-10-06 01:38:36 16.8 65 15.6 91 0.0 ---
2015-10-06 01:08:36 17.1 65 15.6 91 0.0 ---
2015-10-06 00:38:36 17.2 65 15.9 91 0.0 ---
2015-10-06 00:08:36 17.3 65 15.9 91 0.0 ---
2015-10-05 23:38:36 17.4 65 15.9 90 0.0 ---
2015-10-05 23:08:36 17.5 62 16.1 90 0.0 ---
2015-10-05 22:38:36 17.5 62 16.1 90 0.0 ---
2015-10-05 22:08:36 17.7 62 16.1 90 0.0 ---
2015-10-05 21:38:36 17.8 62 16.1 89 0.0 ---
2015-10-05 21:08:36 17.8 62 16.1 88 0.0 ---
2015-10-05 20:38:36 18.1 62 16.1 88 0.0 ---
2015-10-05 20:08:36 18.3 62 16.3 86 0.0 ---
2015-10-05 19:38:36 18.5 61 16.3 85 0.0 ---
2015-10-05 19:08:36 18.6 61 16.2 84 0.0 ---
2015-10-05 18:38:36 19.0 61 16.4 82 0.0 ---
2015-10-05 18:08:36 19.3 61 16.9 81 0.0 ---
2015-10-05 17:38:36 19.6 61 17.4 80 0.0 ---
2015-10-05 17:08:36 20.1 61 17.6 76 0.0 ---
2015-10-05 16:38:36 20.6 60 17.6 75 0.0 ---
2015-10-05 16:08:36 21.3 61 17.9 74 0.0 ---
2015-10-05 15:38:36 22.2 61 18.1 73 0.0 ---
2015-10-05 15:08:36 23.5 59 18.3 75 0.0 ---
2015-10-05 14:38:36 22.6 61 17.4 79 0.0 ---
2015-10-05 14:08:36 19.8 66 17.4 78 0.0 ---
2015-10-05 13:38:36 15.7 66 17.1 78 0.0 ---
2015-10-05 13:08:36 14.9 60 17.9 74 0.0 ---
2015-10-05 12:38:36 14.7 60 17.9 74 0.0 ---
2015-10-05 12:08:36 14.3 60 17.9 75 0.0 ---
2015-10-05 11:38:36 13.9 60 16.4 81 0.0 ---
2015-10-05 11:08:36 13.6 59 16.1 83 0.0 ---
2015-10-05 10:38:36 13.2 59 15.2 85 0.0 ---
2015-10-05 10:08:36 13.0 59 14.8 86 0.0 ---
2015-10-05 09:38:36 12.7 58 14.1 85 0.0 ---
2015-10-05 09:08:36 12.4 60 14.2 86 0.0 ---
2015-10-05 08:38:36 12.1 60 14.0 88 0.0 ---
2015-10-05 08:08:36 11.8 59 13.6 90 0.0 ---
2015-10-05 07:38:36 11.4 59 12.4 95 0.0 ---
2015-10-05 07:08:36 11.1 57 12.1 96 0.0 ---
2015-10-05 06:38:36 10.8 56 11.2 95 0.0 ---
2015-10-05 06:08:36 10.6 55 10.2 93 0.0 ---
2015-10-05 05:38:36 10.6 54 9.0 91 0.0 ---
2015-10-05 05:08:36 10.6 54 8.1 89 0.0 ---
2015-10-05 04:38:36 10.6 54 8.1 90 0.0 ---
2015-10-05 04:08:36 10.7 54 7.4 93 0.0 ---
2015-10-05 03:38:36 10.9 53 6.0 89 0.0 ---
2015-10-05 03:08:36 11.0 54 5.6 88 0.0 ---
2015-10-05 02:38:36 11.3 54 5.6 88 0.0 ---
2015-10-05 02:08:36 11.6 54 5.6 87 0.0 ---
2015-10-05 01:38:36 11.8 54 5.5 86 0.0 ---
2015-10-05 01:08:36 12.2 54 5.4 85 0.0 ---
2015-10-05 00:38:36 12.6 52 5.5 84 0.0 ---
2015-10-05 00:08:36 12.9 52 5.9 83 0.0 ---
2015-10-04 23:38:36 13.4 52 6.3 83 0.0 ---
2015-10-04 23:08:36 13.8 53 6.5 83 0.0 ---
2015-10-04 22:38:36 14.3 53 6.5 82 0.0 ---
2015-10-04 22:08:36 14.8 53 6.7 81 0.0 ---
2015-10-04 21:38:36 15.3 53 7.1 79 0.0 ---
2015-10-04 21:08:36 15.8 53 7.5 74 0.0 ---
2015-10-04 20:38:36 16.5 53 8.0 72 0.0 ---
2015-10-04 20:08:36 17.1 53 8.8 71 0.0 ---
2015-10-04 19:38:36 17.8 51 9.5 69 0.0 ---
2015-10-04 19:08:36 18.4 51 10.8 67 0.0 ---
2015-10-04 18:38:36 19.2 51 12.3 63 0.0 ---
2015-10-04 18:08:36 20.0 51 14.8 56 0.0 ---
2015-10-04 17:38:36 20.9 51 18.4 49 0.0 ---
2015-10-04 17:08:36 21.6 51 20.8 48 0.0 ---
2015-10-04 16:38:36 22.0 51 21.1 49 0.0 ---
2015-10-04 16:08:36 22.2 51 21.1 49 0.0 ---
2015-10-04 15:38:36 22.5 49 21.2 46 0.0 ---
2015-10-04 15:08:36 23.0 49 23.2 40 0.0 ---
2015-10-04 14:38:36 23.4 49 26.3 41 0.0 ---
2015-10-04 14:08:36 23.2 48 29.3 34 0.0 ---
2015-10-04 13:38:36 22.2 50 31.1 37 0.0 ---
2015-10-04 13:08:36 20.3 50 30.7 39 0.0 ---
2015-10-04 12:38:36 17.5 50 28.4 46 0.0 ---
2015-10-04 12:08:36 15.8 52 25.3 53 0.0 ---
2015-10-04 11:38:36 14.3 52 21.2 60 0.0 ---
2015-10-04 11:08:36 13.6 52 19.2 65 0.0 ---
2015-10-04 10:38:36 13.0 52 17.9 68 0.0 ---
2015-10-04 10:08:36 12.7 52 15.0 76 0.0 ---
2015-10-04 09:38:36 12.4 54 12.5 78 0.0 ---
2015-10-04 09:08:36 12.4 54 12.2 83 0.0 ---
2015-10-04 08:38:36 12.4 54 12.1 86 0.0 ---
2015-10-04 08:08:36 12.4 54 10.9 87 0.0 ---
2015-10-04 07:38:36 12.4 54 10.4 87 0.0 ---
2015-10-04 07:08:36 12.5 52 10.5 87 0.0 ---
2015-10-04 06:38:36 12.6 52 10.5 87 0.0 ---
2015-10-04 06:08:36 12.8 52 10.5 86 0.0 ---
2015-10-04 05:38:36 12.8 52 10.4 86 0.0 ---
2015-10-04 05:08:36 12.8 52 10.4 86 0.0 ---
2015-10-04 04:38:36 13.0 52 10.5 86 0.0 ---
2015-10-04 04:08:36 13.2 52 10.7 86 0.0 ---
2015-10-04 03:38:36 13.3 52 11.0 86 0.0 ---
2015-10-04 03:08:36 13.4 52 11.2 86 0.0 ---
2015-10-04 02:38:36 13.5 52 11.4 86 0.0 ---
2015-10-04 02:08:36 13.6 52 11.4 86 0.0 ---
2015-10-04 01:38:36 13.7 52 11.6 85 0.0 ---
2015-10-04 01:08:36 13.8 52 11.6 85 0.0 ---
2015-10-04 00:38:36 13.9 52 11.7 85 0.0 ---
2015-10-04 00:08:36 14.1 53 11.7 85 0.0 ---
2015-10-03 23:38:36 14.3 53 11.7 84 0.0 ---
2015-10-03 23:08:36 14.5 53 11.7 84 0.0 ---
2015-10-03 22:38:36 14.6 53 11.6 84 0.0 ---
2015-10-03 22:08:36 14.9 53 11.4 84 0.0 ---
2015-10-03 21:38:36 15.1 53 11.0 83 0.0 ---
2015-10-03 21:08:36 15.5 53 10.5 81 0.0 ---
2015-10-03 20:38:36 15.8 53 10.5 79 0.0 ---
2015-10-03 20:08:36 16.1 53 11.2 78 0.0 ---
2015-10-03 19:38:36 16.5 53 11.9 76 0.0 ---
2015-10-03 19:08:36 17.0 53 12.7 71 0.0 ---
2015-10-03 18:38:36 17.4 53 13.4 70 0.0 ---
2015-10-03 18:08:36 17.9 51 14.6 67 0.0 ---
2015-10-03 17:38:36 18.2 51 15.9 65 0.0 ---
2015-10-03 17:08:36 18.7 51 16.4 62 0.0 ---
2015-10-03 16:38:36 19.1 51 18.6 55 0.0 ---
2015-10-03 16:08:36 19.3 51 21.2 54 0.0 ---
2015-10-03 15:38:36 19.3 51 22.3 52 0.0 ---
2015-10-03 15:08:36 19.3 50 25.3 48 0.0 ---
2015-10-03 14:38:36 18.8 50 24.7 50 0.0 ---
2015-10-03 14:08:36 18.3 50 22.9 53 0.0 ---
2015-10-03 13:38:36 18.0 50 21.5 55 0.0 ---
2015-10-03 13:08:36 17.8 50 21.2 56 0.0 ---
2015-10-03 12:38:36 17.6 50 22.9 52 0.0 ---
2015-10-03 12:08:36 16.7 52 23.6 57 0.0 ---
2015-10-03 11:38:36 16.0 51 20.6 62 0.0 ---
2015-10-03 11:08:36 15.8 51 19.8 61 0.0 ---
2015-10-03 10:38:36 15.5 51 21.5 60 0.0 ---
2015-10-03 10:08:36 14.3 50 19.5 64 0.0 ---
2015-10-03 09:38:36 13.2 50 17.6 71 0.0 ---
2015-10-03 09:08:36 12.6 50 15.2 79 0.0 ---
2015-10-03 08:38:36 12.3 52 13.0 83 0.0 ---
2015-10-03 08:08:36 12.3 52 10.9 89 0.0 ---
2015-10-03 07:38:36 12.3 52 9.5 88 0.0 ---
2015-10-03 07:08:36 12.4 52 9.1 87 0.0 ---
2015-10-03 06:38:36 12.5 50 9.3 86 0.0 ---
2015-10-03 06:08:36 12.6 50 9.3 85 0.0 ---
2015-10-03 05:38:36 12.7 50 9.8 86 0.0 ---
2015-10-03 05:08:36 12.9 50 9.8 87 0.0 ---
2015-10-03 04:38:36 13.1 51 9.3 87 0.0 ---
2015-10-03 04:08:36 13.3 51 8.6 86 0.0 ---
2015-10-03 03:38:36 13.6 51 7.7 85 0.0 ---
2015-10-03 03:08:36 13.9 51 6.6 85 0.0 ---
2015-10-03 02:38:36 14.3 51 7.0 83 0.0 ---
2015-10-03 02:08:36 14.7 51 8.1 83 0.0 ---
2015-10-03 01:38:36 15.0 52 8.0 83 0.0 ---
2015-10-03 01:08:36 15.5 52 7.2 86 0.0 ---
2015-10-03 00:38:36 16.1 52 6.8 84 0.0 ---
2015-10-03 00:08:36 16.7 52 6.6 83 0.0 ---
2015-10-02 23:38:36 17.3 53 7.1 82 0.0 ---
2015-10-02 23:08:36 18.0 51 7.5 78 0.0 ---
2015-10-02 22:38:36 18.8 51 7.4 82 0.0 ---
2015-10-02 22:08:36 19.6 51 7.2 79 0.0 ---
2015-10-02 21:38:36 20.5 52 7.7 74 0.0 ---
2015-10-02 21:08:36 21.5 52 8.5 73 0.0 ---
2015-10-02 20:38:36 22.6 50 9.0 70 0.0 ---
2015-10-02 20:08:36 23.6 50 9.8 68 0.0 ---
2015-10-02 19:38:36 24.8 50 11.0 66 0.0 ---
2015-10-02 19:08:36 26.0 50 12.8 61 0.0 ---
2015-10-02 18:38:36 27.5 48 15.1 58 0.0 ---
2015-10-02 18:08:36 29.0 48 17.9 50 0.0 ---
2015-10-02 17:38:36 30.6 48 23.6 39 0.0 ---
2015-10-02 17:08:36 32.3 48 27.5 34 0.0 ---
2015-10-02 16:38:36 33.8 46 30.7 31 0.0 ---
2015-10-02 16:08:36 35.0 46 33.2 27 0.0 ---
2015-10-02 15:38:36 35.9 46 35.1 26 0.0 ---
2015-10-02 15:08:36 35.6 46 35.7 27 0.0 ---
2015-10-02 14:38:36 35.0 46 35.7 28 0.0 ---
2015-10-02 14:08:36 34.1 46 35.1 29 0.0 ---
2015-10-02 13:38:36 32.9 46 34.5 31 0.0 ---
2015-10-02 13:08:36 31.5 47 33.2 31 0.0 ---
2015-10-02 12:38:36 29.5 47 34.3 33 0.0 ---
2015-10-02 12:08:36 26.9 48 30.7 40 0.0 ---
2015-10-02 11:38:36 24.8 48 27.9 42 0.0 ---
2015-10-02 11:08:36 23.2 48 26.7 45 0.0 ---
2015-10-02 10:38:36 21.7 50 29.7 45 0.0 ---
2015-10-02 10:08:36 18.4 50 27.1 55 0.0 ---
2015-10-02 09:38:36 16.5 51 23.3 57 0.0 ---
2015-10-02 09:08:36 14.8 51 20.9 68 0.0 ---
2015-10-02 08:38:36 13.2 51 16.9 79 0.0 ---
2015-10-02 08:08:36 12.0 53 10.5 88 0.0 ---
2015-10-02 07:38:36 12.0 53 8.0 86 0.0 ---
2015-10-02 07:08:36 12.1 53 8.0 86 0.0 ---
2015-10-02 06:38:36 12.3 53 8.1 85 0.0 ---
2015-10-02 06:08:36 12.4 53 8.5 85 0.0 ---
2015-10-02 05:38:36 12.5 51 9.0 85 0.0 ---
2015-10-02 05:08:36 12.7 51 9.5 84 0.0 ---
2015-10-02 04:38:36 12.8 51 10.0 85 0.0 ---
2015-10-02 04:08:36 12.9 51 10.2 85 0.0 ---
2015-10-02 03:38:36 13.1 51 10.2 85 0.0 ---
2015-10-02 03:08:36 13.2 51 9.8 84 0.0 ---
2015-10-02 02:38:36 13.4 51 9.7 85 0.0 ---
2015-10-02 02:08:36 13.6 51 9.3 85 0.0 ---
2015-10-02 01:38:36 13.9 51 8.5 85 0.0 ---
2015-10-02 01:08:36 14.3 51 7.7 82 0.0 ---
2015-10-02 00:38:36 14.6 52 7.7 82 0.0 ---
2015-10-02 00:08:36 15.1 52 8.0 83 0.0 ---
2015-10-01 23:38:36 15.5 52 7.5 80 0.0 ---
2015-10-01 23:08:36 16.1 52 7.5 80 0.0 ---
2015-10-01 22:38:36 16.6 52 7.5 78 0.0 ---
2015-10-01 22:08:36 17.1 53 7.8 78 0.0 ---
2015-10-01 21:38:36 17.8 51 8.1 75 0.0 ---
2015-10-01 21:08:36 18.5 51 8.8 73 0.0 ---
2015-10-01 20:38:36 19.2 51 9.5 72 0.0 ---
2015-10-01 20:08:36 19.9 51 10.7 70 0.0 ---
2015-10-01 19:38:36 20.7 51 11.6 68 0.0 ---
2015-10-01 19:08:36 21.4 51 12.5 62 0.0 ---
2015-10-01 18:38:36 22.2 51 15.0 59 0.0 ---
2015-10-01 18:08:36 22.9 49 18.1 51 0.0 ---
2015-10-01 17:38:36 23.6 48 23.2 42 0.0 ---
2015-10-01 17:08:36 24.3 48 27.1 39 0.0 ---
2015-10-01 16:38:36 24.4 48 28.4 37 0.0 ---
2015-10-01 16:08:36 23.7 48 27.9 39 0.0 ---
2015-10-01 15:38:36 24.4 47 27.5 36 0.0 ---
2015-10-01 15:08:36 25.4 48 29.8 35 0.0 ---
2015-10-01 14:38:36 25.4 48 29.8 37 0.0 ---
2015-10-01 14:08:36 25.8 45 29.3 35 0.0 ---
2015-10-01 13:38:36 26.1 45 29.8 35 0.0 ---
2015-10-01 13:08:36 26.1 46 29.3 36 0.0 ---
2015-10-01 12:38:36 25.8 47 28.8 39 0.0 ---
2015-10-01 12:08:36 25.7 49 28.4 40 0.0 ---
2015-10-01 11:38:36 25.1 51 27.1 46 0.0 ---
2015-10-01 11:08:36 23.6 53 26.7 49 0.0 ---
2015-10-01 10:38:36 22.7 53 25.6 50 0.0 ---
2015-10-01 10:08:36 22.2 58 25.6 54 0.0 ---
2015-10-01 09:38:36 16.8 50 23.3 60 0.0 ---
2015-10-01 09:08:36 14.5 50 19.5 68 0.0 ---
2015-10-01 08:38:36 12.6 51 14.6 85 0.0 ---
2015-10-01 08:08:36 11.9 53 10.2 92 0.0 ---
2015-10-01 07:38:36 11.8 53 7.5 91 0.0 ---
2015-10-01 07:08:36 11.9 53 6.5 93 0.0 ---
2015-10-01 06:38:36 12.1 53 6.3 93 0.0 ---
2015-10-01 06:08:36 12.4 53 6.7 92 0.0 ---
2015-10-01 05:38:36 12.7 51 6.8 92 0.0 ---
2015-10-01 05:08:36 13.0 51 7.0 91 0.0 ---
2015-10-01 04:38:36 13.3 52 7.1 91 0.0 ---
2015-10-01 04:08:36 13.5 52 7.4 90 0.0 ---
2015-10-01 03:38:36 14.0 52 7.7 86 0.0 ---
2015-10-01 03:08:36 14.2 52 8.0 85 0.0 ---
2015-10-01 02:38:36 14.6 52 8.5 84 0.0 ---
2015-10-01 02:08:36 14.9 52 9.0 84 0.0 ---
2015-10-01 01:38:36 15.3 52 9.8 84 0.0 ---
2015-10-01 01:08:36 15.6 53 10.3 84 0.0 ---
2015-10-01 00:38:36 15.9 53 10.8 84 0.0 ---
2015-10-01 00:08:36 16.2 53 11.0 84 0.0 ---
2015-09-30 23:38:36 16.6 53 11.0 83 0.0 ---
2015-09-30 23:08:36 16.9 53 11.4 83 0.0 ---
2015-09-30 22:38:36 17.4 53 11.4 82 0.0 ---
2015-09-30 22:08:36 17.8 51 11.6 80 0.0 ---
2015-09-30 21:38:36 18.3 51 11.7 79 0.0 ---
2015-09-30 21:08:36 18.8 51 11.9 78 0.0 ---
2015-09-30 20:38:36 19.5 51 12.3 77 0.0 ---
2015-09-30 20:08:36 20.1 51 12.7 71 0.0 ---
2015-09-30 19:38:36 20.9 51 13.0 68 0.0 ---
2015-09-30 19:08:36 21.7 51 14.0 65 0.0 ---
2015-09-30 18:38:36 22.5 49 15.6 61 0.0 ---
2015-09-30 18:08:36 23.4 48 18.1 53 0.0 ---
2015-09-30 17:38:36 24.4 48 22.6 45 0.0 ---
2015-09-30 17:08:36 25.3 48 25.6 41 0.0 ---
2015-09-30 16:38:36 26.0 48 27.5 37 0.0 ---
2015-09-30 16:08:36 25.9 48 28.8 36 0.0 ---
2015-09-30 15:38:36 24.9 48 28.8 36 0.0 ---
2015-09-30 15:08:36 24.3 48 27.5 39 0.0 ---
2015-09-30 14:38:36 25.0 47 28.4 35 0.0 ---
2015-09-30 14:08:36 25.6 46 31.6 30 0.0 ---
2015-09-30 13:38:36 25.8 46 36.8 25 0.0 ---
2015-09-30 13:08:36 26.0 46 35.5 29 0.0 ---
2015-09-30 12:38:36 26.1 45 32.6 32 0.0 ---
2015-09-30 12:08:36 26.4 46 29.7 41 0.0 ---
2015-09-30 11:38:36 26.1 46 26.0 45 0.0 ---
2015-09-30 11:08:36 26.3 47 23.9 51 0.0 ---
2015-09-30 10:38:36 26.1 47 21.5 58 0.0 ---
2015-09-30 10:08:36 27.3 48 20.6 62 0.0 ---
2015-09-30 09:38:36 22.6 53 19.8 65 0.0 ---
2015-09-30 09:08:36 20.7 56 18.9 68 0.0 ---
2015-09-30 08:38:36 16.4 56 17.1 78 0.0 ---
2015-09-30 08:08:36 14.1 53 14.0 88 0.0 ---
2015-09-30 07:38:36 13.2 52 10.9 91 0.0 ---
2015-09-30 07:08:36 13.2 53 10.5 91 0.0 ---
2015-09-30 06:38:36 13.3 53 10.3 91 0.0 ---
2015-09-30 06:08:36 13.5 53 10.2 91 0.0 ---
2015-09-30 05:38:36 13.6 53 9.8 90 0.0 ---
2015-09-30 05:08:36 13.9 53 9.7 89 0.0 ---
2015-09-30 04:38:36 14.1 53 10.0 89 0.0 ---
2015-09-30 04:08:36 14.3 53 10.5 90 0.0 ---
2015-09-30 03:38:36 14.4 53 10.5 90 0.0 ---
2015-09-30 03:08:36 14.7 53 10.7 90 0.0 ---
2015-09-30 02:38:36 14.9 53 11.0 91 0.0 ---
2015-09-30 02:08:36 15.1 53 11.2 91 0.0 ---
2015-09-30 01:38:36 15.3 54 11.2 90 0.0 ---
2015-09-30 01:08:36 15.6 54 11.2 90 0.0 ---
2015-09-30 00:38:36 15.9 54 11.4 89 0.0 ---
2015-09-30 00:08:36 16.2 54 11.4 89 0.0 ---
2015-09-29 23:38:36 16.5 54 11.2 88 0.0 ---
2015-09-29 23:08:36 16.9 54 11.0 87 0.0 ---
2015-09-29 22:38:36 17.4 54 11.0 86 0.0 ---
2015-09-29 22:08:36 17.9 52 10.9 85 0.0 ---
2015-09-29 21:38:36 18.5 52 11.0 84 0.0 ---
2015-09-29 21:08:36 19.1 52 11.0 83 0.0 ---
2015-09-29 20:38:36 19.7 52 11.2 79 0.0 ---
2015-09-29 20:08:36 20.4 53 11.7 78 0.0 ---
2015-09-29 19:38:36 21.3 53 12.3 76 0.0 ---
2015-09-29 19:08:36 22.1 52 12.5 68 0.0 ---
2015-09-29 18:38:36 23.0 50 14.9 63 0.0 ---
2015-09-29 18:08:36 24.1 50 17.0 57 0.0 ---
2015-09-29 17:38:36 25.1 50 20.6 47 0.0 ---
2015-09-29 17:08:36 26.2 50 31.0 30 0.0 ---
2015-09-29 16:38:36 27.2 50 33.8 26 0.0 ---
2015-09-29 16:08:36 27.6 48 34.9 27 0.0 ---
2015-09-29 15:38:36 27.5 48 33.8 28 0.0 ---
2015-09-29 15:08:36 27.3 51 34.3 28 0.0 ---
2015-09-29 14:38:36 26.6 51 33.2 31 0.0 ---
2015-09-29 14:08:36 25.9 51 27.9 35 0.0 ---
2015-09-29 13:38:36 25.6 51 27.1 41 0.0 ---
2015-09-29 13:08:36 25.2 52 26.7 41 0.0 ---
2015-09-29 12:38:36 24.5 52 25.6 46 0.0 ---
2015-09-29 12:08:36 23.8 53 26.0 47 0.0 ---
2015-09-29 11:38:36 22.7 53 25.0 50 0.0 ---
2015-09-29 11:08:36 20.6 57 22.6 58 0.0 ---
2015-09-29 10:38:36 18.8 59 20.9 64 0.0 ---
2015-09-29 10:08:36 16.9 62 20.6 73 0.0 ---
2015-09-29 09:38:36 14.9 52 17.4 81 0.0 ---
2015-09-29 09:08:36 13.0 50 13.8 88 0.0 ---
2015-09-29 08:38:36 12.0 52 10.7 94 0.0 ---
2015-09-29 08:08:36 11.4 52 8.5 95 0.0 ---
2015-09-29 07:38:36 11.3 52 6.7 97 0.0 ---
2015-09-29 07:08:36 11.5 52 6.3 96 0.0 ---
2015-09-29 06:38:36 11.8 52 6.1 96 0.0 ---
2015-09-29 06:08:36 12.0 53 6.0 95 0.0 ---
2015-09-29 05:38:36 12.3 53 6.0 94 0.0 ---
2015-09-29 05:08:36 12.6 51 6.1 94 0.0 ---
2015-09-29 04:38:36 13.0 51 6.5 94 0.0 ---
2015-09-29 04:08:36 13.3 51 6.4 93 0.0 ---
2015-09-29 03:38:36 13.7 51 6.7 93 0.0 ---
2015-09-29 03:08:36 14.1 51 7.0 92 0.0 ---
2015-09-29 02:38:36 14.5 52 7.4 92 0.0 ---
2015-09-29 02:08:36 14.9 52 7.7 87 0.0 ---
2015-09-29 01:38:36 15.3 52 8.1 87 0.0 ---
2015-09-29 01:08:36 15.8 52 8.5 87 0.0 ---
2015-09-29 00:38:36 16.3 52 9.1 89 0.0 ---
2015-09-29 00:08:36 16.7 53 10.2 91 0.0 ---
2015-09-28 23:38:36 17.2 53 10.3 90 0.0 ---
2015-09-28 23:08:36 17.7 51 10.3 88 0.0 ---
2015-09-28 22:38:36 18.3 51 10.8 87 0.0 ---
2015-09-28 22:08:36 19.0 51 10.9 86 0.0 ---
2015-09-28 21:38:36 19.5 51 11.2 85 0.0 ---
2015-09-28 21:08:36 20.2 51 11.9 84 0.0 ---
2015-09-28 20:38:36 20.8 51 12.5 80 0.0 ---
2015-09-28 20:08:36 21.7 51 12.8 78 0.0 ---
2015-09-28 19:38:36 22.5 49 13.6 76 0.0 ---
2015-09-28 19:08:36 23.4 49 14.4 72 0.0 ---
2015-09-28 18:38:36 24.5 49 15.9 68 0.0 ---
2015-09-28 18:08:36 25.7 49 17.6 59 0.0 ---
2015-09-28 17:38:36 26.8 49 20.9 50 0.0 ---
2015-09-28 17:08:36 28.1 47 31.6 28 0.0 ---
2015-09-28 16:38:36 29.2 47 35.5 26 0.0 ---
2015-09-28 16:08:36 29.8 47 36.8 24 0.0 ---
2015-09-28 15:38:36 29.8 47 36.2 25 0.0 ---
2015-09-28 15:08:36 29.6 47 36.2 24 0.0 ---
2015-09-28 14:38:36 29.1 47 36.2 28 0.0 ---
2015-09-28 14:08:36 28.4 47 32.7 32 0.0 ---
2015-09-28 13:38:36 27.7 47 31.6 33 0.0 ---
2015-09-28 13:08:36 26.4 48 32.6 32 0.0 ---
2015-09-28 12:38:36 24.0 48 32.7 37 0.0 ---
2015-09-28 12:08:36 21.3 50 25.3 49 0.0 ---
2015-09-28 11:38:36 19.9 49 23.9 53 0.0 ---
2015-09-28 11:08:36 18.7 48 22.9 60 0.0 ---
2015-09-28 10:38:36 16.9 50 22.9 66 0.0 ---
2015-09-28 10:08:36 14.1 49 18.7 74 0.0 ---
2015-09-28 09:38:36 12.7 49 15.2 80 0.0 ---
2015-09-28 09:08:36 12.4 51 12.4 83 0.0 ---
2015-09-28 08:38:36 11.3 51 11.7 93 0.0 ---
2015-09-28 08:08:36 10.3 51 7.5 92 0.0 ---
2015-09-28 07:38:36 10.3 51 5.3 93 0.0 ---
2015-09-28 07:08:36 10.4 52 5.1 92 0.0 ---
2015-09-28 06:38:36 10.7 52 4.7 91 0.0 ---
2015-09-28 06:08:36 10.9 52 5.1 91 0.0 ---
2015-09-28 05:38:36 11.2 52 5.3 91 0.0 ---
2015-09-28 05:08:36 11.6 52 5.0 91 0.0 ---
2015-09-28 04:38:36 11.9 52 5.2 89 0.0 ---
2015-09-28 04:08:36 12.3 53 5.0 89 0.0 ---
2015-09-28 03:38:36 12.7 51 5.5 90 0.0 ---
2015-09-28 03:08:36 13.1 51 5.5 89 0.0 ---
2015-09-28 02:38:36 13.5 51 5.8 89 0.0 ---
2015-09-28 02:08:36 13.9 51 6.0 88 0.0 ---
2015-09-28 01:38:36 14.3 51 6.1 88 0.0 ---
2015-09-28 01:08:36 14.8 52 6.5 88 0.0 ---
2015-09-28 00:38:36 15.4 52 6.5 87 0.0 ---
2015-09-28 00:08:36 16.0 52 6.5 84 0.0 ---
2015-09-27 23:38:36 16.6 52 7.0 84 0.0 ---
2015-09-27 23:08:36 17.2 53 7.4 83 0.0 ---
2015-09-27 22:38:36 17.9 51 7.8 79 0.0 ---
2015-09-27 22:08:36 18.5 51 8.3 78 0.0 ---
2015-09-27 21:38:36 19.3 51 8.6 78 0.0 ---
2015-09-27 21:08:36 20.1 52 9.1 76 0.0 ---
2015-09-27 20:38:36 20.9 52 10.0 76 0.0 ---
2015-09-27 20:08:36 21.8 52 10.8 73 0.0 ---
2015-09-27 19:38:36 22.7 50 11.6 70 0.0 ---
2015-09-27 19:08:36 23.7 50 12.7 63 0.0 ---
2015-09-27 18:38:36 24.9 50 14.9 58 0.0 ---
2015-09-27 18:08:36 26.1 50 17.9 49 0.0 ---
2015-09-27 17:38:36 27.2 49 20.9 42 0.0 ---
2015-09-27 17:08:36 28.5 47 31.5 31 0.0 ---
2015-09-27 16:38:36 29.6 47 35.5 25 0.0 ---
2015-09-27 16:08:36 30.4 47 28.8 27 0.0 ---
2015-09-27 15:38:36 30.8 47 42.4 22 0.0 ---
2015-09-27 15:08:36 30.3 47 41.6 22 0.0 ---
2015-09-27 14:38:36 29.4 47 39.1 22 0.0 ---
2015-09-27 14:08:36 28.3 47 39.9 22 0.0 ---
2015-09-27 13:38:36 26.6 48 36.2 32 0.0 ---
2015-09-27 13:08:36 25.3 48 31.1 41 0.0 ---
2015-09-27 12:38:36 24.0 48 26.3 49 0.0 ---
2015-09-27 12:08:36 23.0 47 25.3 52 0.0 ---
2015-09-27 11:38:36 22.2 49 22.6 58 0.0 ---
2015-09-27 11:08:36 21.5 49 24.7 59 0.0 ---
2015-09-27 10:38:36 18.2 48 21.5 68 0.0 ---
2015-09-27 10:08:36 16.5 50 20.6 70 0.0 ---
2015-09-27 09:38:36 14.8 50 17.9 73 0.0 ---
2015-09-27 09:08:36 13.4 50 15.2 83 0.0 ---
2015-09-27 08:38:36 12.1 52 12.3 92 0.0 ---
2015-09-27 08:08:36 11.4 52 8.8 92 0.0 ---
2015-09-27 07:38:36 11.1 52 7.2 96 0.0 ---
2015-09-27 07:08:36 11.2 52 6.5 96 0.0 ---
2015-09-27 06:38:36 11.5 52 6.1 95 0.0 ---
2015-09-27 06:08:36 11.8 52 6.1 94 0.0 ---
2015-09-27 05:38:36 12.1 52 6.1 93 0.0 ---
2015-09-27 05:08:36 12.4 52 6.0 93 0.0 ---
2015-09-27 04:38:36 12.8 50 5.9 91 0.0 ---
2015-09-27 04:08:36 13.1 51 6.3 92 0.0 ---
2015-09-27 03:38:36 13.5 51 6.3 91 0.0 ---
2015-09-27 03:08:36 14.0 51 6.3 90 0.0 ---
2015-09-27 02:38:36 14.4 51 6.1 89 0.0 ---
2015-09-27 02:08:36 15.0 52 6.3 89 0.0 ---
2015-09-27 01:38:36 15.5 52 6.5 89 0.0 ---
2015-09-27 01:08:36 16.0 52 7.0 89 0.0 ---
2015-09-27 00:38:36 16.6 52 6.8 88 0.0 ---
2015-09-27 00:08:36 17.2 53 7.0 87 0.0 ---
2015-09-26 23:38:36 17.9 51 7.1 86 0.0 ---
2015-09-26 23:08:36 18.6 51 7.4 84 0.0 ---
2015-09-26 22:38:36 19.5 52 7.8 78 0.0 ---
2015-09-26 22:08:36 20.4 52 8.3 78 0.0 ---
2015-09-26 21:38:36 21.2 52 8.8 77 0.0 ---
2015-09-26 21:08:36 22.3 52 9.0 75 0.0 ---
2015-09-26 20:38:36 23.3 51 9.8 74 0.0 ---
2015-09-26 20:08:36 24.4 51 10.8 72 0.0 ---
2015-09-26 19:38:36 25.5 51 11.6 69 0.0 ---
2015-09-26 19:08:36 26.9 51 12.8 63 0.0 ---
2015-09-26 18:38:36 28.3 49 15.3 57 0.0 ---
2015-09-26 18:08:36 29.8 49 18.4 47 0.0 ---
2015-09-26 17:38:36 31.3 49 22.3 38 0.0 ---
2015-09-26 17:08:36 33.1 47 35.5 23 0.0 ---
2015-09-26 16:38:36 34.4 47 36.2 22 0.0 ---
2015-09-26 16:08:36 35.5 47 39.9 21 0.0 ---
2015-09-26 15:38:36 35.9 47 43.3 20 0.0 ---
2015-09-26 15:08:36 36.2 47 43.7 20 0.0 ---
2015-09-26 14:38:36 36.0 47 40.9 22 0.0 ---
2015-09-26 14:08:36 35.5 46 39.9 24 0.0 ---
2015-09-26 13:38:36 36.0 46 28.4 30 0.0 ---
2015-09-26 13:08:36 36.3 46 36.8 23 0.0 ---
2015-09-26 12:38:36 35.1 45 36.7 25 0.0 ---
2015-09-26 12:08:36 33.0 45 34.3 32 0.0 ---
2015-09-26 11:38:36 31.0 46 29.7 42 0.0 ---
2015-09-26 11:08:36 28.4 46 26.7 51 0.0 ---
2015-09-26 10:38:36 25.9 47 23.6 59 0.0 ---
2015-09-26 10:08:36 23.1 47 21.1 65 0.0 ---
2015-09-26 09:38:36 20.0 49 19.2 66 0.0 ---
2015-09-26 09:08:36 16.9 50 17.1 73 0.0 ---
2015-09-26 08:38:36 14.1 50 14.1 80 0.0 ---
2015-09-26 08:08:36 11.8 52 10.2 89 0.0 ---
2015-09-26 07:38:36 10.5 52 6.3 91 0.0 ---
2015-09-26 07:08:36 10.6 52 5.4 90 0.0 ---
2015-09-26 06:38:36 10.8 52 5.5 91 0.0 ---
2015-09-26 06:08:36 11.0 52 5.8 91 0.0 ---
2015-09-26 05:38:36 11.2 52 5.4 89 0.0 ---
2015-09-26 05:08:36 11.5 52 5.9 91 0.0 ---
2015-09-26 04:38:36 11.8 53 5.5 89 0.0 ---
2015-09-26 04:08:36 12.2 53 5.8 89 0.0 ---
2015-09-26 03:38:36 12.5 51 5.5 87 0.0 ---
2015-09-26 03:08:36 12.6 51 5.9 88 0.0 ---
2015-09-26 02:38:36 13.2 51 6.0 87 0.0 ---
2015-09-26 02:08:36 13.7 51 6.4 87 0.0 ---
2015-09-26 01:38:36 14.0 51 6.3 87 0.0 ---
2015-09-26 01:08:36 14.5 52 6.4 83 0.0 ---
2015-09-26 00:38:36 14.9 52 6.7 83 0.0 ---
2015-09-26 00:08:36 15.4 52 7.4 83 0.0 ---
2015-09-25 23:38:36 15.9 52 7.5 79 0.0 ---
2015-09-25 23:08:36 16.6 52 7.4 80 0.0 ---
2015-09-25 22:38:36 17.1 53 7.8 75 0.0 ---
2015-09-25 22:08:36 17.8 51 8.8 74 0.0 ---
2015-09-25 21:38:36 18.5 51 9.1 72 0.0 ---
2015-09-25 21:08:36 19.2 51 9.7 70 0.0 ---
2015-09-25 20:38:36 20.0 51 10.5 67 0.0 ---
2015-09-25 20:08:36 20.7 51 11.4 64 0.0 ---
2015-09-25 19:38:36 21.6 51 12.1 61 0.0 ---
2015-09-25 19:08:36 22.5 49 12.5 54 0.0 ---
2015-09-25 18:38:36 23.2 49 16.1 47 0.0 ---
2015-09-25 18:08:36 24.1 49 19.2 44 0.0 ---
2015-09-25 17:38:36 25.0 49 21.1 38 0.0 ---
2015-09-25 17:08:36 25.8 48 22.3 33 0.0 ---
2015-09-25 16:38:36 26.6 48 31.1 29 0.0 ---
2015-09-25 16:08:36 26.9 48 27.9 26 0.0 ---
2015-09-25 15:38:36 27.3 48 31.1 23 0.0 ---
2015-09-25 15:08:36 26.9 48 42.4 21 0.0 ---
2015-09-25 14:38:36 25.7 48 33.2 28 0.0 ---
2015-09-25 14:08:36 25.1 47 28.4 25 0.0 ---
2015-09-25 13:38:36 23.9 47 31.6 27 0.0 ---
2015-09-25 13:08:36 21.9 48 32.1 37 0.0 ---
2015-09-25 12:38:36 22.8 45 29.7 31 0.0 ---
2015-09-25 12:08:36 23.2 46 29.3 35 0.0 ---
2015-09-25 11:38:36 22.9 47 26.3 45 0.0 ---
2015-09-25 11:08:36 22.7 48 23.2 48 0.0 ---
2015-09-25 10:38:36 22.2 51 21.2 56 0.0 ---
2015-09-25 10:08:36 21.0 53 20.3 61 0.0 ---
2015-09-25 09:38:36 18.9 50 17.9 66 0.0 ---
2015-09-25 09:08:36 16.1 51 14.3 72 0.0 ---
2015-09-25 08:38:36 14.9 51 14.8 76 0.0 ---
2015-09-25 08:08:36 12.5 51 10.9 88 0.0 ---
2015-09-25 07:38:36 11.7 52 7.8 88 0.0 ---
2015-09-25 07:08:36 11.7 53 7.1 90 0.0 ---
2015-09-25 06:38:36 11.9 53 7.2 90 0.0 ---
2015-09-25 06:08:36 12.2 53 7.1 89 0.0 ---
2015-09-25 05:38:36 12.4 53 7.2 89 0.0 ---
2015-09-25 05:08:36 12.7 50 7.2 89 0.0 ---
2015-09-25 04:38:36 13.0 51 7.4 89 0.0 ---
2015-09-25 04:08:36 13.2 51 7.4 87 0.0 ---
2015-09-25 03:38:36 13.6 51 7.7 83 0.0 ---
2015-09-25 03:08:36 13.9 51 7.8 82 0.0 ---
2015-09-25 02:38:36 14.2 51 8.0 81 0.0 ---
2015-09-25 02:08:36 14.6 51 8.3 80 0.0 ---
2015-09-25 01:38:36 15.0 51 8.1 79 0.0 ---
2015-09-25 01:08:36 15.5 51 8.3 78 0.0 ---
2015-09-25 00:38:36 15.9 51 8.1 78 0.0 ---
2015-09-25 00:08:36 16.4 51 8.6 75 0.0 ---
2015-09-24 23:38:36 16.9 52 8.8 74 0.0 ---
2015-09-24 23:08:36 17.5 50 9.3 74 0.0 ---
2015-09-24 22:38:36 18.1 50 9.1 73 0.0 ---
2015-09-24 22:08:36 18.8 50 9.3 71 0.0 ---
2015-09-24 21:38:36 19.5 50 9.5 69 0.0 ---
2015-09-24 21:08:36 20.2 50 10.3 66 0.0 ---
2015-09-24 20:38:36 21.0 50 10.7 64 0.0 ---
2015-09-24 20:08:36 21.8 50 11.0 62 0.0 ---
2015-09-24 19:38:36 22.8 48 11.9 59 0.0 ---
2015-09-24 19:08:36 23.6 48 13.4 52 0.0 ---
2015-09-24 18:38:36 24.7 48 15.6 46 0.0 ---
2015-09-24 18:08:36 25.7 47 18.4 40 0.0 ---
2015-09-24 17:38:36 26.7 47 21.1 34 0.0 ---
2015-09-24 17:08:36 27.4 47 24.3 31 0.0 ---
2015-09-24 16:38:36 28.3 44 26.3 29 0.0 ---
2015-09-24 16:08:36 29.0 43 32.6 22 0.0 ---
2015-09-24 15:38:36 29.0 42 38.4 21 0.0 ---
2015-09-24 15:08:36 28.3 40 42.8 20 0.0 ---
2015-09-24 14:38:36 27.1 38 36.7 22 0.0 ---
2015-09-24 14:08:36 29.6 38 31.6 23 0.0 ---
2015-09-24 13:38:36 29.4 45 35.7 22 0.0 ---
2015-09-24 13:08:36 27.8 44 30.2 28 0.0 ---
2015-09-24 12:38:36 26.1 44 29.3 30 0.0 ---
2015-09-24 12:08:36 25.5 44 30.2 34 0.0 ---
2015-09-24 11:38:36 25.5 42 27.1 38 0.0 ---
2015-09-24 11:08:36 25.5 46 26.0 47 0.0 ---
2015-09-24 10:38:36 25.4 47 23.6 51 0.0 ---
2015-09-24 10:08:36 25.0 48 21.1 57 0.0 ---
2015-09-24 09:38:36 23.9 53 20.3 61 0.0 ---
2015-09-24 09:08:36 20.9 55 19.5 66 0.0 ---
2015-09-24 08:38:36 18.3 55 17.9 71 0.0 ---
2015-09-24 08:08:36 16.1 57 15.4 85 0.0 ---
2015-09-24 07:38:36 15.4 57 12.4 90 0.0 ---
2015-09-24 07:08:36 15.5 57 12.5 87 0.0 ---
2015-09-24 06:38:36 15.6 57 12.5 87 0.0 ---
2015-09-24 06:08:36 15.7 57 13.4 87 0.0 ---
2015-09-24 05:38:36 15.8 57 13.6 88 0.0 ---
2015-09-24 05:08:36 15.9 57 13.8 88 0.0 ---
2015-09-24 04:38:36 16.0 57 13.6 88 0.0 ---
2015-09-24 04:08:36 16.1 57 13.6 87 0.0 ---
2015-09-24 03:38:36 16.3 57 13.4 87 0.0 ---
2015-09-24 03:08:36 16.5 57 13.0 85 0.0 ---
2015-09-24 02:38:36 16.8 57 12.5 85 0.0 ---
2015-09-24 02:08:36 17.2 57 12.7 84 0.0 ---
2015-09-24 01:38:36 17.5 55 12.4 86 0.0 ---
2015-09-24 01:08:36 17.9 55 13.0 82 0.0 ---
2015-09-24 00:38:36 18.3 54 13.6 81 0.0 ---
2015-09-24 00:08:36 18.7 54 13.8 80 0.0 ---
2015-09-23 23:38:36 19.2 54 13.4 77 0.0 ---
2015-09-23 23:08:36 19.6 54 14.0 75 0.0 ---
2015-09-23 22:38:36 20.1 54 14.4 72 0.0 ---
2015-09-23 22:08:36 20.7 55 14.7 70 0.0 ---
2015-09-23 21:38:36 21.2 55 14.6 68 0.0 ---
2015-09-23 21:08:36 21.9 55 14.6 68 0.0 ---
2015-09-23 20:38:36 22.6 53 14.7 67 0.0 ---
2015-09-23 20:08:36 23.4 53 14.4 65 0.0 ---
2015-09-23 19:38:36 24.3 53 14.8 62 0.0 ---
2015-09-23 19:08:36 25.3 54 16.1 59 0.0 ---
2015-09-23 18:38:36 26.4 54 17.4 55 0.0 ---
2015-09-23 18:08:36 27.4 54 19.2 49 0.0 ---
2015-09-23 17:38:36 28.7 52 20.3 45 0.0 ---
2015-09-23 17:08:36 29.9 51 23.3 35 0.0 ---
2015-09-23 16:38:36 31.4 51 32.7 22 0.0 ---
2015-09-23 16:08:36 32.2 51 30.2 28 0.0 ---
2015-09-23 15:38:36 33.2 49 40.9 21 0.0 ---
2015-09-23 15:08:36 33.0 49 39.1 22 0.0 ---
2015-09-23 14:38:36 33.2 48 31.6 25 0.0 ---
2015-09-23 14:08:36 33.7 48 32.7 24 0.0 ---
2015-09-23 13:38:36 33.9 48 33.2 26 0.0 ---
2015-09-23 13:08:36 33.8 47 36.2 22 0.0 ---
2015-09-23 12:38:36 31.9 49 35.1 28 0.0 ---
2015-09-23 12:08:36 29.9 49 31.1 35 0.0 ---
2015-09-23 11:38:36 27.9 48 25.6 44 0.0 ---
2015-09-23 11:08:36 26.6 50 20.6 49 0.0 ---
2015-09-23 10:38:36 25.4 49 22.6 47 0.0 ---
2015-09-23 10:08:36 24.5 46 21.4 51 0.0 ---
2015-09-23 09:38:36 27.7 45 --- --- --- ---